[[{"header":{"parameterUnit":"m.s-1","parameterCategory":1,"la1":30.6,"la2":28.766,"lo1":-90.7593,"lo2":-88.6598,"dy":0.0162,"dx":0.0183,"nx":116,"ny":114,"refTime":"2023-11-06T06:00:00:Z","depth":0,"parameterNumber":2,"parameterNumberName":"U-component_of_WINDS"},"data":[0.0,0.0,0.0,0.0,0.0,0.0,0.0,0.0,0.0,0.0,0.0,0.0,0.0,0.0,0.0,0.0,0.0,0.0,0.0,0.0,0.0,0.0,0.0,0.0,0.0,0.0,0.0,0.0,0.0,0.0,0.0,0.0,0.0,0.0,0.0,0.0,0.0,0.0,0.0,0.0,0.0,0.0,0.0,0.0,0.0,0.0,0.0,0.0,0.0,0.0,0.0,0.0,0.0,0.0,0.0,0.0,0.0,0.0,0.0,0.0,0.0,0.0,0.0,0.0,0.0,0.0,0.0,0.0,0.0,0.0,0.0,0.0,0.0,0.0,0.0,0.0,0.0,0.0,0.0,0.0,0.0,0.0,0.0,0.0,0.0,0.0,0.0,0.0,0.0,0.0,0.0,0.0,0.0,0.0,0.0,0.0,0.0,0.0,0.0,0.0,0.0,0.0,0.0,0.0,0.0,0.0,0.0,0.0,0.0,0.0,0.0,0.0,0.0,0.0,0.0,0.0,0.0,0.0,0.0,0.0,0.0,0.0,0.0,0.0,0.0,0.0,0.0,0.0,0.0,0.0,0.0,0.0,0.0,0.0,0.0,0.0,0.0,0.0,0.0,0.0,0.0,0.0,0.0,0.0,0.0,0.0,0.0,0.0,0.0,0.0,0.0,0.0,0.0,0.0,0.0,0.0,0.0,0.0,0.0,0.0,0.0,0.0,0.0,0.0,0.0,0.0,0.0,0.0,0.0,0.0,0.0,0.0,0.0,0.0,0.0,0.0,0.0,0.0,0.0,0.0,0.0,0.0,0.0,0.0,0.0,0.0,0.0,0.0,0.0,0.0,0.0,0.0,0.0,0.0,0.0,0.0,0.0,0.0,0.0,0.0,0.0,0.0,0.0,0.0,0.0,0.0,0.0,0.0,0.0,0.0,0.0,0.0,0.0,0.0,0.0,0.0,0.0,0.0,0.0,0.0,0.0,0.0,0.0,0.0,0.0,0.0,0.0,0.0,0.0,0.0,0.0,0.0,0.0,0.0,0.0,0.0,0.0,0.0,0.0,0.0,0.0,0.0,0.0,0.0,0.0,0.0,0.0,0.0,0.0,0.0,0.0,0.0,0.0,0.0,0.0,0.0,0.0,0.0,0.0,0.0,0.0,0.0,0.0,0.0,0.0,0.0,0.0,0.0,0.0,0.0,0.0,0.0,0.0,0.0,0.0,0.0,0.0,0.0,0.0,0.0,0.0,0.0,0.0,0.0,0.0,0.0,0.0,0.0,0.0,0.0,0.0,0.0,0.0,0.0,0.0,0.0,0.0,0.0,0.0,0.0,0.0,0.0,0.0,0.0,0.0,0.0,0.0,0.0,0.0,0.0,0.0,0.0,0.0,0.0,0.0,0.0,0.0,0.0,0.0,0.0,0.0,0.0,0.0,0.0,0.0,0.0,0.0,0.0,0.0,0.0,0.0,0.0,0.0,0.0,0.0,0.0,0.0,0.0,0.0,0.0,0.0,0.0,0.0,0.0,0.0,0.0,0.0,0.0,0.0,0.0,0.0,0.0,0.0,0.0,0.0,0.0,0.0,0.0,0.0,0.0,0.0,0.0,0.0,0.0,0.0,0.0,0.0,0.0,0.0,0.0,0.0,0.0,0.0,0.0,0.0,0.0,0.0,0.0,0.0,0.0,0.0,0.0,0.0,0.0,0.0,0.0,0.0,0.0,0.0,0.0,0.0,0.0,0.0,0.0,0.0,0.0,0.0,0.0,0.0,0.0,0.0,0.0,0.0,0.0,0.0,0.0,0.0,0.0,0.0,0.0,0.0,0.0,0.0,0.0,0.0,0.0,0.0,0.0,0.0,0.0,0.0,0.0,0.0,0.0,0.0,0.0,0.0,0.0,0.0,0.0,0.0,0.0,0.0,0.0,0.0,0.0,0.0,0.0,0.0,0.0,0.0,0.0,0.0,0.0,0.0,0.0,0.0,0.0,0.0,0.0,0.0,0.0,0.0,0.0,0.0,0.0,0.0,0.0,0.0,0.0,0.0,0.0,0.0,0.0,0.0,0.0,0.0,0.0,0.0,0.0,0.0,0.0,0.0,0.0,0.0,0.0,0.0,0.0,0.0,0.0,0.0,0.0,0.0,0.0,0.0,0.0,0.0,0.0,0.0,0.0,0.0,0.0,0.0,0.0,0.0,0.0,0.0,0.0,0.0,0.0,0.0,0.0,0.0,0.0,0.0,0.0,0.0,0.0,0.0,0.0,0.0,0.0,0.0,0.0,0.0,0.0,0.0,0.0,0.0,0.0,0.0,0.0,0.0,0.0,0.0,0.0,0.0,0.0,0.0,0.0,0.0,0.0,0.0,0.0,0.0,0.0,0.0,0.0,0.0,0.0,0.0,0.0,0.0,0.0,0.0,0.0,0.0,0.0,0.0,0.0,0.0,0.0,0.0,0.0,0.0,0.0,0.0,0.0,0.0,0.0,0.0,0.0,0.0,0.0,0.0,0.0,0.0,0.0,0.0,0.0,0.0,0.0,0.0,0.0,0.0,0.0,0.0,0.0,0.0,0.0,0.0,0.0,0.0,0.0,0.0,0.0,0.0,0.0,0.0,0.0,0.0,0.0,0.0,0.0,0.0,0.0,0.0,0.0,0.0,0.0,0.0,0.0,0.0,0.0,0.0,0.0,0.0,0.0,0.0,0.0,0.0,0.0,0.0,0.0,0.0,0.0,0.0,0.0,0.0,0.0,0.0,0.0,0.0,0.0,0.0,0.0,0.0,0.0,0.0,0.0,0.0,0.0,0.0,0.0,0.0,0.0,0.0,0.0,0.0,0.0,0.0,0.0,0.0,0.0,0.0,0.0,0.0,0.0,0.0,0.0,0.0,0.0,0.0,0.0,0.0,0.0,0.0,0.0,0.0,0.0,0.0,0.0,0.0,0.0,0.0,0.0,0.0,0.0,0.0,0.0,0.0,0.0,0.0,0.0,0.0,0.0,0.0,0.0,0.0,0.0,0.0,0.0,0.0,0.0,0.0,0.0,0.0,0.0,0.0,0.0,0.0,0.0,0.0,0.0,0.0,0.0,0.0,0.0,0.0,0.0,0.0,0.0,0.0,0.0,0.0,0.0,0.0,0.0,0.0,0.0,0.0,0.0,0.0,0.0,0.0,0.0,0.0,0.0,0.0,0.0,0.0,0.0,0.0,0.0,0.0,0.0,0.0,0.0,0.0,0.0,0.0,0.0,0.0,0.0,0.0,0.0,0.0,0.0,0.0,0.0,0.0,0.0,0.0,0.0,0.0,0.0,0.0,0.0,0.0,0.0,0.0,0.0,0.0,0.0,0.0,0.0,0.0,0.0,0.0,0.0,0.0,0.0,0.0,0.0,0.0,0.0,0.0,0.0,0.0,0.0,0.0,0.0,0.0,0.0,0.0,0.0,0.0,0.0,0.0,0.0,0.0,0.0,0.0,0.0,0.0,0.0,0.0,0.0,0.0,0.0,0.0,0.0,0.0,0.0,0.0,0.0,0.0,0.0,0.0,0.0,0.0,0.0,0.0,0.0,0.0,0.0,0.0,0.0,0.0,0.0,0.0,0.0,0.0,0.0,0.0,0.0,0.0,0.0,0.0,0.0,0.0,0.0,0.0,0.0,0.0,0.0,0.0,0.0,0.0,0.0,0.0,0.0,0.0,0.0,0.0,0.0,0.0,0.0,0.0,0.0,0.0,0.0,0.0,0.0,0.0,0.0,0.0,0.0,0.0,0.0,0.0,0.0,0.0,0.0,0.0,0.0,0.0,0.0,0.0,0.0,0.0,0.0,0.0,0.0,0.0,0.0,0.0,0.0,0.0,0.0,0.0,0.0,0.0,0.0,0.0,0.0,0.0,0.0,0.0,0.0,0.0,0.0,0.0,0.0,0.0,0.0,0.0,0.0,0.0,0.0,0.0,0.0,0.0,0.0,0.0,0.0,0.0,0.0,0.0,0.0,0.0,0.0,0.0,0.0,0.0,0.0,0.0,0.0,0.0,0.0,0.0,0.0,0.0,0.0,0.0,0.0,0.0,0.0,0.0,0.0,0.0,0.0,0.0,0.0,0.0,0.0,0.0,0.0,0.0,0.0,0.0,0.0,0.0,0.0,0.0,0.0,0.0,0.0,0.0,0.0,0.0,0.0,0.0,0.0,0.0,0.0,0.0,0.0,0.0,0.0,0.0,0.0,0.0,0.0,0.0,0.0,0.0,0.0,0.0,0.0,0.0,0.0,0.0,0.0,0.0,0.0,0.0,0.0,0.0,0.0,0.0,0.0,0.0,0.0,0.0,0.0,0.0,0.0,0.0,0.0,0.0,0.0,0.0,0.0,0.0,0.0,0.0,0.0,0.0,0.0,0.0,0.0,0.0,0.0,0.0,0.0,0.0,0.0,0.0,0.0,0.0,0.0,0.0,0.0,0.0,0.0,0.0,0.0,0.0,0.0,0.0,0.0,0.0,0.0,0.0,0.0,0.0,0.0,0.0,0.0,0.0,0.0,0.0,0.0,0.0,0.0,0.0,0.0,0.0,0.0,0.0,0.0,0.0,0.0,0.0,0.0,0.0,0.0,0.0,0.0,0.0,0.0,0.0,0.0,0.0,0.0,0.0,0.0,0.0,0.0,0.0,0.0,0.0,0.0,0.0,0.0,0.0,0.0,0.0,0.0,0.0,0.0,0.0,0.0,0.0,0.0,0.0,0.0,0.0,0.0,0.0,0.0,0.0,0.0,0.0,0.0,0.0,0.0,0.0,0.0,0.0,0.0,0.0,0.0,0.0,0.0,0.0,0.0,0.0,0.0,0.0,0.0,0.0,0.0,0.0,0.0,0.0,0.0,0.0,0.0,0.0,0.0,0.0,0.0,0.0,0.0,0.0,0.0,0.0,0.0,0.0,0.0,0.0,0.0,0.0,0.0,0.0,0.0,0.0,0.0,0.0,0.0,0.0,0.0,0.0,0.0,0.0,0.0,0.0,0.0,0.0,0.0,0.0,0.0,0.0,0.0,0.0,0.0,0.0,0.0,0.0,0.0,0.0,0.0,0.0,0.0,0.0,0.0,0.0,0.0,0.0,0.0,0.0,0.0,0.0,0.0,0.0,0.0,0.0,0.0,0.0,0.0,0.0,0.0,0.0,0.0,0.0,0.0,0.0,0.0,0.0,0.0,0.0,0.0,0.0,0.0,0.0,0.0,0.0,0.0,0.0,0.0,0.0,0.0,0.0,0.0,0.0,0.0,0.0,0.0,0.0,0.0,0.0,0.0,0.0,0.0,0.0,0.0,0.0,0.0,0.0,0.0,0.0,0.0,0.0,0.0,0.0,0.0,0.0,0.0,0.0,0.0,0.0,0.0,0.0,0.0,0.0,0.0,0.0,0.0,0.0,0.0,0.0,0.0,0.0,0.0,0.0,0.0,0.0,0.0,0.0,0.0,0.0,0.0,0.0,0.0,0.0,0.0,0.0,0.0,0.0,0.0,0.0,0.0,0.0,0.0,0.0,0.0,0.0,0.0,0.0,0.0,0.0,0.0,0.0,0.0,0.0,0.0,0.0,0.0,0.0,0.0,0.0,0.0,0.0,0.0,0.0,0.0,0.0,0.0,0.0,0.0,0.0,0.0,0.0,0.0,0.0,0.0,0.0,0.0,0.0,0.0,0.0,0.0,0.0,0.0,0.0,0.0,0.0,0.0,0.0,0.0,0.0,0.0,0.0,0.0,0.0,0.0,0.0,0.0,0.0,0.0,0.0,0.0,0.0,0.0,0.0,0.0,0.0,0.0,0.0,0.0,0.0,0.0,0.0,0.0,0.0,0.0,0.0,0.0,0.0,0.0,0.0,0.0,0.0,0.0,0.0,0.0,0.0,0.0,0.0,0.0,0.0,0.0,0.0,0.0,0.0,0.0,0.0,0.0,0.0,0.0,0.0,0.0,0.0,0.0,0.0,0.0,0.0,0.0,0.0,0.0,0.0,0.0,0.0,0.0,0.0,0.0,0.0,0.0,0.0,0.0,0.0,0.0,0.0,0.0,0.0,0.0,0.0,0.0,0.0,0.0,0.0,0.0,0.0,0.0,0.0,0.0,0.0,0.0,-1.9648,0.0,0.0,0.0,0.0,0.0,0.0,0.0,0.0,0.0,0.0,0.0,0.0,0.0,0.0,0.0,0.0,0.0,0.0,0.0,0.0,0.0,0.0,0.0,0.0,0.0,0.0,0.0,0.0,0.0,0.0,0.0,0.0,0.0,0.0,0.0,0.0,0.0,0.0,0.0,0.0,0.0,0.0,0.0,0.0,0.0,0.0,0.0,0.0,0.0,0.0,0.0,0.0,0.0,0.0,0.0,0.0,0.0,0.0,0.0,0.0,0.0,0.0,0.0,0.0,0.0,0.0,0.0,0.0,0.0,0.0,0.0,0.0,0.0,0.0,0.0,0.0,0.0,0.0,0.0,0.0,0.0,0.0,0.0,0.0,0.0,0.0,0.0,0.0,0.0,0.0,0.0,0.0,0.0,0.0,0.0,0.0,0.0,0.0,0.0,0.0,0.0,0.0,0.0,0.0,0.0,0.0,0.0,0.0,0.0,0.0,0.0,0.0,0.0,0.0,0.0,0.0,-2.0402,0.0,0.0,0.0,0.0,0.0,0.0,0.0,0.0,0.0,0.0,0.0,0.0,0.0,0.0,0.0,0.0,0.0,0.0,0.0,0.0,0.0,0.0,0.0,0.0,0.0,0.0,0.0,0.0,0.0,0.0,0.0,0.0,0.0,0.0,0.0,0.0,0.0,0.0,0.0,0.0,0.0,0.0,0.0,0.0,0.0,0.0,0.0,0.0,0.0,0.0,0.0,0.0,0.0,0.0,0.0,0.0,0.0,0.0,0.0,0.0,0.0,0.0,0.0,0.0,0.0,0.0,0.0,0.0,0.0,0.0,0.0,0.0,0.0,0.0,0.0,0.0,0.0,0.0,0.0,0.0,0.0,0.0,0.0,0.0,0.0,0.0,0.0,0.0,0.0,0.0,0.0,0.0,0.0,0.0,0.0,0.0,0.0,0.0,0.0,0.0,0.0,0.0,0.0,0.0,0.0,0.0,0.0,0.0,-2.2142,-2.2452,-2.2993,-2.3,-2.2991,-2.2888,-2.1307,-2.0637,-2.0605,-2.0466,0.0,0.0,0.0,0.0,0.0,0.0,0.0,0.0,0.0,0.0,0.0,0.0,0.0,0.0,0.0,0.0,0.0,0.0,0.0,0.0,0.0,0.0,0.0,0.0,0.0,0.0,0.0,0.0,0.0,0.0,0.0,0.0,0.0,0.0,0.0,0.0,0.0,0.0,-2.9297,-3.0801,-3.1504,-3.1426,-2.9258,0.0,0.0,0.0,0.0,0.0,0.0,0.0,0.0,0.0,0.0,0.0,0.0,0.0,0.0,0.0,0.0,0.0,0.0,0.0,0.0,0.0,0.0,0.0,0.0,0.0,0.0,0.0,0.0,0.0,0.0,0.0,0.0,0.0,0.0,0.0,0.0,0.0,0.0,0.0,0.0,0.0,0.0,0.0,-2.2804,-2.2908,0.0,0.0,0.0,0.0,0.0,0.0,0.0,0.0,0.0,0.0,0.0,0.0,0.0,-2.2976,-2.3614,-2.4488,-2.4585,-2.3961,-2.3961,-2.3622,-2.2997,-2.2994,-2.2979,-2.2852,-2.194,0.0,-2.1479,-2.0703,0.0,0.0,0.0,0.0,0.0,0.0,0.0,0.0,0.0,0.0,0.0,0.0,0.0,0.0,0.0,0.0,0.0,0.0,0.0,0.0,0.0,0.0,0.0,0.0,0.0,0.0,0.0,0.0,0.0,0.0,0.0,0.0,0.0,0.0,0.0,0.0,-2.9902,-3.1601,-3.248,-3.3242,-3.334,-3.2812,-3.168,-3.1348,-3.1621,-3.1621,0.0,0.0,0.0,0.0,0.0,0.0,0.0,0.0,0.0,0.0,0.0,0.0,0.0,0.0,0.0,0.0,0.0,0.0,0.0,0.0,0.0,0.0,0.0,0.0,0.0,0.0,0.0,0.0,0.0,0.0,0.0,0.0,0.0,0.0,0.0,0.0,0.0,0.0,0.0,-2.1599,-2.2558,-2.3039,-2.3412,-2.3682,0.0,0.0,0.0,0.0,0.0,0.0,0.0,0.0,0.0,-2.3141,-2.3538,-2.4142,-2.5016,-2.5404,-2.5659,-2.5757,-2.5757,-2.5806,-2.5852,-2.5408,-2.5421,-2.5754,-2.4458,-2.3882,-2.3755,-2.1891,-2.0843,-2.045,0.0,0.0,0.0,0.0,-2.1411,-2.1817,0.0,0.0,0.0,0.0,0.0,0.0,0.0,0.0,0.0,0.0,0.0,0.0,0.0,0.0,0.0,-2.2702,0.0,0.0,0.0,0.0,0.0,0.0,0.0,0.0,0.0,0.0,0.0,0.0,-3.2812,-3.4512,-3.5371,-3.5586,-3.5351,-3.4726,-3.4726,-3.3906,-3.248,-3.2285,-3.1934,0.0,0.0,0.0,0.0,0.0,0.0,0.0,0.0,0.0,0.0,0.0,0.0,0.0,0.0,0.0,0.0,0.0,0.0,0.0,0.0,0.0,0.0,0.0,0.0,0.0,0.0,0.0,0.0,0.0,0.0,0.0,0.0,0.0,0.0,0.0,0.0,0.0,0.0,-2.1728,-2.2282,-2.2714,-2.334,-2.3827,0.0,0.0,0.0,0.0,0.0,0.0,-2.247,-2.3297,-2.4243,-2.5273,-2.5516,-2.6153,-2.7226,-2.746,-2.7662,-2.7877,-2.7877,-2.7948,-2.8078,-2.7479,-2.7534,-2.8013,-2.654,-2.59,-2.5722,-2.3337,-2.1843,-2.1139,-2.1778,-2.2162,-2.2333,-2.2333,-2.2713,-2.3232,0.0,0.0,0.0,0.0,0.0,0.0,0.0,0.0,0.0,0.0,0.0,0.0,0.0,0.0,-2.3507,-2.5178,-2.3878,-2.2933,0.0,0.0,0.0,0.0,0.0,0.0,0.0,0.0,0.0,-3.207,-3.4629,-3.6328,-3.7187,-3.8027,-3.8379,-3.834,-3.834,-3.6484,-3.3281,-3.2519,-3.2617,-3.3125,0.0,0.0,0.0,0.0,0.0,0.0,0.0,0.0,0.0,0.0,0.0,0.0,0.0,0.0,0.0,0.0,0.0,0.0,0.0,0.0,0.0,0.0,0.0,0.0,0.0,0.0,0.0,0.0,0.0,0.0,0.0,0.0,0.0,0.0,0.0,0.0,0.0,0.0,0.0,-2.1953,-2.4,0.0,0.0,0.0,0.0,-2.4323,-2.4989,-2.5088,-2.4309,-2.5091,-2.6322,-2.7942,-2.8816,-3.0012,-3.1668,-3.2504,-3.2105,-3.0519,-3.0519,-2.9654,-2.8099,-2.8061,-2.8054,-2.8058,-2.7131,-2.6747,-2.6611,-2.4878,-2.3658,-2.2876,-2.292,-2.3405,-2.4066,-2.4066,-2.4094,-2.4138,0.0,0.0,0.0,0.0,0.0,0.0,0.0,0.0,0.0,0.0,0.0,0.0,0.0,-2.5205,-2.6676,-2.7903,-2.7433,-2.6832,-2.6273,0.0,0.0,0.0,0.0,0.0,0.0,0.0,-3.2202,-3.6245,-3.8202,-3.9601,-4.0461,-4.1356,-4.1452,-4.0886,-4.0322,-3.9128,-3.7389,-3.5467,-3.3867,-3.2578,-3.1973,-3.0879,0.0,0.0,0.0,0.0,0.0,0.0,0.0,0.0,0.0,0.0,0.0,0.0,0.0,0.0,0.0,0.0,0.0,0.0,0.0,0.0,0.0,0.0,0.0,0.0,0.0,0.0,0.0,0.0,0.0,0.0,0.0,0.0,0.0,0.0,0.0,0.0,0.0,-2.498,-2.5879,0.0,-2.5597,-2.6128,-2.6151,-2.5292,-2.6015,-2.6619,-2.6891,-2.7695,-2.8925,-3.0663,-3.1009,-3.1702,-3.2822,-3.3134,-3.2737,-3.1609,-3.1559,-3.0915,-2.9752,-2.9185,-2.9243,-2.9725,-2.8851,-2.8459,-2.8424,-2.7825,-2.6414,-2.4655,-2.5226,-2.5596,-2.5805,-2.5805,-2.6153,-2.6656,0.0,0.0,0.0,0.0,0.0,0.0,0.0,0.0,0.0,0.0,0.0,-2.3566,-2.5298,-2.7256,-2.9038,-3.0517,-2.9854,-2.9003,-2.8116,0.0,0.0,0.0,0.0,0.0,0.0,-3.2569,-3.5265,-3.9301,-4.0665,-4.1786,-4.2643,-4.3224,-4.3182,-4.2613,-4.2032,-4.1337,-4.0494,-3.8803,-3.6302,-3.3437,-3.2832,-3.209,-3.1191,0.0,0.0,0.0,0.0,0.0,0.0,0.0,0.0,0.0,0.0,0.0,0.0,0.0,0.0,0.0,0.0,0.0,0.0,0.0,0.0,0.0,0.0,0.0,0.0,0.0,0.0,0.0,0.0,0.0,0.0,0.0,0.0,0.0,0.0,0.0,-2.6231,-2.7611,-2.8039,-2.7983,-2.7422,-2.7929,-2.7927,-2.7086,-2.8075,-2.8968,-2.9552,-3.0364,-3.1481,-3.2927,-3.2988,-3.3358,-3.4173,-3.4173,-3.3604,-3.2502,-3.2462,-3.1843,-3.0706,-3.0111,-3.0175,-3.0698,-3.0092,-2.9849,-2.9849,-2.9846,-2.8824,-2.7253,-2.7229,-2.7389,-2.7621,-2.7589,-2.7933,-2.8358,0.0,0.0,0.0,0.0,0.0,0.0,0.0,0.0,0.0,0.0,-2.2429,-2.4296,-2.7662,-2.89,-3.0443,-3.2933,-3.081,-2.8977,-2.8146,-2.5663,0.0,0.0,0.0,0.0,-3.2072,-3.4598,-3.7537,-4.0938,-4.1818,-4.2675,-4.3529,-4.3568,-4.3568,-4.3568,-4.3548,-4.3077,-4.2279,-4.2259,-3.9908,-3.6035,-3.4277,-3.4004,-3.4336,0.0,0.0,0.0,0.0,0.0,0.0,0.0,0.0,0.0,0.0,0.0,0.0,0.0,0.0,0.0,0.0,0.0,0.0,0.0,0.0,0.0,0.0,0.0,0.0,0.0,0.0,0.0,0.0,0.0,0.0,0.0,0.0,0.0,-2.8286,-2.8353,-2.8723,-2.9528,-3.0377,-3.0249,-2.8614,-2.9922,-3.0567,-2.9788,-3.1213,-3.215,-3.2189,-3.2988,-3.3845,-3.4705,-3.4744,-3.5107,-3.5898,-3.5898,-3.5057,-3.3379,-3.3358,-3.248,-3.0919,-3.0825,-3.0827,-3.0876,-3.0814,-3.0775,-3.0738,-3.0763,-3.0741,-3.0525,-2.8837,-2.871,-2.9423,-2.936,-2.9339,-2.9093,0.0,0.0,0.0,0.0,0.0,0.0,0.0,0.0,0.0,0.0,-2.3972,-2.6493,-2.8707,-3.1376,-3.3291,-3.3982,-3.17,-3.0133,-2.9901,0.0,0.0,0.0,0.0,0.0,-3.5571,-3.6881,-3.8921,-4.1781,-4.2593,-4.3443,-4.4316,-4.4897,-4.5175,-4.513,-4.4568,-4.4187,-4.3962,-4.334,-4.2078,-4.0284,-3.7964,-3.6033,-3.4456,0.0,0.0,0.0,0.0,0.0,0.0,0.0,0.0,0.0,0.0,0.0,0.0,0.0,0.0,0.0,0.0,0.0,0.0,0.0,0.0,0.0,0.0,0.0,0.0,0.0,0.0,0.0,0.0,0.0,0.0,0.0,0.0,-3.0087,-3.0088,-3.065,-3.1371,-3.2221,-3.2535,-3.25,-3.204,-3.2418,-3.2596,-3.2363,-3.2773,-3.3319,-3.3944,-3.4217,-3.4744,-3.5621,-3.5641,-3.5742,-3.5964,-3.5964,-3.5733,-3.5248,-3.4629,-3.4061,-3.3593,-3.2895,-3.2595,-3.2601,-3.2586,-3.2235,-3.1685,-3.2316,-3.1831,-3.0644,-3.0164,-3.0102,-3.0276,-3.0249,-3.0236,-2.9986,0.0,0.0,0.0,0.0,0.0,0.0,0.0,0.0,0.0,0.0,-2.5027,-2.763,-3.0075,-3.2454,-3.3866,-3.3866,-3.1855,-3.0133,-2.9046,0.0,0.0,0.0,0.0,-3.5739,-3.8003,-3.9551,-4.1254,-4.3143,-4.3608,-4.4291,-4.5104,-4.5568,-4.5807,-4.5787,-4.5316,-4.5125,-4.5136,-4.4612,-4.3948,-4.3088,-4.1582,-3.945,-3.706,-3.6002,-3.4912,-3.385,-3.2738,-3.2062,-3.1459,-2.9878,0.0,0.0,0.0,0.0,0.0,0.0,0.0,0.0,0.0,0.0,0.0,0.0,0.0,0.0,0.0,0.0,0.0,0.0,0.0,0.0,0.0,0.0,0.0,0.0,-3.1271,-3.2659,-3.3375,-3.3604,-3.4014,-3.4885,-3.5303,-3.5252,-3.4555,-3.515,-3.5428,-3.5057,-3.5037,-3.5408,-3.6288,-3.5994,-3.6189,-3.7067,-3.6735,-3.6716,-3.7087,-3.6735,-3.6539,-3.654,-3.6026,-3.56,-3.523,-3.4687,-3.4237,-3.3886,-3.386,-3.3362,-3.2614,-3.3108,-3.2706,0.0,0.0,0.0,0.0,0.0,-3.1123,-3.0906,0.0,0.0,0.0,0.0,0.0,0.0,0.0,0.0,0.0,0.0,0.0,-2.7892,-3.1033,-3.2314,-3.2914,-3.2836,-3.1275,-2.936,0.0,0.0,0.0,-3.2237,-3.5568,-3.8102,-3.9752,-4.2086,-4.373,-4.4594,-4.4594,-4.5007,-4.5807,-4.5807,-4.5807,-4.5807,-4.5807,-4.5807,-4.5807,-4.5807,-4.5394,-4.4736,-4.4736,-4.3233,-4.0781,-3.8509,-3.789,-3.7946,-3.572,-3.4786,-3.4223,-3.1861,0.0,0.0,0.0,0.0,0.0,0.0,0.0,0.0,0.0,0.0,0.0,0.0,0.0,0.0,0.0,0.0,0.0,0.0,0.0,0.0,0.0,0.0,0.0,0.0,-3.3943,-3.568,-3.7522,-3.7116,-3.6804,-3.7291,-3.8034,-3.7929,-3.6426,-3.7686,-3.8276,-3.7495,-3.7435,-3.7768,-3.8551,0.0,0.0,0.0,0.0,-3.783,-3.8591,-3.783,-3.7497,-3.7575,-3.7497,-3.7087,-3.6423,-3.6225,-3.5716,-3.4981,-3.4824,-3.4295,-3.3555,-3.3588,-3.3547,-3.3346,-3.2305,-3.1546,-3.1076,-3.1687,-3.1917,-3.1816,0.0,0.0,0.0,0.0,0.0,0.0,0.0,0.0,0.0,-2.2824,-2.5196,-2.723,-2.8593,-3.0719,-3.1792,-3.1139,-2.9495,-2.8591,0.0,0.0,-3.3068,-3.58,-3.8566,-4.05,-4.1487,-4.2686,-4.373,-4.4594,-4.4594,-4.5007,-4.5807,-4.5807,-4.5807,-4.5807,-4.5807,-4.5807,-4.5807,-4.5807,-4.571,-4.5568,-4.5568,-4.4053,-4.1728,-4.1238,-3.9474,-3.7301,-3.7484,-3.6253,-3.4347,-3.3192,-3.2937,-3.2506,-2.9188,0.0,0.0,0.0,0.0,0.0,0.0,0.0,0.0,0.0,0.0,0.0,0.0,0.0,0.0,0.0,0.0,0.0,0.0,0.0,0.0,-3.4739,-3.661,-3.8578,-4.0974,-4.1172,-4.0357,-3.8477,-3.8407,-3.8376,-3.8055,-3.8311,-3.8452,-3.8286,-3.8276,-3.8335,-3.85,-3.8364,-3.8369,-3.8591,-3.8435,-3.8435,-3.8591,-3.8435,-3.8669,-3.9312,0.0,0.0,-3.9019,-3.7676,-3.6954,-3.6755,-3.6041,-3.5249,-3.4492,-3.5136,-3.4974,-3.4188,-3.2607,-3.2324,-3.2726,-3.2116,-3.2294,-3.2634,0.0,0.0,0.0,0.0,0.0,0.0,0.0,0.0,0.0,0.0,-2.433,-2.5899,-2.7202,-2.8496,-2.8911,-2.8122,-2.6845,0.0,0.0,-3.1695,-3.4635,-3.8044,-4.0674,-4.2434,-4.3285,-4.4117,-4.4755,-4.52,-4.52,-4.5413,-4.5807,-4.5807,-4.5807,-4.5807,-4.5807,-4.5807,-4.5807,-4.5807,-4.5807,-4.5807,-4.5807,-4.5033,-4.3866,-4.346,-4.1996,-4.0153,-4.0145,-3.9064,-3.7327,-3.5204,-3.452,-3.3955,-3.0482,-2.9705,-2.9636,0.0,0.0,0.0,0.0,0.0,0.0,0.0,0.0,0.0,0.0,0.0,0.0,0.0,0.0,-3.0297,0.0,0.0,-3.5343,-3.7506,-3.9298,-4.099,-4.2705,-4.2588,-4.1675,-4.0009,-4.0193,-4.0103,-3.9234,-3.955,-3.9809,-3.9796,-3.9401,-3.9343,-3.9784,-3.9394,-3.9361,-3.984,-3.943,-3.9411,-3.984,-3.9411,-3.9624,-4.0444,-4.0036,-4.0055,-4.0424,-3.9585,-3.8746,-3.7927,-3.7497,-3.6566,-3.5384,-3.5742,-3.5664,-3.5176,-3.3828,-3.3295,-3.3295,-3.3222,-3.3428,-3.3631,0.0,0.0,0.0,0.0,0.0,0.0,0.0,0.0,0.0,0.0,0.0,-2.4392,-2.5811,-2.6114,-2.589,0.0,0.0,0.0,0.0,-3.2488,-3.593,-4.0062,-4.2512,-4.4117,-4.4813,-4.5471,-4.5807,-4.5807,-4.5807,-4.5807,-4.5807,-4.5807,-4.5807,-4.5807,-4.5981,-4.5962,-4.5807,-4.5981,-4.5962,-4.5807,-4.5807,-4.5807,-4.5729,-4.5084,-4.4311,-4.3421,-4.2376,-4.1271,-3.9849,-3.6925,-3.5639,-3.4789,-3.2023,-3.1388,-3.1188,-2.8856,-2.8506,0.0,0.0,0.0,0.0,0.0,0.0,0.0,0.0,0.0,-2.9457,-3.0314,-3.1875,-3.332,-3.4002,-3.622,-3.8519,-4.0253,-4.1809,-4.3114,-4.3971,-4.3348,-4.2491,-4.1672,-4.1919,-4.1599,-4.0201,-4.0694,-4.1106,-4.1111,-4.0445,-4.0352,-4.1068,-4.0598,-4.0545,-4.1087,-4.0577,-4.0558,-4.1087,-4.0402,-4.0402,-4.1106,-4.1106,-4.1108,-4.109,-4.0914,-4.0114,-3.8806,-3.8494,-3.7555,-3.6247,-3.6011,-3.5951,-3.5918,-3.5176,-3.4432,-3.386,-3.4327,-3.4559,-3.4645,0.0,0.0,0.0,0.0,0.0,0.0,0.0,0.0,0.0,0.0,0.0,0.0,0.0,0.0,0.0,0.0,0.0,0.0,-3.1347,-3.535,-3.9198,-4.2725,-4.4562,-4.5575,-4.5671,-4.5749,-4.5807,-4.5807,-4.5807,-4.5807,-4.5807,-4.5807,-4.5807,-4.5826,-4.6619,-4.6523,-4.5845,-4.6639,-4.6523,-4.5807,-4.5807,-4.5807,-4.5787,-4.571,-4.5162,-4.4246,-4.2589,-4.0487,-3.8313,-3.7166,-3.528,-3.3335,-3.2943,-3.1874,-3.0384,-2.8566,0.0,-2.6906,-2.6001,-2.6315,-2.7067,-2.7745,-2.8561,-2.9827,0.0,0.0,-3.3047,-3.3863,-3.5421,-3.6668,-3.6766,-3.8909,-4.1205,-4.29,-4.3975,-4.4913,-4.5787,-4.5166,-4.4286,-4.3426,-4.2085,-4.1175,-4.0978,-4.1045,-4.11,-4.1098,-4.1006,-4.1006,-4.11,-4.1744,-4.1793,-4.1115,-4.1757,-4.1777,-4.1115,-4.0998,-4.0998,-4.1095,-4.1095,-4.1101,-4.107,-4.0307,-3.9839,-3.9585,-3.8082,-3.7321,-3.7087,-3.6309,-3.5995,-3.5992,-3.5882,-3.5758,-3.5524,-3.4779,-3.499,-3.5524,0.0,0.0,0.0,0.0,0.0,0.0,0.0,0.0,0.0,0.0,0.0,0.0,0.0,0.0,0.0,0.0,0.0,0.0,-3.0902,-3.5563,-3.9721,-4.315,-4.491,-4.5807,-4.5807,-4.5807,-4.5807,-4.5807,-4.5807,-4.5807,-4.5807,-4.5807,-4.5807,-4.5826,-4.6174,-4.6136,-4.5826,-4.6184,-4.6139,-4.5791,-4.5791,-4.5791,-4.5694,-4.471,-4.3827,-4.2937,-4.1719,-3.9978,0.0,0.0,-3.4737,-3.3673,-3.2662,-3.1541,-3.0273,-2.8558,-2.7815,0.0,-2.7195,-2.8481,-3.0007,-3.0375,-3.1486,-3.2888,-3.4486,-3.5246,-3.585,-3.6707,-3.8266,-3.961,-4.0075,-4.189,-4.3546,0.0,-4.5085,-4.5615,-4.5459,-4.4695,-4.3819,-4.2958,-4.1809,-4.1091,-4.11,-4.1094,-4.1286,-4.1763,-4.1367,-4.1526,-4.2496,-4.246,-4.2234,-4.1863,-4.2215,-4.1981,-4.1103,-4.1103,-4.1103,-4.1103,-4.1109,-4.1095,-4.1081,-4.0716,-4.0288,-3.9702,-3.8024,-3.7301,-3.7223,-3.6363,-3.5992,-3.5992,-3.5992,-3.598,-3.5913,-3.5479,-3.5555,-3.5791,0.0,0.0,0.0,0.0,0.0,0.0,0.0,0.0,0.0,0.0,0.0,0.0,0.0,0.0,0.0,0.0,0.0,0.0,0.0,-3.4784,-3.9018,-4.2408,-4.4406,-4.5438,-4.5445,-4.5677,-4.5793,-4.5807,-4.5807,-4.5923,-4.6155,-4.5909,-4.5928,-4.6153,-4.6146,-4.6139,-4.6131,-4.6128,-4.6132,-4.6113,-4.5896,-4.5517,-4.4899,-4.3233,-4.1487,-3.9823,-3.9249,-3.7909,0.0,0.0,-3.2827,-3.2498,-3.1719,-3.0907,-2.9964,-2.8508,-2.7927,-2.7918,-2.8682,-3.0447,-3.2235,-3.2936,-3.4403,-3.5967,-3.7077,-3.7993,-3.885,-3.9727,-4.111,-4.226,-4.2607,-4.4072,-4.5186,-4.4933,-4.5634,-4.5907,-4.503,-4.415,-4.3289,-4.2393,-4.1594,-4.1107,-4.1107,-4.1107,-4.1341,-4.1926,-4.1438,-4.1737,-4.3153,-4.2919,-4.2733,-4.2729,-4.2963,-4.2668,-4.181,-4.1576,-4.1459,-4.1459,-4.122,-4.1109,-4.1094,-4.1104,-4.0758,-4.0073,-3.8629,-3.7867,-3.7594,-3.6716,-3.6226,-3.5992,-3.5992,-3.5992,-3.5995,-3.5954,-3.5936,-3.5926,0.0,0.0,0.0,0.0,0.0,0.0,0.0,0.0,0.0,0.0,0.0,0.0,0.0,0.0,0.0,0.0,0.0,0.0,0.0,-3.3337,-3.7241,-4.0544,-4.3151,-4.4544,-4.4532,-4.5363,-4.581,-4.5807,-4.5807,-4.6232,-4.7038,-4.6189,-4.6252,-4.7063,-4.6986,-4.6962,-4.6973,-4.6962,-4.6954,-4.6896,-4.6113,-4.4795,-4.3095,-4.1493,-3.8282,-3.4626,-3.4607,0.0,0.0,0.0,-2.89,-2.8474,-3.0114,-3.0037,0.0,-2.8262,-2.7458,-2.7387,-2.9933,-3.1297,-3.259,-3.5077,-3.7053,-3.8831,-4.0542,-4.1575,-4.2393,-4.327,-4.4169,-4.452,-4.3718,-4.4988,-4.5887,-4.505,-4.5634,-4.5907,-4.503,-4.415,-4.3289,-4.2393,-4.1594,-4.1107,0.0,-4.1107,-4.1107,-4.1127,-4.1107,-4.1458,-4.2296,-4.3114,-4.3552,-4.3568,-4.4387,-4.4406,-4.3532,-4.2752,-4.2362,-4.2343,-4.1498,-4.11,-4.1094,-4.1104,-4.109,-4.1012,-4.0112,-3.9273,-3.8494,-3.7614,-3.6755,-3.5992,-3.5992,-3.5992,-3.5992,-3.5994,-3.5995,-3.5984,0.0,0.0,0.0,0.0,0.0,0.0,0.0,0.0,0.0,0.0,0.0,0.0,0.0,0.0,0.0,0.0,0.0,0.0,0.0,-3.1534,-3.5183,-3.8022,-4.113,-4.277,-4.2777,-4.3627,-4.4078,-4.4066,-4.4066,-4.4221,-4.451,-4.4812,-4.5094,-4.5403,-4.5908,-4.6151,-4.6143,-4.6139,-4.5795,-4.5158,-4.3767,-4.2509,-4.1045,-3.7171,-3.4779,-3.3015,0.0,0.0,0.0,-2.7155,-2.6942,-2.7348,-2.8509,-2.8668,-2.8378,-2.8088,-2.905,-3.0385,-3.1259,-3.379,-3.6662,-3.8687,-4.0513,-4.212,-4.3292,-4.3801,-4.3936,-4.3659,-4.2494,-4.1422,-4.1127,-4.1559,-4.1851,-4.1559,-4.3663,-4.4835,-4.339,-4.3426,-4.3075,-4.1672,-4.1263,0.0,0.0,0.0,0.0,-4.1867,-4.1906,-4.2513,-4.3955,-4.4306,-4.4465,-4.4452,-4.4744,-4.4491,-4.3611,-4.3338,-4.3202,-4.3182,-4.2351,-4.1668,-4.1094,-4.1104,-4.1109,-4.1051,-4.0171,-3.9331,-3.8533,-3.7653,-3.6794,-3.5992,-3.5992,-3.5992,-3.5992,-3.5992,-3.5992,-3.5996,0.0,0.0,0.0,0.0,0.0,0.0,0.0,0.0,0.0,0.0,0.0,0.0,0.0,0.0,0.0,0.0,0.0,0.0,0.0,0.0,-3.1899,-3.4474,-3.6929,-3.8401,-3.871,-3.9269,-3.97,-4.0023,-4.064,-4.1258,-4.1856,-4.271,-4.3281,-4.359,-4.3759,-4.4002,-4.4272,-4.367,-4.3096,-4.2422,-4.0742,-3.9196,-3.7462,-3.3639,-3.1617,0.0,0.0,0.0,0.0,-2.4757,-2.512,-2.601,-2.7174,-2.7759,-2.8189,-2.9115,-3.058,-3.2274,-3.4109,-3.6658,-3.9335,-4.1664,-4.3107,-4.4156,-4.5035,-4.5023,-4.46,-4.3732,-4.1788,-4.0042,-3.9451,-3.9337,-3.9123,-3.8519,-4.0506,-4.187,-4.1049,-4.1379,-4.1634,-4.1474,-4.1459,-4.1575,0.0,0.0,0.0,-4.2276,-4.2588,-4.339,-4.4816,-4.4894,-4.505,-4.5342,-4.5361,-4.5105,-4.454,-4.3913,-4.3293,-4.2695,-4.2175,-4.1649,-4.1094,-4.1104,-4.1109,-4.107,-4.0503,-3.9626,-3.8552,-3.8006,-3.7067,-3.5992,-3.5992,-3.5992,-3.5992,-3.5992,-3.5992,-3.5994,0.0,0.0,0.0,0.0,0.0,0.0,0.0,0.0,0.0,0.0,0.0,0.0,0.0,0.0,0.0,0.0,0.0,0.0,0.0,0.0,0.0,-3.0019,-3.106,-3.1956,-3.2785,-3.2843,-3.3284,-3.4174,-3.5822,-3.7482,-3.9077,-3.9846,-4.066,-4.1393,-4.0558,-4.0604,-4.1231,-3.97,-3.9015,-3.8823,-3.7152,-3.5027,-3.2663,-3.0906,0.0,0.0,0.0,0.0,0.0,-2.3019,-2.3635,-2.4699,-2.6377,-2.7464,-2.8657,-3.1256,-3.2048,-3.3156,-3.8158,-3.9633,-4.0574,-4.3864,-4.4724,-4.4962,-4.5705,-4.5239,-4.438,-4.343,-4.1863,-4.0167,0.0,0.0,-3.7714,-3.6137,-3.6738,-3.7692,-3.8604,-3.8638,-3.9452,0.0,0.0,0.0,0.0,0.0,0.0,-4.2491,0.0,-4.4033,-4.4855,-4.4933,-4.5342,-4.618,-4.6199,-4.618,-4.6141,-4.4442,-4.2773,-4.1153,-4.1164,-4.1139,-4.1094,-4.1104,-4.1108,-4.1109,-4.1109,-4.0153,-3.8591,-3.8591,-3.7575,-3.5992,-3.5992,-3.5992,-3.5992,-3.5992,-3.5992,-3.5992,0.0,0.0,0.0,0.0,0.0,0.0,0.0,0.0,0.0,0.0,0.0,0.0,0.0,0.0,0.0,0.0,0.0,0.0,0.0,0.0,0.0,0.0,0.0,0.0,0.0,0.0,0.0,0.0,0.0,-3.3538,-3.4565,-3.4764,-3.4988,-3.52,-3.561,-3.5565,-3.518,-3.5417,-3.5129,-3.4391,0.0,-3.1646,-3.0744,0.0,0.0,0.0,0.0,0.0,0.0,0.0,0.0,0.0,-2.907,-2.9766,-3.0448,-3.3016,-3.4631,-3.6168,-3.8797,-4.0892,-4.2712,-4.426,-4.5105,-4.5334,-4.4306,-4.3931,-4.3034,-4.0269,-3.7805,-3.5648,0.0,0.0,0.0,-3.5556,-3.8001,0.0,-4.1798,-4.1968,0.0,-4.299,0.0,-4.3209,-4.3526,-4.4179,0.0,0.0,-4.4442,-4.4676,-4.4894,-4.5517,-4.5965,-4.6199,-4.6199,-4.5887,-4.5244,-4.415,-4.3059,-4.199,-4.2047,-4.173,-4.1098,-4.1092,-4.1103,-4.1109,-4.1109,-4.0153,-3.8591,-3.8591,-3.7575,-3.5992,-3.5992,-3.5992,-3.5992,-3.5992,-3.5992,-3.5992,0.0,0.0,0.0,0.0,0.0,0.0,0.0,0.0,0.0,0.0,0.0,0.0,0.0,0.0,0.0,0.0,0.0,0.0,0.0,0.0,0.0,0.0,0.0,0.0,0.0,0.0,0.0,0.0,0.0,0.0,0.0,-3.0352,-3.0717,-3.0737,-3.1224,-3.1166,-3.0737,-3.1224,0.0,0.0,0.0,0.0,0.0,0.0,0.0,0.0,0.0,0.0,0.0,0.0,0.0,-2.9901,-3.1275,-3.2222,-3.3267,-3.5433,0.0,-3.8489,-4.0597,-4.2492,-4.4001,-4.4478,-4.4686,-4.4221,-4.2168,-4.1421,-4.0329,-3.7307,-3.5211,0.0,-3.2248,-3.2287,-3.2714,0.0,0.0,0.0,-4.0089,-4.0713,-4.168,0.0,-4.3926,0.0,-4.4615,-4.5145,-4.5478,0.0,-4.5478,-4.5478,-4.5478,-4.5926,-4.6199,-4.6199,-4.6199,-4.579,-4.4913,-4.4033,-4.3153,-4.2296,-4.1983,-4.1568,-4.1093,-4.1107,-4.1099,-4.1109,0.0,-4.0153,-3.8591,-3.8591,-3.7575,-3.5992,-3.5992,-3.5992,-3.5992,-3.5992,-3.5992,-3.5992,0.0,0.0,0.0,0.0,0.0,0.0,0.0,0.0,0.0,0.0,0.0,0.0,0.0,0.0,0.0,0.0,0.0,0.0,0.0,0.0,0.0,0.0,0.0,0.0,0.0,0.0,0.0,0.0,0.0,0.0,0.0,0.0,0.0,0.0,0.0,0.0,0.0,0.0,0.0,0.0,0.0,0.0,0.0,0.0,0.0,0.0,0.0,0.0,0.0,0.0,-3.1023,-3.2159,-3.3262,-3.464,-3.6207,-3.8025,-3.9069,-4.0236,-4.2783,-4.3943,-4.4458,-4.4574,-4.3788,-4.2338,-3.9887,-3.8566,-3.7166,-3.4662,0.0,-3.2762,-3.1946,-3.1695,-3.1516,-3.1283,0.0,-3.4193,-3.7216,-3.8194,-4.0127,-4.4215,-4.4796,-4.5177,-4.5944,-4.6138,-4.6199,-4.6199,-4.6199,-4.6199,-4.6199,-4.6199,-4.6199,-4.6199,-4.6082,-4.5654,-4.4913,-4.3916,-4.3056,-4.2296,-4.1476,-4.11,-4.1093,-4.1105,-4.1097,-4.109,-4.0973,-4.0036,-3.8591,-3.8474,-3.7477,-3.5992,-3.5992,-3.5992,-3.5992,-3.5992,-3.5992,-3.5992,0.0,0.0,0.0,0.0,0.0,0.0,0.0,0.0,0.0,0.0,0.0,0.0,0.0,0.0,0.0,0.0,0.0,0.0,0.0,0.0,0.0,0.0,0.0,0.0,0.0,0.0,0.0,0.0,0.0,0.0,0.0,0.0,0.0,0.0,0.0,0.0,0.0,0.0,0.0,0.0,0.0,0.0,0.0,0.0,0.0,0.0,0.0,0.0,0.0,0.0,-3.0424,-3.3262,-3.5524,-3.6458,-3.7174,-3.963,-4.0468,-4.1126,-4.3692,-4.3962,-4.3711,-4.442,-4.2899,-4.0732,-3.8856,-3.7232,0.0,0.0,-3.2155,-3.1753,-3.0848,-3.0615,-3.1434,-3.4134,-3.4193,-3.583,-4.1319,-4.1603,-4.235,0.0,-4.5753,-4.5881,-4.6131,-4.6189,0.0,0.0,-4.6199,-4.6199,-4.6199,-4.6199,-4.6199,-4.6199,-4.5498,-4.505,-4.4894,-4.3312,-4.2452,-4.2296,-4.1481,-4.1109,-4.1093,-4.1096,-4.109,-4.1051,-4.0346,0.0,-3.8533,-3.783,-3.6911,-3.5992,-3.5992,-3.5992,-3.5992,-3.5992,-3.5992,-3.5992,0.0,0.0,0.0,0.0,0.0,0.0,0.0,0.0,0.0,0.0,-2.0617,0.0,0.0,0.0,0.0,0.0,0.0,0.0,0.0,0.0,0.0,0.0,0.0,0.0,0.0,0.0,-2.0904,-2.0885,0.0,0.0,0.0,-2.1081,-2.0885,0.0,0.0,0.0,0.0,0.0,0.0,0.0,0.0,0.0,0.0,0.0,0.0,0.0,0.0,0.0,0.0,0.0,-3.0346,-3.2875,-3.5452,-3.7502,-3.9185,-4.0429,-4.1106,-4.168,-4.2918,-4.3266,-4.3285,-4.3266,-4.1332,-3.876,-3.6143,0.0,0.0,0.0,-3.0487,-3.0928,-3.048,-3.0669,0.0,-3.3048,-3.3766,-3.5589,-3.9839,-4.099,-4.2333,-4.491,-4.5673,-4.6022,-4.6089,-4.6093,-4.6115,-4.6196,-4.6199,-4.6199,-4.6199,-4.6199,-4.6199,-4.6199,-4.579,-4.5361,-4.4894,-4.3624,-4.2744,-4.2296,-4.1477,-4.1103,-4.1106,-4.1091,-4.1105,-4.1042,-4.0189,-3.9331,-3.8533,-3.7653,-3.6794,-3.5992,-3.5992,-3.5992,-3.5992,-3.5992,-3.5992,-3.5992,0.0,0.0,0.0,0.0,0.0,0.0,0.0,-2.0357,-2.0453,-2.0453,-2.1066,-2.1228,-2.0536,-2.0518,0.0,0.0,0.0,0.0,0.0,0.0,0.0,0.0,0.0,0.0,0.0,0.0,0.0,-2.0308,-2.0923,0.0,0.0,0.0,0.0,0.0,-2.0308,-2.0404,0.0,0.0,0.0,0.0,0.0,0.0,0.0,0.0,0.0,0.0,0.0,0.0,0.0,0.0,-2.9877,-3.1661,-3.3905,-3.7077,-3.9965,-3.9965,-4.081,-4.1816,-4.2183,-4.2647,-4.2763,-4.1738,-3.9417,-3.6568,-3.3513,-3.2005,0.0,-2.8687,-2.9414,-3.0411,-3.0389,-3.0644,-3.098,0.0,-3.2452,-3.4377,-3.7488,-3.948,-4.1565,0.0,-4.5337,0.0,-4.5944,-4.5966,0.0,-4.615,-4.6189,-4.6199,-4.6199,-4.6199,-4.6199,-4.6199,-4.6199,-4.579,-4.4913,-4.4033,-4.3153,-4.2296,-4.1477,-4.11,-4.1095,-4.1108,-4.11,-4.1055,-4.0185,-3.9331,-3.8533,-3.7653,-3.6794,-3.5992,-3.5992,-3.5992,-3.5992,-3.5992,-3.5992,-3.5992,0.0,0.0,0.0,0.0,0.0,0.0,0.0,-2.0823,-2.1297,-2.1297,-2.1416,-2.144,-2.1302,-2.1348,0.0,0.0,0.0,0.0,0.0,0.0,0.0,0.0,0.0,0.0,0.0,0.0,0.0,-2.0308,-2.0365,0.0,0.0,0.0,0.0,0.0,0.0,-2.0712,-2.1389,0.0,0.0,0.0,0.0,0.0,0.0,0.0,0.0,0.0,0.0,0.0,0.0,0.0,0.0,-2.9708,-3.0733,-3.3924,-3.727,-3.727,0.0,0.0,-4.2763,-4.2667,-4.1738,-4.0139,-3.7218,-3.4253,-3.2353,0.0,-2.9457,-2.9229,-2.9839,-3.0389,-3.0324,-2.9658,-2.9629,-3.1153,0.0,-3.2368,-3.7302,-3.8938,-4.0818,-4.4039,0.0,0.0,-4.5724,-4.5896,-4.6007,-4.6012,-4.6138,-4.6199,-4.6199,-4.6199,-4.6199,-4.6199,-4.6199,-4.579,-4.4913,-4.4033,-4.3153,-4.2296,-4.1477,-4.11,-4.1095,-4.1108,-4.11,-4.1055,-4.0185,-3.9331,0.0,-3.7653,-3.6794,-3.5992,-3.5992,-3.5992,-3.5992,-3.5992,-3.5992,-3.5992,0.0,0.0,0.0,0.0,0.0,0.0,0.0,-2.0413,-2.0623,-2.0623,-2.1512,-2.1967,-2.1455,-2.1895,0.0,0.0,0.0,0.0,0.0,0.0,0.0,0.0,0.0,0.0,0.0,0.0,-2.1019,-2.1019,-2.1543,0.0,0.0,0.0,0.0,0.0,0.0,-2.0923,-2.0769,0.0,0.0,0.0,0.0,0.0,0.0,0.0,0.0,0.0,0.0,0.0,0.0,0.0,0.0,0.0,-2.6957,-2.9302,0.0,0.0,-3.7251,-3.8837,-4.0539,-4.0758,-4.0216,-3.9011,-3.6149,-3.3305,-3.2082,0.0,-2.9273,-2.9202,-2.9798,-3.0318,-3.0194,-2.9813,-2.9749,-3.0496,0.0,0.0,-3.5253,-3.6643,-3.8639,-4.2343,-4.3573,0.0,0.0,0.0,-4.5776,-4.5972,-4.6115,-4.6199,-4.6199,-4.6199,-4.6199,-4.6199,-4.6199,-4.579,-4.4913,-4.4033,-4.3426,-4.3075,-4.2237,-4.1812,-4.1821,-4.1866,-4.1605,-4.1025,-3.9676,-3.8903,0.0,-3.7087,-3.6305,-3.5992,-3.5992,-3.6324,-3.6716,-3.6187,-3.6324,-3.6716,0.0,0.0,0.0,0.0,0.0,0.0,-2.0093,-2.0322,-2.048,-2.048,-2.1512,-2.2114,-2.1795,-2.1876,-2.1584,-2.0642,0.0,0.0,0.0,0.0,0.0,0.0,0.0,0.0,0.0,0.0,-2.1254,-2.1504,-2.21,-2.2547,0.0,0.0,-2.2331,-2.1504,0.0,0.0,0.0,0.0,0.0,0.0,0.0,0.0,0.0,0.0,0.0,0.0,0.0,0.0,0.0,0.0,0.0,0.0,0.0,0.0,0.0,0.0,-3.4717,-3.6477,-3.7972,-3.8553,-3.8392,-3.7033,-3.4519,-3.2063,0.0,0.0,-2.8927,-2.9079,-2.9716,-3.0219,-3.0116,-3.0015,-3.0064,0.0,0.0,-3.1545,-3.4129,-3.5332,-3.7192,-4.0447,0.0,-4.2834,0.0,-4.5148,-4.5638,-4.5961,-4.6089,-4.6154,-4.6196,-4.6199,-4.6199,-4.6199,-4.6199,-4.579,-4.4913,-4.4286,-4.3854,-4.3582,-4.2724,-4.2296,-4.2296,-4.2092,-4.1676,-4.1037,-3.9848,-3.9057,0.0,-3.7282,-3.6461,-3.5992,-3.5992,-3.6383,-3.6833,-3.6226,-3.6383,-3.6833,0.0,0.0,0.0,0.0,0.0,0.0,0.0,-2.0829,-2.1388,-2.1388,-2.1407,-2.1708,-2.2505,-2.1173,-2.0536,-2.1311,0.0,0.0,0.0,0.0,0.0,0.0,0.0,0.0,0.0,0.0,0.0,-2.1504,-2.1504,-2.1947,-2.2797,-2.2797,-2.2331,-2.1504,0.0,0.0,0.0,0.0,0.0,0.0,0.0,0.0,0.0,0.0,0.0,0.0,0.0,0.0,0.0,0.0,0.0,0.0,0.0,-2.5401,-2.5792,0.0,-3.1086,-3.4626,-3.5496,-3.6323,-3.6323,-3.3784,-3.1869,-3.0172,0.0,0.0,-2.8139,-2.8948,-2.9621,-3.0101,-3.0101,-3.0101,-3.035,-3.1078,0.0,0.0,-3.4575,-3.5766,-3.701,0.0,0.0,-4.0823,-4.2551,-4.4422,-4.5638,-4.5961,-4.6002,0.0,-4.6192,-4.6199,-4.6199,-4.6199,-4.6199,-4.579,-4.4913,-4.4894,-4.4442,-4.3582,-4.2724,-4.2296,-4.2276,-4.1476,-4.1103,-4.1093,-4.1087,-4.0123,0.0,-3.8572,-3.7555,-3.5992,-3.5992,-3.6012,-3.6012,-3.5992,-3.6012,-3.6012,0.0,0.0,0.0,0.0,0.0,0.0,0.0,-2.0322,-2.0518,-2.0518,-2.1039,-2.1268,-2.0934,-2.0967,-2.0905,-2.0608,0.0,0.0,0.0,0.0,0.0,0.0,0.0,0.0,0.0,0.0,0.0,-2.2389,-2.299,-2.3701,-2.45,-2.45,-2.4062,-2.324,-2.2643,-2.1927,0.0,0.0,0.0,0.0,0.0,0.0,0.0,0.0,0.0,0.0,0.0,0.0,0.0,0.0,0.0,0.0,0.0,0.0,0.0,-2.601,-2.8405,-3.1217,-3.2648,-3.3223,-3.3088,-3.1739,-3.0062,-2.8748,-2.8738,-2.8233,-2.8149,-2.9493,-2.9942,-3.0101,-3.0101,-3.0034,-3.0285,-3.1252,0.0,0.0,0.0,0.0,0.0,-3.9423,-4.1954,-4.3746,0.0,0.0,-4.5541,-4.5654,-4.5866,-4.6017,-4.6066,-4.615,-4.6199,-4.6199,-4.6199,-4.6063,-4.579,-4.5205,-4.4757,-4.4481,-4.3601,-4.288,-4.2296,-4.2081,-4.1668,-4.1035,-3.9839,-3.905,-3.8513,-3.7301,-3.65,-3.6051,-3.6657,-3.7243,-3.7692,-3.7106,-3.7262,-3.7614,0.0,0.0,0.0,0.0,0.0,0.0,0.0,-2.0093,-2.0093,-2.0093,-2.0575,-2.0829,-2.0614,-2.079,-2.0833,-2.068,0.0,0.0,0.0,0.0,0.0,0.0,0.0,0.0,0.0,-2.1077,-2.1927,-2.2797,-2.3663,-2.4356,-2.4851,-2.4851,-2.4389,-2.3586,-2.3047,-2.2509,0.0,0.0,0.0,0.0,0.0,0.0,-2.5308,0.0,0.0,0.0,0.0,0.0,0.0,0.0,0.0,0.0,0.0,0.0,0.0,0.0,-2.6723,-2.8546,-2.9955,-3.0598,-3.0646,-2.9796,-2.8729,0.0,0.0,-2.8324,-2.8498,-2.983,-3.0064,-3.0015,-3.0015,-3.0011,-3.0388,-3.1649,0.0,0.0,0.0,0.0,0.0,-3.9773,0.0,0.0,0.0,-4.4939,-4.5456,-4.5509,-4.5691,-4.5866,-4.5997,-4.608,-4.6146,-4.6196,-4.6199,-4.6199,-4.6199,-4.5654,-4.54,-4.5381,-4.4169,-4.3328,-4.2763,-4.2172,-4.1602,-4.103,-3.9598,-3.883,0.0,-3.7066,-3.6305,-3.6051,-3.6597,-3.7145,-3.7555,-3.7009,-3.7145,-3.7458,0.0,0.0,0.0,0.0,0.0,0.0,0.0,0.0,0.0,0.0,-2.0093,-2.0404,-2.1216,-2.0575,0.0,0.0,0.0,0.0,0.0,0.0,0.0,0.0,0.0,0.0,0.0,-2.1049,-2.1927,-2.2797,-2.3605,-2.4072,-2.4187,-2.4052,-2.3644,-2.297,-2.2855,-2.2836,-2.2951,-2.3764,-2.4567,-2.5308,-2.5308,-2.5308,0.0,0.0,0.0,0.0,0.0,0.0,0.0,0.0,0.0,0.0,0.0,0.0,0.0,0.0,0.0,0.0,0.0,-2.8435,-2.8994,-2.8116,-2.7888,0.0,0.0,0.0,0.0,-2.9915,-2.9996,-2.9916,-2.9981,-3.0057,-3.0628,-3.2243,0.0,0.0,0.0,-3.7059,0.0,0.0,-4.164,0.0,-4.2525,-4.4202,-4.5341,-4.5482,-4.549,-4.5638,-4.5944,-4.5966,-4.6037,-4.6189,-4.6165,-4.6165,-4.6189,-4.6189,-4.615,-4.6072,-4.44,-4.3562,-4.3445,-4.1848,-4.1061,0.0,-4.0094,-3.923,-3.8342,-3.7533,-3.6735,-3.6012,-3.6148,-3.6187,-3.6187,-3.6187,-3.6187,-3.6168,0.0,0.0,0.0,0.0,0.0,0.0,0.0,0.0,0.0,0.0,0.0,-2.0189,-2.038,-2.0227,0.0,0.0,0.0,0.0,0.0,0.0,0.0,0.0,0.0,0.0,0.0,-2.1052,-2.1929,-2.2797,-2.3009,-2.3755,-2.4981,-2.3721,-2.3678,-2.4654,-2.337,-2.3163,-2.3802,-2.4014,-2.4567,-2.5308,-2.5308,-2.5308,0.0,0.0,0.0,0.0,-2.5308,-2.5308,0.0,0.0,0.0,0.0,0.0,0.0,0.0,0.0,-2.5481,-2.5677,-2.5807,0.0,-2.8183,-2.7956,-2.7785,-2.7816,0.0,0.0,0.0,0.0,0.0,0.0,0.0,0.0,0.0,0.0,0.0,-3.3333,-3.5846,0.0,0.0,-4.0847,-4.2993,-4.3707,-4.1859,-4.3827,-4.5256,-4.533,-4.5447,-4.5533,-4.5615,-4.5715,-4.5859,-4.6037,-4.5894,-4.5889,-4.6056,-4.6056,-4.5706,-4.5045,-4.4059,-4.325,-4.2568,-4.1555,-4.0749,-4.0064,-3.9177,-3.8331,-3.7525,-3.6653,-3.6187,-3.6129,-3.7477,-3.7986,-3.7986,-3.7986,-3.7986,-3.7809,0.0,0.0,0.0,0.0,0.0,0.0,0.0,0.0,0.0,0.0,0.0,0.0,0.0,0.0,0.0,0.0,0.0,0.0,0.0,0.0,0.0,0.0,0.0,0.0,0.0,-2.1447,-2.2329,-2.2797,-2.3562,-2.4024,-2.4139,-2.3216,-2.3274,-2.4159,-2.4005,-2.4216,-2.4639,-2.4639,-2.4909,-2.5308,-2.5308,0.0,0.0,0.0,0.0,0.0,-2.5308,-2.5308,0.0,-2.3913,-2.4293,-2.5096,0.0,0.0,0.0,0.0,-2.5563,-2.5812,-2.5831,-2.6265,-2.6679,-2.6625,-2.6803,-2.7203,-2.8011,0.0,0.0,0.0,0.0,0.0,0.0,0.0,0.0,0.0,-3.3076,0.0,0.0,0.0,-4.0025,-4.1567,-4.2678,-4.3236,0.0,-4.4347,-4.5233,-4.5246,-4.5361,-4.5438,-4.5509,-4.5623,-4.579,-4.5997,-4.5896,-4.5896,-4.6002,-4.6002,-4.555,-4.4695,-4.3954,-4.3133,-4.2276,-4.1477,-4.0841,-4.0346,-3.948,-3.8614,-3.7788,-3.6939,-3.6359,-3.609,-3.7048,-3.7419,-3.7419,-3.7419,-3.7419,-3.7262,0.0,0.0,0.0,0.0,0.0,0.0,0.0,0.0,0.0,0.0,0.0,0.0,0.0,0.0,0.0,0.0,0.0,0.0,0.0,0.0,0.0,0.0,0.0,-2.0205,-2.0193,-2.1788,-2.2675,-2.2797,-2.4096,-2.4135,-2.299,-2.2605,-2.2547,-2.2874,-2.4428,-2.5192,-2.5308,-2.5308,-2.5308,-2.5308,-2.5308,0.0,0.0,0.0,0.0,0.0,0.0,0.0,0.0,-2.3524,-2.3947,-2.4865,-2.3451,0.0,0.0,0.0,0.0,0.0,-2.6317,-2.5823,-2.5297,-2.5435,-2.599,-2.6693,-2.7509,0.0,0.0,0.0,0.0,0.0,0.0,-2.9991,0.0,0.0,0.0,0.0,-3.8803,-3.8746,-3.9323,-4.192,-4.2003,0.0,-4.4269,-4.4885,-4.5192,-4.5192,-4.5246,-4.5341,-4.5464,-4.5579,-4.5729,-4.5922,-4.5927,-4.5927,-4.5927,-4.5944,-4.5523,-4.4649,-4.3914,-4.3123,-4.2276,-4.1477,-4.1029,-4.0857,0.0,0.0,-3.8244,-3.7437,-3.6666,-3.601,-3.6148,-3.6207,-3.6207,-3.6207,-3.6207,-3.6187,0.0,0.0,0.0,0.0,0.0,0.0,0.0,0.0,0.0,0.0,0.0,0.0,0.0,0.0,0.0,0.0,0.0,0.0,0.0,0.0,0.0,0.0,-2.0159,-2.0205,-2.0193,-2.1193,-2.206,-2.2797,-2.2312,-2.2716,-2.386,-2.1696,-2.1446,-2.2836,-2.3836,-2.4659,-2.5308,-2.5308,-2.5308,-2.5308,-2.5308,0.0,0.0,0.0,0.0,0.0,0.0,0.0,0.0,-2.4221,-2.4072,-2.424,-2.3975,0.0,0.0,0.0,0.0,0.0,-2.5315,-2.5181,-2.5406,-2.6842,-2.7276,-2.7528,-2.8332,0.0,0.0,0.0,0.0,0.0,0.0,-3.0408,-3.0692,0.0,0.0,-3.886,0.0,0.0,-4.2393,-4.1491,0.0,-4.3699,-4.2028,-4.3843,-4.5148,-4.5192,-4.5246,-4.5317,-4.5329,-4.5351,-4.5419,-4.5574,-4.5574,-4.5574,-4.5574,-4.5694,-4.5331,-4.4511,-4.379,-4.3026,-4.2276,-4.1477,-4.0698,-3.9941,0.0,-3.8207,-3.7335,-3.6538,-3.6118,-3.6061,-3.6811,-3.7106,-3.7106,-3.7106,-3.7106,-3.6989,0.0,0.0,0.0,0.0,0.0,0.0,0.0,0.0,0.0,0.0,0.0,0.0,0.0,0.0,0.0,0.0,0.0,0.0,0.0,0.0,0.0,0.0,-2.0153,-2.0199,-2.0193,-2.1519,-2.2175,-2.21,-2.2643,-2.2836,-2.2682,-2.1985,-2.2062,-2.2855,-2.4178,-2.4947,-2.5308,-2.5308,-2.5308,-2.5308,0.0,0.0,0.0,0.0,0.0,0.0,0.0,0.0,0.0,0.0,-2.3706,-2.3937,-2.299,0.0,0.0,0.0,0.0,0.0,-2.5399,-2.5248,-2.5026,-2.5825,-2.6081,-2.6368,-2.7176,0.0,0.0,0.0,0.0,0.0,0.0,0.0,-3.2379,-3.5846,0.0,-3.941,-4.1465,-4.1313,-4.12,0.0,0.0,-4.2993,-4.3224,-4.4338,-4.5061,-4.5148,-4.5203,-4.5265,-4.5297,-4.538,-4.5438,-4.549,-4.5225,-4.5213,-4.5498,-4.4735,-4.4134,-4.3678,-4.3011,-4.2291,-4.1536,-4.1247,-4.0874,-4.0487,0.0,-3.9135,-3.7878,-3.7505,-3.6813,-3.604,-3.6438,-3.6597,-3.6597,-3.6597,-3.6596,-3.6476,0.0,0.0,0.0,0.0,0.0,0.0,0.0,0.0,0.0,0.0,0.0,0.0,0.0,0.0,0.0,0.0,0.0,0.0,0.0,0.0,-2.0122,-2.0122,-2.0176,-2.0201,-2.0193,-2.1523,-2.1987,-2.1504,-2.2643,-2.2624,-2.1504,-2.2177,-2.272,-2.3163,-2.4447,-2.5115,-2.5308,-2.5308,-2.5308,-2.5308,0.0,0.0,0.0,0.0,0.0,0.0,0.0,0.0,0.0,0.0,0.0,0.0,0.0,0.0,0.0,-2.4607,-2.4562,-2.4547,-2.5732,-2.5513,-2.4957,-2.4957,0.0,0.0,0.0,0.0,0.0,0.0,0.0,0.0,0.0,-3.2444,0.0,-3.8083,-3.9031,-3.993,-4.1806,-4.0953,-4.0858,-4.2773,-4.245,-4.281,-4.4724,-4.4955,-4.5014,-4.5061,-4.5159,-4.5213,-4.5256,-4.5199,-4.5235,-4.5446,-4.4696,-4.4574,-4.5139,-4.362,-4.2903,-4.2992,-4.2318,-4.1615,-4.0893,-4.1019,-4.1075,-4.1088,-4.0659,-3.9733,-3.8477,-3.8061,-3.7134,-3.5974,-3.5983,-3.6006,-3.5988,-3.5776,-3.5812,-3.5845,0.0,0.0,0.0,0.0,0.0,0.0,0.0,0.0,0.0,0.0,0.0,0.0,0.0,0.0,0.0,0.0,0.0,0.0,0.0,0.0,-2.0192,-2.0192,-2.0201,-2.0199,-2.0193,-2.0384,-2.0808,-2.1504,-2.0885,-2.0885,-2.1504,-2.1562,-2.247,-2.4014,-2.4129,-2.4601,-2.5308,-2.5308,-2.5308,-2.5308,-2.5308,0.0,0.0,0.0,0.0,0.0,0.0,0.0,0.0,0.0,0.0,0.0,0.0,0.0,-2.2887,-2.3736,-2.4815,-2.5767,-2.5893,-2.5812,-2.5728,-2.5728,-2.5879,0.0,-2.8059,-2.9053,0.0,-3.2823,0.0,0.0,0.0,-3.4188,-3.559,-3.8273,-4.0006,-4.1882,-4.4289,0.0,-4.4516,-4.4706,-4.4668,-4.4706,-4.4876,-4.4955,-4.4991,-4.5022,-4.5125,-4.5203,-4.5203,-4.4512,-4.4476,-4.529,-4.389,-4.3438,-4.4094,-4.2584,-4.2205,-4.2992,-4.214,-4.1434,-4.0907,-4.0917,-4.0984,-4.101,-3.9396,-3.8617,-3.8366,-3.6743,-3.6029,-3.5914,-3.5984,-3.6007,-3.5892,-3.509,-3.5305,-3.5767,0.0,0.0,0.0,0.0,0.0,0.0,0.0,0.0,0.0,0.0,0.0,0.0,0.0,0.0,0.0,0.0,0.0,0.0,0.0,0.0,-2.0192,-2.0192,-2.0205,-2.0207,-2.0199,-2.0761,-2.0942,-2.075,-2.0942,-2.1196,-2.1523,-2.2605,-2.3471,-2.4129,-2.462,-2.5019,-2.5308,-2.5308,-2.5308,-2.5308,-2.5308,-2.5308,0.0,0.0,0.0,0.0,0.0,0.0,0.0,0.0,-2.3297,-2.237,0.0,0.0,-2.2945,-2.4746,-2.5181,-2.5412,-2.6877,-2.6879,-2.647,-2.647,-2.6989,0.0,0.0,-2.9238,-3.0284,-3.182,-3.271,0.0,0.0,0.0,-3.7106,-3.9115,-4.0847,-4.2469,-4.3947,-4.4573,-4.4895,-4.4895,-4.4895,-4.4895,-4.4895,-4.4919,-4.4759,-4.4289,-4.479,-4.4941,-4.4472,-4.4168,-4.414,-4.4475,-4.3001,-4.253,-4.3252,-4.1714,-4.1325,-4.2066,-4.1297,-4.0896,-4.079,-4.0859,-4.0975,-4.1029,-3.9825,-3.9006,-3.8402,-3.7208,-3.6397,-3.5909,-3.5962,-3.6005,-3.5888,-3.502,-3.5231,-3.5611,0.0,0.0,0.0,0.0,0.0,0.0,0.0,0.0,0.0,0.0,0.0,0.0,0.0,0.0,0.0,0.0,0.0,0.0,0.0,-2.0195,-2.0199,-2.0199,-2.0218,-2.0238,-2.0238,-2.0823,-2.0846,-2.0308,-2.0846,-2.1389,-2.1947,-2.3124,-2.3841,-2.4129,-2.4678,-2.4769,-2.4519,-2.4788,-2.4928,-2.4947,-2.5192,-2.5308,0.0,0.0,0.0,0.0,0.0,0.0,0.0,0.0,-2.3509,0.0,0.0,0.0,0.0,0.0,-2.545,-2.6048,-2.7651,-2.7706,-2.7278,-2.7278,0.0,0.0,-2.9767,-3.0499,-3.1403,-3.3157,-3.4453,-3.5628,-3.6775,0.0,0.0,0.0,-4.1302,-4.2609,-4.3208,-4.4004,-4.4516,-4.4516,-4.4516,-4.4516,-4.4516,-4.4516,-4.4192,-4.3418,-4.3938,-4.4089,-4.3573,-4.3347,-4.3338,-4.3605,-4.2076,-4.1625,-4.2374,-4.1097,-4.0675,-4.1113,-4.0656,-4.0504,-4.0636,-4.0784,-4.0757,-4.059,-3.9757,-3.8909,-3.8032,-3.7459,-3.6857,-3.6294,-3.6053,-3.5977,-3.5877,-3.5008,-3.5043,-3.5227,0.0,0.0,0.0,0.0,0.0,0.0,0.0,0.0,0.0,0.0,0.0,0.0,0.0,0.0,0.0,0.0,0.0,0.0,0.0,-2.0199,-2.0192,-2.0192,-2.0261,-2.0308,-2.0308,-2.0308,-2.0308,-2.0308,-2.0327,-2.1177,-2.2797,-2.2816,-2.3278,-2.411,-2.411,-2.3624,-2.2855,-2.3725,-2.411,-2.4168,-2.4962,-2.5288,-2.5308,0.0,0.0,0.0,0.0,0.0,0.0,0.0,-2.3528,-2.2645,0.0,0.0,0.0,0.0,-2.5629,-2.8096,-2.8096,-2.8114,-2.8114,-2.8096,0.0,0.0,-3.2417,-3.3232,-3.4277,-3.7788,-3.8596,-3.869,-3.8709,-3.8007,0.0,-3.9616,-4.1283,-4.2382,-4.2382,-4.3152,-4.3682,-4.3682,-4.3682,-4.3682,-4.3682,-4.3682,-4.3322,-4.2439,-4.2525,-4.2601,-4.2601,-4.1904,-4.1896,-4.2756,-4.117,-4.0673,-4.1457,-4.0692,-4.0282,-4.0282,-4.0301,-4.0372,-4.0504,-4.0636,-4.0294,-3.9567,-3.8818,-3.7993,-3.7194,-3.7194,-3.7194,-3.71,-3.6236,-3.5902,-3.5797,-3.5002,-3.4692,-3.4584,0.0,0.0,0.0,0.0,0.0,0.0,0.0,0.0,0.0,0.0,0.0,0.0,0.0,0.0,0.0,0.0,0.0,0.0,0.0,-2.0207,-2.0192,-2.0192,-2.0261,-2.0308,-2.0308,-2.0846,-2.0865,-2.0308,-2.1485,-2.2312,-2.2836,-2.4005,-2.4389,-2.4129,-2.4697,-2.4159,-2.2855,-2.3725,-2.411,-2.4129,-2.4356,-2.4793,-2.5308,0.0,0.0,0.0,0.0,0.0,0.0,0.0,0.0,0.0,0.0,0.0,0.0,-2.5617,-2.6607,-2.7371,-2.7947,-2.8542,0.0,-2.8244,0.0,0.0,0.0,-3.2713,0.0,0.0,-3.804,-3.8034,-3.9302,-3.9332,0.0,-3.9058,-4.046,-4.1548,-4.1548,-4.228,-4.2791,-4.2791,-4.2791,-4.2791,-4.2791,-4.2791,-4.2462,-4.1672,-4.2191,-4.2303,-4.1786,-4.155,-4.157,-4.1877,-4.0253,-3.9508,-3.9737,-3.9508,-3.9393,-3.9393,-4.0014,-4.0372,-4.0496,-4.0542,-4.0211,-3.9543,-3.8715,-3.7925,-3.7155,-3.6532,-3.6298,-3.6259,-3.5992,-3.5894,-3.5794,-3.4944,-3.5022,-3.5254,0.0,0.0,0.0,0.0,0.0,0.0,0.0,0.0,0.0,0.0,-2.0131,0.0,0.0,0.0,0.0,0.0,0.0,0.0,0.0,0.0,-2.0238,-2.0238,-2.0285,-2.0442,-2.0769,-2.125,-2.1427,-2.1293,-2.2316,-2.299,-2.3336,-2.4005,-2.4043,-2.3586,-2.3735,-2.3058,-2.185,-2.272,-2.3067,-2.3124,-2.3821,-2.4394,-2.487,0.0,0.0,0.0,0.0,0.0,0.0,0.0,0.0,0.0,0.0,0.0,0.0,-2.616,-2.6935,-2.7557,-2.8393,-2.8988,0.0,-2.8746,-3.0214,-3.2091,-3.3224,0.0,0.0,0.0,-3.8731,-3.8641,-4.0068,-3.984,0.0,-3.9191,-4.0309,-4.1075,-4.0734,-4.1397,-4.1908,-4.1908,-4.1908,-4.1908,-4.1908,-4.1908,-4.1609,-4.0789,-4.0916,-4.0988,-4.09,-4.0586,-4.0444,-4.0501,-3.9527,-3.8839,-3.8495,-3.8476,-3.8476,-3.8495,-3.903,-3.9494,-3.9912,-3.9965,-3.9637,-3.8942,-3.7836,-3.729,-3.7136,-3.6259,-3.6103,-3.6376,-3.6045,-3.5908,-3.583,-3.5304,-3.5226,-3.5207,0.0,0.0,0.0,0.0,0.0,0.0,0.0,0.0,0.0,0.0,-2.0188,-2.0197,0.0,0.0,0.0,0.0,0.0,0.0,0.0,0.0,-2.0308,-2.0308,-2.0308,-2.0673,-2.1485,-2.1581,-2.2043,-2.2913,-2.2913,-2.3278,-2.3975,-2.3259,-2.2836,-2.2643,-2.2023,-2.1196,-2.0365,-2.1235,-2.1562,-2.1639,-2.322,-2.3918,-2.4067,-2.4793,0.0,0.0,0.0,0.0,0.0,0.0,0.0,0.0,-2.4112,-2.48,-2.5944,-2.5749,-2.6795,-2.8152,-2.8951,-2.9266,0.0,-2.9396,-3.0716,0.0,-3.4048,-3.6889,-3.9399,-4.0203,0.0,-4.0028,-4.0851,-3.9841,-3.9123,-3.9786,-4.0563,-4.079,-4.0014,-4.0582,-4.1075,-4.1075,-4.1075,-4.1075,-4.1075,-4.1029,-4.0658,-3.9957,-3.9138,-3.9067,-3.9935,-3.9233,-3.8803,-3.8877,-3.882,-3.84,-3.7597,-3.7597,-3.7597,-3.7597,-3.7655,-3.8113,-3.8886,-3.901,-3.8669,-3.7903,-3.6499,-3.6331,-3.7019,-3.622,-3.6376,-3.6999,-3.6201,-3.5908,-3.5908,-3.5908,-3.5343,-3.47,0.0,0.0,0.0,0.0,0.0,0.0,0.0,0.0,0.0,0.0,0.0,0.0,0.0,0.0,0.0,0.0,0.0,0.0,0.0,0.0,-2.0308,-2.0308,-2.0308,-2.0673,-2.1485,-2.2177,-2.2951,-2.3821,-2.3821,-2.3567,-2.3086,-2.3586,-2.3086,-2.1831,-2.3009,-2.2336,-2.0404,-2.1889,-2.212,-2.1523,-2.1908,-2.247,-2.3105,-2.3274,-2.3759,0.0,0.0,0.0,0.0,0.0,0.0,0.0,-2.4752,-2.4799,-2.5091,-2.5565,-2.6386,-2.7204,-2.739,-2.8393,0.0,0.0,-3.1552,-3.4123,-3.5776,-3.6744,-3.754,-3.8452,-3.9582,-4.0528,-4.094,-4.0736,-4.0367,-3.9984,-4.0071,-4.0108,-3.9938,-4.0071,-4.0184,-4.0184,-4.0184,-4.0184,-4.0184,-3.9608,-3.9418,-3.9862,-3.8538,-3.8096,-3.9041,-3.8318,-3.7908,-3.798,-3.7368,-3.6939,-3.6748,-3.6748,-3.6748,-3.6767,-3.7406,-3.7789,-3.798,-3.8004,-3.7674,-3.7027,-3.6123,-3.5917,-3.6162,-3.5986,-3.6006,-3.6162,-3.5967,-3.5908,-3.5908,-3.5908,-3.5343,-3.4625,0.0,0.0,0.0,0.0,0.0,0.0,0.0,0.0,0.0,0.0,0.0,0.0,0.0,0.0,0.0,0.0,0.0,0.0,0.0,0.0,0.0,0.0,-2.0308,-2.0673,-2.1485,-2.1947,-2.2605,-2.3471,-2.3471,-2.3451,-2.3413,-2.3451,-2.2778,-2.1523,-2.2043,-2.1543,-2.0365,-2.1235,-2.135,-2.0962,-2.1304,-2.1712,-2.2177,-2.2561,-2.2983,-2.3492,-2.4356,0.0,0.0,0.0,0.0,0.0,0.0,0.0,-2.4912,-2.5957,-2.6293,-2.6479,-2.726,0.0,0.0,-3.0734,0.0,-3.4172,-3.6235,-3.6699,-3.6842,-3.7323,-3.8469,-3.9457,-3.9596,-4.0037,-4.0245,-3.9868,-3.9867,-3.99,-3.99,-3.99,-3.99,-3.99,-3.99,-3.9748,-3.9361,-3.8955,-3.8709,-3.8698,-3.7542,-3.7232,-3.8185,-3.7424,-3.7013,-3.7111,-3.671,-3.629,-3.587,-3.587,-3.587,-3.587,-3.6298,-3.6509,-3.6509,-3.6993,-3.6853,-3.6207,-3.5848,-3.5787,-3.5908,-3.5908,-3.5908,-3.5908,-3.5908,-3.5908,-3.585,-3.5421,-3.4993,-3.4547,0.0,0.0,0.0,0.0,0.0,0.0,0.0,0.0,0.0,0.0,0.0,0.0,0.0,0.0,0.0,0.0,0.0,0.0,0.0,0.0,0.0,0.0,-2.0423,-2.0827,-2.1485,-2.1658,-2.2081,-2.2797,-2.2797,-2.3086,-2.3644,-2.2913,-2.212,-2.1273,-2.0731,-2.0423,-2.0308,-2.0442,-2.0415,-2.0318,-2.0938,-2.1177,-2.1259,-2.1928,-2.2364,-2.2834,-2.4303,-2.5009,-2.5474,-2.6867,0.0,0.0,0.0,0.0,-2.5142,-2.6507,-2.6423,-2.6219,-2.7706,0.0,-2.9229,-3.2091,-3.2908,0.0,-3.577,-3.6272,-3.6272,-3.6272,-3.7124,-3.7866,-3.7891,-3.8619,-3.9225,-3.929,-3.9388,-3.9462,-3.9464,-3.9464,-3.9464,-3.9464,-3.9464,-3.921,-3.8538,-3.8348,-3.8026,-3.7438,-3.6529,-3.6397,-3.7329,-3.6425,-3.5928,-3.6061,-3.5927,-3.5507,-3.4781,-3.4762,-3.4762,-3.4762,-3.4762,-3.4846,-3.5018,-3.5848,-3.599,-3.5566,-3.5655,-3.5745,-3.5875,-3.5886,-3.5908,-3.5908,-3.5908,-3.5908,-3.5811,-3.509,-3.472,-3.4508,0.0,0.0,0.0,0.0,0.0,0.0,0.0,0.0,0.0,0.0,-2.0308,0.0,0.0,0.0,0.0,0.0,0.0,0.0,0.0,0.0,0.0,0.0,-2.0962,-2.1389,-2.1504,-2.2235,-2.2682,-2.2797,-2.2797,-2.2466,-2.1831,-2.1735,-2.1235,-2.0481,-2.1077,-2.0942,-2.0346,-2.1038,-2.0862,-2.0131,-2.0232,-2.026,-2.0298,-2.0389,-2.1416,-2.2797,-2.292,-2.3897,-2.5243,-2.6044,-2.6148,0.0,0.0,0.0,-2.5735,-2.6637,-2.6814,-2.6944,0.0,0.0,-3.053,0.0,-3.2481,-3.328,0.0,0.0,-3.4531,0.0,-3.5801,-3.6931,-3.7038,-3.7181,-3.7352,-3.7588,-3.7632,-3.7675,-3.7721,-3.7732,-3.7732,-3.7732,-3.7732,-3.7694,-3.759,-3.6946,-3.6775,-3.7363,-3.595,-3.5486,-3.6415,-3.4997,-3.4202,-3.4331,-3.3597,-3.3158,-3.3024,-3.3024,-3.3024,-3.3024,-3.3024,-3.3425,-3.4167,-3.4305,-3.4748,-3.5432,-3.556,-3.567,-3.5741,-3.5846,-3.5908,-3.5908,-3.5908,-3.5908,-3.5889,-3.5772,-3.5246,-3.4586,0.0,0.0,0.0,0.0,0.0,0.0,0.0,0.0,0.0,0.0,0.0,-2.0307,0.0,0.0,0.0,0.0,0.0,0.0,0.0,0.0,0.0,0.0,0.0,-2.0827,-2.0827,-2.1196,-2.1408,-2.1408,-2.1408,-2.1196,-2.0827,-2.0827,-2.0635,-2.0327,-2.0673,-2.0623,-2.0323,-2.0608,-2.0506,-2.0133,-1.9982,-2.0262,-2.0766,-2.0775,-2.153,-2.2696,-2.3665,-2.4426,-2.5164,-2.6337,-2.6669,-2.6756,-2.7447,0.0,0.0,0.0,-2.7241,-2.7074,-2.7873,-2.8988,-3.0121,0.0,-3.1385,-3.1868,-3.2667,0.0,-3.3528,-3.3528,-3.4457,-3.5467,-3.6013,-3.6547,-3.6931,-3.7068,-3.7194,-3.7322,-3.7345,-3.7379,-3.7401,-3.7401,-3.7401,-3.723,-3.6775,-3.6415,-3.614,-3.6007,-3.5325,-3.4898,-3.4896,-3.42,-3.3623,-3.323,-3.2882,-3.2699,-3.2699,-3.2699,-3.2699,-3.2699,-3.2699,-3.2909,-3.328,-3.328,-3.404,-3.5405,-3.5464,-3.5554,-3.5641,-3.5706,-3.5753,-3.5794,-3.5794,-3.5837,-3.583,-3.5343,-3.4606,-3.3758,0.0,0.0,0.0,0.0,0.0,0.0,0.0,0.0,0.0,0.0,0.0,0.0,0.0,0.0,0.0,0.0,0.0,0.0,0.0,0.0,0.0,0.0,0.0,0.0,-2.0308,-2.05,-2.05,-2.0308,-2.0308,-2.0308,-2.0308,-2.0308,-2.0308,-2.0308,-2.0308,-2.0285,-2.0242,-2.0184,-2.0134,-2.0102,-2.019,-2.0644,-2.1301,-2.1491,-2.2199,-2.3208,-2.4284,-2.4878,-2.5366,-2.6687,-2.7115,-2.7239,-2.7884,-2.7687,0.0,0.0,0.0,0.0,0.0,0.0,-2.9322,-3.0344,-3.0456,-3.0567,0.0,0.0,-3.2704,0.0,-3.3324,-3.4086,-3.4748,-3.5597,-3.6211,-3.6266,-3.643,-3.6594,-3.6667,-3.6703,-3.6745,-3.6765,-3.6576,-3.6215,-3.5609,-3.5363,-3.4965,-3.432,-3.4263,-3.4036,-3.3501,-3.3278,-3.2901,-3.2309,-3.2149,-3.2069,-3.2069,-3.2069,-3.2069,-3.2069,-3.2069,-3.2183,-3.2394,-3.2374,-3.3233,-3.4728,-3.475,-3.4937,-3.522,-3.5041,-3.5117,-3.5361,-3.5383,-3.5468,-3.5463,-3.4834,-3.414,-3.3363,0.0,0.0,0.0,0.0,0.0,0.0,0.0,0.0,0.0,0.0,0.0,0.0,0.0,0.0,-2.0297,-2.0294,-2.0294,-2.0306,-2.0304,-2.03,-2.0308,0.0,0.0,0.0,-2.0327,-2.1058,-2.1058,-2.0308,-2.0308,-2.0308,-2.0308,-2.0308,-2.0308,-2.0308,-2.0308,-2.0225,-2.0131,-2.0234,-2.0106,-1.9911,-2.0919,-2.1263,-2.129,-2.2049,-2.3397,-2.474,-2.3816,0.0,0.0,-2.6665,-2.6925,-2.7056,-2.7854,-2.8077,-2.8059,0.0,0.0,0.0,0.0,-2.8765,0.0,-3.0196,-3.0028,0.0,0.0,0.0,-3.1868,-3.1868,-3.25,-3.3083,-3.3131,-3.3782,-3.4387,-3.4505,-3.4528,-3.4637,-3.49,-3.4931,-3.4952,-3.5012,-3.4358,-3.3884,-3.3828,-3.3089,-3.2568,-3.253,-3.253,-3.2538,-3.2571,-3.1844,-3.1435,-3.1451,-3.0725,-3.0319,-3.0319,-3.0319,-3.0319,-3.0319,-3.0319,-3.0758,-3.156,-3.1496,-3.1981,-3.2856,-3.298,-3.3462,-3.4129,-3.3487,-3.3674,-3.4386,-3.4516,-3.4571,-3.4582,-3.4586,-3.4529,-3.4198,0.0,0.0,0.0,0.0,0.0,0.0,0.0,0.0,0.0,0.0,0.0,0.0,0.0,-2.0366,-2.0344,-2.0295,-2.0304,-2.0294,-2.0306,-2.0304,-2.0292,-2.0292,0.0,-2.0846,-2.1077,-2.0846,-2.0846,-2.1077,-2.0558,-2.0308,-2.0308,-2.0308,-2.0308,-2.0308,-2.0308,-2.0249,-2.015,-2.0178,-2.0394,-2.0782,-2.1121,-2.1921,-2.289,-2.3132,0.0,0.0,0.0,0.0,0.0,0.0,0.0,0.0,0.0,0.0,0.0,0.0,0.0,0.0,0.0,0.0,0.0,-2.9675,-2.9601,-2.9545,-3.0121,-3.066,-3.1032,-3.1032,-3.1663,-3.224,-3.224,-3.3317,-3.4054,-3.358,-3.3575,-3.3499,-3.3122,-3.3137,-3.3214,-3.3288,-3.3051,-3.288,-3.288,-3.2568,-3.2397,-3.2397,-3.2397,-3.2179,-3.1684,-3.1423,-3.1072,-3.0575,-3.028,-3.0164,-3.0211,-3.0211,-3.0211,-3.0211,-3.0211,-3.0357,-3.0663,-3.0643,-3.0796,-3.1102,-3.1146,-3.1933,-3.3178,-3.2947,-3.307,-3.3464,-3.4025,-3.3973,-3.3682,-3.4299,-3.3723,-3.256,0.0,0.0,0.0,0.0,0.0,0.0,0.0,0.0,0.0,0.0,0.0,0.0,0.0,0.0,-2.0924,-2.1146,-2.0646,-2.0424,-2.0713,-2.0453,-2.0304,-2.0304,-2.03,-2.0673,-2.1485,-2.0712,-2.0692,0.0,-2.0692,-2.0308,-2.0308,-2.0308,-2.0292,-2.03,-2.03,-2.0242,-2.0186,-2.0487,0.0,-2.1367,0.0,0.0,-2.4289,0.0,0.0,0.0,0.0,0.0,0.0,0.0,0.0,0.0,0.0,0.0,0.0,0.0,0.0,0.0,-2.9322,0.0,0.0,0.0,-2.8951,-2.8951,-2.8951,0.0,-3.0196,-3.0196,-3.0846,-3.1403,-3.1403,-3.25,-3.3224,-3.2685,-3.2661,-3.2563,-3.2137,-3.2154,-3.227,-3.2372,-3.2161,-3.2,-3.2,-3.1734,-3.1564,-3.1564,-3.1564,0.0,-3.0787,-3.0837,-3.0627,-3.011,-3.0128,-3.0157,-3.0211,-3.0472,-3.0472,-3.0211,-3.0491,-3.0472,-3.0211,-3.0211,-3.0211,-3.0211,-3.0211,-3.1006,-3.2279,-3.1973,-3.2084,-3.2493,-3.3038,-3.2983,-3.2685,-3.3358,-3.275,-3.16,0.0,0.0,0.0,0.0,0.0,0.0,0.0,0.0,0.0,0.0,0.0,0.0,0.0,0.0,0.0,-2.2826,-2.1304,-2.0676,-2.1542,-2.0792,-2.0304,-2.0304,-2.0304,-2.0696,-2.1523,-2.075,-2.0731,0.0,0.0,0.0,0.0,0.0,-2.03,-2.0304,-2.0304,-2.0223,-2.0167,0.0,-2.1505,-2.1603,0.0,-2.525,-2.5342,0.0,0.0,0.0,-2.7146,-2.7056,0.0,-2.7836,0.0,0.0,0.0,0.0,0.0,0.0,0.0,0.0,0.0,0.0,0.0,0.0,0.0,0.0,-2.8133,0.0,-2.9359,-2.9378,-2.9991,-3.053,-3.0567,-3.1199,-3.1738,-3.1738,-3.1756,-3.1801,-3.1902,-3.1987,-3.2069,-3.2204,-3.1587,-3.1166,-3.1166,-3.0408,-2.9897,-2.9897,-2.9897,-2.9897,-2.9897,-2.9964,-3.0026,-3.0101,-3.0164,-3.0211,-3.0211,-3.0968,-3.0968,-3.0211,-3.1064,-3.1026,-3.0211,-3.0211,-3.0211,-3.0211,-3.0211,-3.0682,-3.1408,-3.0548,-3.0701,-3.146,-3.1565,-3.1588,-3.158,-3.1767,-3.1741,-3.1601,0.0,0.0,0.0,0.0,0.0,0.0,0.0,0.0,0.0,0.0,0.0,0.0,0.0,0.0,-2.2017,-2.2826,-2.1349,-2.0747,-2.1623,-2.0807,-2.0292,-2.0292,-2.0295,-2.097,-2.2414,-2.1609,-2.1581,0.0,0.0,0.0,0.0,0.0,0.0,0.0,-2.0297,-2.0278,-2.0299,-2.1199,0.0,-2.3236,-2.4654,-2.5867,0.0,0.0,0.0,0.0,0.0,-2.7809,-2.7798,0.0,-2.7334,-2.6461,0.0,0.0,0.0,0.0,0.0,0.0,-2.8393,0.0,0.0,0.0,0.0,0.0,-2.9043,-2.8746,-2.8635,-2.9266,-2.9081,-2.8988,-2.9619,-2.9898,-3.0065,-3.0065,-3.0549,-3.0759,-3.0248,-3.0213,-3.0283,-3.0469,-3.0297,-3.0208,-3.0248,-3.0048,-2.9897,0.0,-2.9897,-2.9897,-2.9897,-3.0014,-3.0087,-3.011,-3.0176,-3.0211,-3.0211,-3.0414,-3.0414,-3.0211,-3.0433,-3.0433,-3.0211,-3.0211,-3.0211,-3.0211,-3.0211,-3.0338,-3.0529,-3.0307,-3.0338,-3.0612,-3.1273,-3.1134,-3.0752,-3.2102,-3.2148,-3.1531,0.0,0.0,0.0,0.0,0.0,0.0,0.0,0.0,0.0,0.0,0.0,0.0,0.0,0.0,0.0,-2.2826,-2.1369,-2.0772,-2.1649,-2.0821,-2.0305,-2.0305,-2.0306,-2.1074,-2.2754,-2.1959,-2.1927,0.0,0.0,0.0,0.0,0.0,0.0,0.0,0.0,0.0,0.0,0.0,0.0,0.0,-2.5579,0.0,0.0,-2.8245,-2.8363,0.0,0.0,0.0,-2.7706,-2.8412,-2.778,0.0,0.0,0.0,0.0,0.0,0.0,0.0,0.0,0.0,0.0,0.0,0.0,0.0,-2.843,-2.8505,-2.8783,-2.9304,-2.8988,-2.8802,-2.9304,-2.9099,-2.8858,-2.8858,-2.8969,-2.9138,-2.9423,-2.9472,-2.956,-2.9728,-2.9782,-2.9842,-2.9888,-2.9897,-2.9897,-2.9897,-2.9897,-2.9897,-2.9897,-3.0007,-3.008,-3.0095,-3.0135,-3.0171,-3.0211,-3.0529,-3.0529,-3.0211,-3.0567,-3.0548,-3.0211,-3.0211,-3.0211,-3.0211,-3.0211,-3.0211,-3.0211,-3.0211,-3.0211,-3.0249,-3.0758,-3.0643,-3.0371,-3.1787,-3.1976,-3.1556,0.0,0.0,0.0,0.0,0.0,0.0,0.0,0.0,0.0,0.0,0.0,0.0,0.0,0.0,0.0,0.0,-2.1585,-2.1043,-2.192,-2.1014,0.0,-2.0466,-2.0352,-2.1043,-2.2619,-2.1905,0.0,0.0,0.0,0.0,0.0,0.0,0.0,0.0,0.0,0.0,0.0,0.0,0.0,-2.4337,-2.6664,-2.8079,0.0,0.0,-2.9334,-2.8658,-2.942,-2.8605,-2.7409,-2.8793,-2.8802,0.0,0.0,0.0,0.0,0.0,-2.8709,0.0,0.0,0.0,0.0,0.0,-2.7575,0.0,-2.7297,-2.8189,-2.9184,-2.9359,-2.9322,-2.9248,-2.9248,-2.8616,-2.8096,-2.8096,-2.7427,-2.7408,-2.8913,-2.9162,-2.9297,-2.9514,-2.9605,-2.9712,-2.9872,-2.9907,-2.9897,-2.9897,-2.9897,-2.9897,-2.9897,-2.9964,-3.003,-3.0095,-3.0106,-3.0123,-3.0204,-3.0911,-3.0854,-3.007,-3.093,-3.0892,-3.0051,-3.0173,-3.0211,-3.0211,-3.0211,-3.0211,-3.0211,-3.0211,-3.0211,-3.0211,-3.0211,-3.0211,-3.03,-3.1178,-3.1484,-3.1599,0.0,0.0,0.0,0.0,0.0,0.0,0.0,0.0,0.0,0.0,0.0,0.0,0.0,0.0,0.0,0.0,-2.3016,-2.2784,-2.3654,-2.2281,0.0,-2.143,-2.0695,-2.079,-2.1814,-2.1679,0.0,0.0,0.0,0.0,0.0,0.0,0.0,0.0,0.0,0.0,0.0,0.0,0.0,-2.5036,-2.6861,-2.8056,-2.8802,-2.9547,-2.9695,-2.9538,-2.9551,-2.9297,-2.893,-2.8497,-2.8709,-2.9043,0.0,0.0,0.0,-2.8263,0.0,0.0,0.0,0.0,0.0,0.0,-2.8021,0.0,-2.8635,-2.8114,-2.7761,-2.9118,-2.8839,-2.8356,-2.8356,-2.8207,-2.8096,-2.8096,-2.7427,-2.6999,-2.7334,-2.739,-2.7708,-2.8475,-2.8632,-2.8984,-2.975,-2.9874,-2.9897,-2.9897,-2.9897,-2.9897,-2.9897,-2.9964,-3.003,-3.0095,-3.0106,-3.0123,-3.0204,-3.0357,-2.9994,-2.9166,-3.0032,-2.9994,-2.9185,-2.9879,-3.0211,-3.0211,-3.0211,-3.0211,-3.0211,-3.0211,-3.0211,-3.0211,-3.0211,-3.0211,-3.03,-3.1121,-3.1446,-3.1522,0.0,0.0,0.0,0.0,0.0,0.0,0.0,0.0,0.0,0.0,0.0,0.0,0.0,0.0,0.0,0.0,0.0,0.0,0.0,0.0,0.0,0.0,0.0,0.0,0.0,0.0,0.0,0.0,0.0,0.0,0.0,0.0,0.0,0.0,0.0,0.0,0.0,0.0,-2.4763,-2.5234,-2.6896,0.0,-2.8771,-2.9563,-2.9823,-2.979,-2.9645,-2.9549,-2.9301,-2.8413,-2.8393,0.0,-2.8746,-2.8449,-2.8189,0.0,-2.8746,-2.8746,0.0,0.0,0.0,-2.8133,0.0,0.0,0.0,-2.8152,-2.8393,-2.9229,-2.8709,-2.8096,-2.8096,-2.7761,-2.7501,-2.7501,-2.6832,-2.6442,-2.6832,-2.6907,-2.7242,-2.8185,-2.8361,-2.877,-2.9705,-2.9866,-2.9897,-2.9897,-2.9897,-2.9897,-2.9897,-2.994,-3.0007,-3.0095,-3.0091,-3.0128,-3.0204,-2.9765,-2.9338,-2.8891,-2.8943,-2.8936,-2.8911,-2.9357,-2.9784,-3.0211,-3.0211,-3.0211,-3.0211,-3.0211,-3.0211,-3.0211,-3.0211,-3.0211,-3.03,-3.1102,-3.1419,-3.1446,-2.0392,0.0,0.0,0.0,0.0,0.0,0.0,0.0,0.0,0.0,0.0,0.0,0.0,0.0,0.0,0.0,0.0,0.0,0.0,0.0,0.0,0.0,0.0,-2.3226,0.0,0.0,0.0,0.0,0.0,0.0,0.0,0.0,0.0,0.0,0.0,0.0,0.0,0.0,0.0,-2.5457,0.0,-2.8123,-2.8798,-2.9593,-2.9874,-2.9816,-2.9729,-2.9578,-2.9285,-2.8597,-2.8356,-2.8467,-2.9174,-2.8913,0.0,0.0,0.0,0.0,0.0,0.0,0.0,0.0,0.0,-2.7594,0.0,0.0,0.0,-2.937,0.0,0.0,0.0,0.0,0.0,0.0,0.0,0.0,0.0,-2.6665,0.0,-2.8119,-2.8053,-2.833,-2.9425,-2.9603,-2.9593,-2.9442,-2.9575,-2.9669,-2.9669,-2.9669,-2.9709,-2.9848,-2.9848,-2.9808,-2.9726,-2.9013,-2.8593,-2.8421,-2.7924,-2.8039,-2.8662,-2.8834,-2.9376,-3.0211,-3.0211,-3.0211,-3.0211,-3.0211,-3.0211,-3.0211,-3.0211,-3.0211,-3.028,-3.093,-3.1178,-3.1178,-2.0408,-2.0408,0.0,0.0,0.0,0.0,0.0,0.0,0.0,0.0,0.0,0.0,0.0,0.0,0.0,0.0,0.0,0.0,-2.5201,0.0,0.0,0.0,0.0,0.0,-2.3049,0.0,0.0,0.0,0.0,0.0,0.0,0.0,0.0,0.0,-2.4094,0.0,0.0,0.0,-2.6129,0.0,-2.7896,-2.8627,0.0,-2.9593,-2.9907,-2.9874,-2.9747,-2.9578,-2.9378,0.0,-2.9248,-2.9266,0.0,-2.9322,-2.9266,-2.9359,0.0,0.0,0.0,0.0,0.0,0.0,-2.6962,0.0,-2.8645,0.0,-2.8467,-2.9229,0.0,-2.9025,0.0,0.0,0.0,0.0,0.0,0.0,-2.5726,-2.5838,-2.6414,-2.7948,-2.6925,-2.6742,-2.8406,-2.8739,-2.8532,-2.7828,-2.8427,-2.8836,-2.8836,-2.8836,-2.8875,-2.895,-2.8957,-2.8632,-2.7988,-2.7892,-2.7453,-2.6689,-2.7377,-2.7759,-2.7848,-2.8574,-2.9376,-3.0211,-3.0211,-3.0211,-3.0211,-3.0211,-3.0211,-3.0211,-3.0211,-3.0211,-3.0211,-3.03,-3.0338,-3.0338,-2.0607,-2.0429,0.0,0.0,0.0,0.0,0.0,0.0,0.0,0.0,0.0,0.0,0.0,0.0,0.0,0.0,0.0,-2.57,0.0,0.0,0.0,0.0,0.0,0.0,0.0,0.0,0.0,0.0,-2.3895,0.0,0.0,0.0,0.0,0.0,-2.4842,0.0,-2.5967,0.0,-2.6813,0.0,0.0,0.0,0.0,-2.9764,-2.9849,-2.9773,-2.9719,-2.9578,-2.9396,0.0,-2.9396,0.0,0.0,0.0,0.0,-2.9396,0.0,0.0,0.0,0.0,0.0,0.0,0.0,0.0,-2.8523,0.0,-2.8951,0.0,0.0,0.0,0.0,0.0,0.0,0.0,-2.5726,0.0,0.0,0.0,-2.5782,0.0,0.0,0.0,-2.843,-2.8631,-2.837,-2.757,-2.8256,-2.8495,-2.8029,-2.8457,-2.8726,-2.8795,-2.8795,-2.8653,-2.8348,-2.7421,-2.6759,-2.6403,-2.6307,-2.6485,-2.6956,-2.73,-2.8172,-2.9452,-2.9452,-2.9726,-3.0211,-3.0211,-3.0211,-3.0211,-3.0211,-3.0211,-3.0211,-3.0211,-3.0211,-3.0211,-2.1426,0.0,0.0,0.0,0.0,0.0,0.0,0.0,0.0,0.0,0.0,0.0,-2.5441,-2.5698,0.0,0.0,-2.57,-2.5971,0.0,0.0,-2.6605,0.0,0.0,0.0,0.0,0.0,0.0,0.0,0.0,0.0,0.0,0.0,0.0,0.0,0.0,-2.575,-2.6518,0.0,-2.7452,-2.8722,-2.8949,-2.9385,-2.9897,-2.9897,-2.9825,-2.9701,-2.9701,-2.9578,-2.9396,-2.9396,-2.9396,0.0,-2.9396,0.0,-2.9396,0.0,0.0,0.0,-2.7953,0.0,0.0,0.0,0.0,0.0,0.0,0.0,0.0,0.0,0.0,0.0,0.0,0.0,0.0,0.0,0.0,-2.5578,0.0,-2.5429,0.0,0.0,0.0,0.0,0.0,-2.8002,-2.7877,-2.6851,-2.7748,-2.801,-2.7191,-2.7706,-2.8158,-2.843,-2.843,-2.8453,-2.8477,-2.7076,-2.6384,-2.6397,-2.5563,-2.5594,-2.6402,-2.6402,-2.7319,-2.8891,-2.8891,-2.9395,-3.0211,-3.0211,-3.0211,-3.0211,-3.0211,-3.0211,-3.0211,-3.0211,-3.0211,-3.0211,-2.3186,-2.3017,0.0,0.0,0.0,0.0,0.0,0.0,0.0,0.0,0.0,0.0,0.0,0.0,0.0,0.0,0.0,-2.6339,-2.5584,0.0,-2.6358,0.0,0.0,-2.6319,0.0,0.0,0.0,0.0,0.0,0.0,0.0,0.0,0.0,0.0,-2.5367,-2.575,-2.6556,-2.7256,-2.8004,-2.8779,-2.9556,-2.9878,-2.9897,0.0,-2.9825,-2.9701,-2.9701,0.0,0.0,-2.9396,-2.9396,0.0,0.0,0.0,0.0,0.0,0.0,0.0,0.0,0.0,0.0,-2.6267,0.0,0.0,0.0,0.0,-2.8095,0.0,0.0,0.0,0.0,0.0,0.0,0.0,0.0,0.0,0.0,0.0,0.0,0.0,0.0,0.0,0.0,-2.6325,-2.6657,-2.5009,-2.6533,-2.7172,-2.6292,-2.6273,-2.6667,-2.7519,-2.7538,-2.7571,-2.7645,-2.675,-2.6333,-2.6384,-2.5526,-2.5564,-2.6402,-2.6402,-2.7319,-2.8891,-2.8891,-2.9395,-3.0211,-3.0211,-3.0211,-3.0211,-3.0211,-3.0211,-3.0211,-3.0211,-3.0211,-3.0211,0.0,0.0,0.0,0.0,0.0,0.0,0.0,-2.4652,0.0,0.0,-2.7592,0.0,0.0,-2.8594,-2.8302,0.0,0.0,-2.7696,-2.7987,-2.7735,0.0,0.0,0.0,-2.6566,0.0,0.0,0.0,0.0,0.0,0.0,0.0,0.0,0.0,0.0,0.0,-2.6577,0.0,0.0,0.0,0.0,0.0,-2.9897,-2.9897,0.0,-2.9841,-2.9755,-2.9729,-2.9598,0.0,-2.9409,-2.9396,-2.9396,-2.9396,-2.9396,-2.9396,-2.9396,-2.909,-2.8576,0.0,0.0,-2.7449,-2.6607,0.0,0.0,0.0,0.0,0.0,0.0,0.0,0.0,0.0,0.0,0.0,0.0,0.0,0.0,0.0,0.0,-2.5708,-2.5726,0.0,0.0,0.0,0.0,-2.6027,-2.4888,-2.5939,-2.6273,-2.5458,-2.5913,-2.6603,-2.7471,-2.7509,-2.7774,-2.8324,-2.6968,-2.6312,-2.6318,-2.5507,-2.5246,-2.5545,-2.5594,-2.6523,-2.8115,-2.8115,-2.8885,-3.0123,-3.0123,-3.0123,-3.0123,-3.0128,-3.0128,-3.0123,-3.0123,-3.0123,-3.0123,-2.6228,0.0,0.0,0.0,0.0,0.0,0.0,0.0,0.0,0.0,-2.913,0.0,-3.0546,0.0,-2.9948,0.0,-2.9074,-2.876,-2.8393,-2.8436,0.0,-2.7159,-2.7136,0.0,0.0,0.0,0.0,0.0,0.0,-2.6087,0.0,0.0,0.0,0.0,0.0,-2.706,-2.7829,-2.86,-2.9332,0.0,0.0,-2.9897,0.0,0.0,-2.9857,-2.979,0.0,-2.9608,-2.9482,-2.9419,-2.9396,-2.9396,-2.9396,-2.9355,-2.9283,-2.9283,-2.9145,-2.8803,-2.7881,-2.7953,0.0,-2.6886,-2.7399,0.0,-2.787,0.0,-2.8385,0.0,0.0,0.0,0.0,0.0,0.0,0.0,0.0,0.0,0.0,-2.5132,0.0,-2.4555,-2.525,-2.5666,0.0,-2.5796,-2.5721,-2.4869,-2.5674,-2.5856,-2.5041,-2.5761,-2.6463,-2.702,-2.7342,-2.7885,-2.8684,-2.7084,-2.6429,-2.6702,-2.5602,-2.5082,-2.5107,-2.5443,-2.6352,-2.7681,-2.7961,-2.8869,-3.0106,-3.0106,-3.0106,-3.0106,-3.0102,-3.0091,-3.0106,-3.0106,-3.0106,-3.0098,-2.7057,-2.6286,0.0,0.0,-2.5738,0.0,0.0,0.0,-2.8248,0.0,-2.9714,-3.0798,-3.0854,-3.1507,-3.1275,-2.9631,-3.0211,-2.9592,-2.7054,-2.8393,0.0,0.0,-2.7178,-2.7275,-2.5724,0.0,0.0,0.0,0.0,0.0,0.0,0.0,0.0,0.0,-2.6721,0.0,-2.7993,-2.8712,-2.9416,-3.0087,-2.9945,-2.9897,-2.9897,-2.9897,-2.9866,-2.9799,-2.9729,-2.9608,-2.9511,-2.9429,-2.9407,-2.9396,-2.9396,-2.9251,-2.9089,-2.9096,-2.8934,-2.8573,-2.7616,-2.7355,-2.7293,-2.7048,-2.7027,0.0,0.0,0.0,-2.7552,0.0,0.0,0.0,0.0,0.0,0.0,0.0,0.0,0.0,0.0,0.0,-2.4537,-2.45,-2.5187,-2.5363,-2.4665,-2.5418,-2.5629,-2.4843,-2.5674,-2.5856,0.0,-2.5761,-2.6197,-2.6197,-2.6994,-2.7828,-2.8627,-2.7024,-2.661,-2.7424,-2.5772,-2.5031,-2.5114,-2.5932,-2.6788,-2.7645,-2.8444,-2.9281,-3.0095,-3.0095,-3.0087,-3.008,-3.008,-3.0072,-3.0053,-3.0087,-3.0095,-3.0046,-2.7065,-2.6736,-2.6593,0.0,-2.6108,-2.5894,0.0,0.0,0.0,0.0,-3.2012,-3.3669,-3.4316,-3.4002,-3.3305,-3.2217,-3.1734,0.0,0.0,0.0,0.0,-2.8354,-2.8126,-2.8107,-2.8315,-2.7054,-2.6803,-2.7677,0.0,0.0,-2.7035,0.0,0.0,0.0,0.0,0.0,-2.8725,-2.8912,-2.9369,-2.9945,-2.9905,-2.9897,-2.9897,0.0,-2.988,-2.9874,-2.9799,-2.971,-2.9636,-2.9511,-2.945,-2.9376,-2.9229,-2.9152,-2.9067,-2.8922,-2.8743,-2.8533,-2.8252,-2.8087,-2.7799,-2.7152,-2.7442,-2.7799,0.0,0.0,0.0,0.0,0.0,0.0,0.0,0.0,0.0,0.0,0.0,0.0,0.0,0.0,0.0,-2.4574,-2.4685,-2.4731,-2.4552,-2.4834,-2.4959,-2.473,-2.5645,-2.5856,-2.5041,0.0,-2.6197,-2.6197,-2.6425,-2.6937,-2.7809,-2.6747,-2.6318,-2.6515,-2.5492,-2.5018,-2.5044,-2.5907,-2.6788,-2.7645,-2.8444,-2.9266,-3.003,-3.003,-2.9932,-2.9796,-2.9753,-2.9635,-2.9551,-2.9899,-2.998,-2.9924,-2.7104,-2.6882,0.0,-2.7898,0.0,0.0,-2.8541,-2.9066,0.0,-3.1091,-3.2796,0.0,-3.4505,-3.4814,-3.4621,-3.375,-3.3228,0.0,-3.1197,0.0,0.0,-2.8784,-2.8262,-2.7894,-2.7638,-2.6687,0.0,-2.7426,0.0,0.0,-2.7828,0.0,0.0,0.0,0.0,-2.7374,-2.8543,-2.8823,-2.9122,-2.9404,-2.9764,-2.9897,0.0,-2.9897,-2.9897,-2.9907,-2.9857,-2.9808,-2.9729,-2.9569,-2.9412,-2.9296,-2.9134,-2.8987,-2.8822,-2.8706,-2.8518,-2.8367,-2.8367,-2.8291,-2.8088,-2.7638,-2.7857,-2.8088,-2.7638,-2.7874,-2.8237,0.0,-2.8277,-2.8304,0.0,0.0,0.0,0.0,0.0,0.0,0.0,0.0,0.0,0.0,-2.4704,-2.45,-2.45,-2.4613,-2.4715,-2.4727,-2.5652,-2.5856,0.0,0.0,-2.6425,-2.5705,-2.6387,-2.6823,-2.6918,-2.6444,-2.6197,-2.6197,-2.5384,-2.5182,-2.5542,-2.6436,-2.7279,-2.8126,-2.8943,-2.9535,-2.9948,-2.9855,-2.977,-2.9644,-2.9523,-2.9405,-2.9334,-2.9598,-2.9672,-2.9617,-2.7317,0.0,0.0,0.0,0.0,0.0,0.0,-3.0756,0.0,-3.2301,0.0,-3.3548,-3.3606,-3.4858,-3.5361,-3.4471,0.0,-3.3654,-3.1908,-3.1792,-3.0714,-2.8281,-2.8281,-2.7604,-2.6033,-2.5898,-2.6165,0.0,0.0,0.0,0.0,0.0,0.0,0.0,0.0,0.0,0.0,-2.8593,-2.8859,-2.893,-2.9631,-2.9897,-2.9897,-2.9897,-2.9897,-2.9897,-2.9897,-2.9857,-2.9773,-2.957,-2.9363,-2.9177,-2.9078,-2.8779,-2.8492,-2.8466,-2.834,-2.8196,-2.8196,-2.8196,-2.8196,-2.8196,-2.8196,-2.8196,-2.8196,-2.8196,-2.8196,-2.8196,-2.8196,-2.825,0.0,0.0,0.0,0.0,0.0,0.0,0.0,0.0,0.0,0.0,0.0,0.0,-2.4465,-2.4607,-2.4715,-2.4764,-2.5652,-2.5823,0.0,0.0,-2.6622,-2.5041,-2.6406,-2.6868,-2.6216,-2.6103,-2.6103,-2.6197,-2.5496,-2.5515,-2.6235,-2.7202,-2.8029,-2.8741,-2.9556,-2.9897,-2.988,-2.9681,-2.957,-2.9504,-2.9293,-2.9209,-2.9209,-2.9209,-2.9209,-2.9188,-2.8286,0.0,0.0,0.0,0.0,-3.3648,-3.5752,-3.4714,-3.4069,-3.5077,-3.5238,-3.5529,-3.6241,-3.5949,-3.5361,-3.4471,-3.4394,0.0,0.0,0.0,0.0,-2.9152,-2.9766,-2.9669,-2.8664,-2.7933,-2.7623,0.0,0.0,0.0,0.0,0.0,0.0,0.0,0.0,0.0,-2.7775,-2.8451,0.0,-2.9707,-2.984,-2.9897,-2.9897,-2.9897,-2.9897,-2.9897,-2.9897,-2.9857,-2.9773,-2.957,-2.9363,-2.9134,-2.8791,-2.8612,-2.8471,-2.8304,-2.8223,-2.8196,-2.8196,-2.8196,-2.8196,-2.8196,-2.8196,-2.8196,-2.8196,-2.8196,-2.8196,-2.8196,-2.8196,-2.8209,-2.825,0.0,0.0,0.0,0.0,0.0,0.0,0.0,0.0,0.0,0.0,-2.4248,0.0,-2.4479,-2.4613,-2.4629,-2.5559,-2.5729,0.0,0.0,-2.5989,0.0,-2.5288,0.0,0.0,0.0,-2.5534,-2.6197,-2.6065,-2.6065,-2.6254,-2.7801,-2.857,-2.8741,-2.9556,-2.9897,-2.988,-2.9681,-2.9405,-2.9075,-2.8827,-2.8718,-2.8718,-2.8718,-2.8718,-2.8755,-2.9603,0.0,0.0,0.0,0.0,0.0,0.0,-3.7163,-3.6447,-3.5966,-3.503,-3.4568,-3.4981,-3.5431,-3.5361,-3.4471,-3.4394,-3.3847,-3.2565,-3.2043,-3.1043,-2.936,-2.9689,-2.9302,-2.7982,-2.7991,-2.7991,-2.7991,0.0,0.0,0.0,0.0,0.0,0.0,0.0,-2.7393,0.0,0.0,0.0,-2.9309,-2.9726,-2.9897,-2.9897,-2.9897,-2.9897,-2.9897,-2.9897,-2.9857,-2.9754,-2.9531,-2.9304,-2.9071,-2.8663,-2.8458,-2.8331,-2.8223,-2.8196,-2.8196,-2.8196,-2.8196,-2.8196,-2.8196,-2.8196,-2.8196,-2.8196,-2.8196,-2.8196,-2.8196,-2.8196,-2.8196,-2.8196,-2.8277,0.0,0.0,0.0,0.0,0.0,0.0,-2.6271,0.0,0.0,0.0,0.0,0.0,0.0,0.0,0.0,0.0,0.0,0.0,-2.56,0.0,0.0,0.0,-2.5893,0.0,-2.6128,-2.6514,-2.6632,-2.6906,-2.7366,-2.8285,-2.893,-2.9347,-2.9726,-2.9897,-2.9872,-2.958,-2.9188,-2.8785,-2.865,-2.86,-2.86,-2.86,-2.86,-2.8612,0.0,-3.1055,0.0,0.0,-3.5324,-3.698,-3.8539,-3.8766,-3.8267,-3.6885,-3.4971,-3.3813,-3.3996,-3.5025,-3.5419,-3.4742,-3.451,-3.4021,-3.3165,-3.2275,-3.1043,-2.936,-2.9476,-2.8857,-2.7286,-2.7929,-2.8281,0.0,0.0,0.0,0.0,0.0,0.0,0.0,0.0,0.0,0.0,0.0,-2.8798,-2.9006,-2.965,-2.9897,-2.9897,-2.9897,-2.9897,-2.9897,-2.9897,-2.9857,-2.9764,-2.9492,-2.9251,-2.8993,-2.8576,-2.834,-2.8196,-2.8196,-2.8196,-2.8196,-2.8196,-2.8196,-2.8196,-2.8196,-2.8196,-2.8196,-2.8196,-2.8196,-2.8196,-2.8196,-2.8196,-2.8196,-2.8196,-2.8196,0.0,0.0,0.0,0.0,0.0,0.0,0.0,0.0,0.0,0.0,-2.3945,0.0,0.0,0.0,0.0,0.0,-2.4913,0.0,0.0,0.0,0.0,-2.6014,-2.62,0.0,-2.6896,-2.7053,-2.7223,-2.7678,-2.8416,-2.869,-2.9217,-2.9907,-2.9813,-2.9742,-2.9681,-2.9375,-2.8966,-2.86,-2.86,-2.86,-2.86,-2.86,-2.86,-2.86,0.0,0.0,0.0,0.0,0.0,-3.8578,-3.9532,-3.962,-3.9521,-3.9369,-3.7129,-3.5836,-3.6552,-3.607,-3.5665,-3.5593,-3.4858,-3.4021,-3.3165,-3.2275,-3.1043,-2.936,-3.0056,-3.0037,-2.907,-2.9152,-2.919,0.0,0.0,-2.7677,0.0,0.0,0.0,0.0,0.0,0.0,0.0,-2.8745,-2.912,-2.9802,-2.9878,-2.9897,-2.9897,-2.9897,-2.9897,-2.9897,-2.9897,-2.9857,-2.9764,-2.9492,-2.9198,-2.886,-2.8448,-2.8259,-2.8196,-2.8196,-2.8196,-2.8196,-2.8196,-2.8196,-2.8196,-2.8196,-2.8196,-2.8196,-2.8196,-2.8196,-2.8196,-2.8196,-2.8196,-2.8196,-2.8196,-2.8196,-2.8196,0.0,0.0,0.0,0.0,0.0,-2.6749,-2.6177,0.0,0.0,-2.3797,-2.3896,0.0,0.0,-2.4367,0.0,0.0,0.0,0.0,-2.6055,-2.6465,-2.7158,-2.8136,-2.7251,-2.7164,-2.7889,-2.7909,-2.81,-2.8426,-2.8977,-2.9486,-2.988,-2.9504,-2.9251,-2.9075,-2.903,-2.8863,-2.86,-2.86,-2.86,-2.86,-2.86,-2.86,-2.86,0.0,0.0,0.0,0.0,0.0,0.0,0.0,-4.0084,-3.9509,-3.8988,-3.7519,-3.6445,-3.6237,-3.5915,-3.5278,-3.4229,-3.3828,-3.3035,-3.1695,-3.1275,-3.0559,-2.9345,-3.0133,-3.0192,-2.9326,-2.9805,-3.0075,0.0,0.0,0.0,0.0,0.0,0.0,0.0,0.0,-2.8963,-2.9756,-2.9525,-2.9612,-2.9897,-2.9897,-2.9897,-2.9897,-2.9897,-2.9897,-2.9897,-2.9897,-2.9823,-2.971,-2.9472,-2.9188,-2.8849,-2.8525,-2.8313,-2.8196,-2.8196,-2.8196,-2.8196,-2.8196,-2.8196,-2.8196,-2.8196,-2.8196,-2.8196,-2.8196,-2.8196,-2.8196,-2.8196,-2.8196,-2.8196,-2.8196,-2.8196,-2.8196,-2.8196,0.0,0.0,0.0,0.0,0.0,-2.6007,0.0,-2.4449,-2.3654,-2.3649,0.0,0.0,0.0,0.0,0.0,0.0,0.0,-2.6358,0.0,-2.6387,-2.7787,-2.7365,-2.7547,-2.8363,-2.8522,-2.8653,-2.8775,-2.9124,-2.9395,-2.9532,-2.9375,-2.9195,-2.9003,-2.9003,-2.8839,-2.86,-2.86,-2.86,-2.86,-2.86,-2.86,-2.86,-3.6242,0.0,-3.7456,0.0,-3.9208,-3.9617,-4.0843,-4.0459,-3.9624,-3.8509,-3.7773,-3.6938,-3.5819,-3.5692,-3.5104,-3.361,-3.3242,-3.2488,-3.1043,-3.0733,-3.0327,-2.9708,-3.0269,0.0,-2.9689,-3.0288,-3.0598,-3.0598,-3.1178,0.0,0.0,0.0,0.0,0.0,-2.9469,-2.9711,-3.0279,-3.0007,-2.9897,-2.9897,-2.9897,-2.9897,-2.9897,-2.9897,-2.9897,-2.9888,-2.9883,-2.9799,-2.9664,-2.9482,-2.9188,-2.8832,-2.8576,-2.8353,-2.8196,-2.8196,-2.8196,-2.8196,-2.8196,-2.8196,-2.8196,-2.8196,-2.8196,-2.8196,-2.8196,-2.8196,-2.8196,-2.8196,-2.8196,-2.8196,-2.8196,-2.8196,-2.8196,-2.8196,0.0,0.0,0.0,-2.7696,0.0,-2.6247,-2.5693,-2.498,-2.3951,-2.3844,0.0,0.0,0.0,0.0,0.0,0.0,0.0,0.0,0.0,0.0,-2.7864,-2.7786,-2.8038,-2.86,-2.8779,-2.8922,-2.9003,-2.9217,-2.922,-2.909,-2.9166,-2.9086,-2.8875,-2.8875,-2.8767,-2.86,-2.86,-2.86,-2.86,-2.86,-2.86,-2.86,-3.9359,-3.9543,-3.9839,-4.0713,-4.0869,-4.0888,-4.0907,-4.0844,-4.0192,-3.8519,-3.8233,-3.756,-3.5883,-3.5709,-3.5342,-3.4452,-3.3596,-3.2739,-3.1831,-3.1043,-3.0598,0.0,0.0,-3.0598,-3.0578,-3.0598,-3.0598,-3.0598,0.0,0.0,-2.9326,0.0,-2.9766,-3.0574,-3.0379,-3.0292,-3.0279,-3.0007,-2.9897,-2.9897,-2.9897,-2.9897,-2.9897,-2.9897,-2.9897,-2.988,-2.9815,-2.9765,-2.9673,-2.9531,-2.9195,-2.8779,-2.8556,-2.8353,-2.8196,-2.8196,-2.8196,-2.8196,-2.8196,-2.8196,-2.8196,-2.8196,-2.8196,-2.8196,-2.8196,-2.8196,-2.8196,-2.8196,-2.8196,-2.8196,-2.8196,-2.8196,-2.8196,-2.8196,0.0,0.0,0.0,-2.8196,0.0,-2.7067,-2.6991,-2.6371,-2.4837,-2.4694,0.0,0.0,0.0,0.0,0.0,0.0,0.0,-2.6811,-2.7939,0.0,-2.8973,-2.8718,-2.86,-2.86,-2.86,-2.8731,-2.9003,-2.9217,-2.9045,-2.8625,-2.8887,-2.8851,-2.86,-2.86,-2.86,-2.86,-2.86,-2.86,-2.86,-2.86,-2.86,-2.86,-3.965,-4.0087,-4.0577,-4.0849,-4.0907,-4.0907,-4.0907,-4.0844,-4.04,-3.9339,-3.8606,-3.7767,-3.6632,-3.6033,-3.5104,0.0,-3.3262,-3.2507,0.0,-3.0733,-3.0598,-3.0598,-3.0598,-3.0598,-3.0598,-3.0598,-3.0598,-3.0598,0.0,0.0,0.0,-3.1004,-3.082,-3.0449,-3.0349,-3.0246,-3.0152,-2.9988,-2.9897,-2.9897,-2.9897,-2.9897,-2.9897,-2.9897,-2.9897,-2.988,-2.9815,-2.9765,-2.9673,-2.955,-2.9185,-2.8803,-2.8713,-2.8466,-2.8196,-2.8196,-2.8196,-2.8196,-2.8196,-2.8196,-2.8196,-2.8196,-2.8196,-2.8196,-2.8196,-2.8196,-2.8196,-2.8196,-2.8196,-2.8196,-2.8196,-2.8196,-2.8196,-2.8196,-2.8196,0.0,-2.8196,0.0,-2.7892,-2.7103,-2.7009,-2.6586,-2.5551,-2.5461,0.0,0.0,0.0,0.0,0.0,0.0,0.0,0.0,-2.781,0.0,-2.8718,-2.865,-2.86,-2.86,-2.86,-2.865,-2.8737,-2.8803,-2.8743,-2.86,-2.87,-2.8687,-2.86,-2.86,-2.86,-2.86,-2.86,-2.86,-2.86,-2.86,-2.86,-2.86,-4.0546,-4.0942,-4.1313,-4.1313,-4.1313,-4.1216,-4.0906,-4.084,-4.0386,-3.9229,-3.8551,-3.7748,-3.6574,-3.5994,0.0,-3.3712,-3.3281,-3.2527,-3.1139,-3.0772,-3.0598,-3.0598,-3.0598,-3.0598,-3.0598,-3.0598,0.0,-3.0598,-3.1101,-3.1347,-3.1347,-3.1347,-3.1018,-3.0392,-3.0336,-3.0233,-3.0094,-2.9953,-2.9897,-2.9897,-2.9897,-2.9897,-2.9897,-2.9897,-2.9897,-2.9899,-2.9799,-2.9738,-2.9683,-2.953,-2.9171,-2.8797,-2.8797,-2.8518,-2.8196,-2.8196,-2.8196,-2.8196,-2.8196,-2.8196,-2.8196,-2.8196,-2.8196,-2.8196,-2.8196,-2.8196,-2.8196,-2.8196,-2.8196,-2.8196,-2.8196,-2.8196,-2.8196,-2.8196,-2.8196,-2.8196,-2.8196,0.0,-2.8017,0.0,0.0,0.0,0.0,-2.6247,-2.6139,0.0,0.0,0.0,0.0,0.0,0.0,-2.7965,-2.7835,-2.8,-2.8562,-2.8587,-2.86,-2.86,-2.86,-2.86,-2.86,-2.86,-2.86,-2.86,-2.86,-2.86,-2.86,-2.86,-2.86,-2.86,-2.86,-2.86,-2.86,-2.86,-2.86,-2.86,-4.1932,-4.2086,-4.2086,0.0,-4.2086,-4.1816,-4.1009,-4.0874,-4.0268,-3.8599,-3.8328,-3.7696,-3.6129,-3.5858,-3.5452,-3.4645,0.0,0.0,-3.1947,-3.1139,-3.0675,-3.0675,-3.0636,-3.0598,-3.0598,-3.0598,-3.0598,-3.0598,-3.0598,-3.0598,-3.0598,-3.0598,-3.0535,-3.0381,-3.033,-3.0226,-3.0087,-2.9945,-2.9897,-2.9897,-2.9897,-2.9897,-2.9897,-2.9897,-2.9897,-2.9872,-2.9756,-2.9701,-2.9673,-2.9478,-2.9145,-2.8827,-2.8797,-2.8531,-2.8209,-2.8196,-2.8196,-2.8196,-2.8196,-2.8196,-2.8196,-2.8196,-2.8196,-2.8196,-2.8196,-2.8196,-2.8196,-2.8196,-2.8196,-2.8196,-2.8196,-2.8196,-2.8196,-2.8196,-2.8196,-2.8196,-2.8196,-2.8196,-2.8196,0.0,0.0,0.0,-2.7157,-2.7067,-2.6764,0.0,0.0,0.0,0.0,0.0,-2.796,-2.7212,-2.8036,-2.8479,-2.8492,-2.8562,-2.8587,-2.86,-2.86,-2.86,-2.86,-2.86,-2.86,-2.86,-2.86,-2.86,-2.86,-2.86,-2.86,-2.86,-2.86,-2.86,-2.86,-2.86,-2.86,-2.86,0.0,0.0,-4.2995,-4.2995,-4.2995,-4.2705,-4.1854,-4.1719,-4.1351,-4.0326,-3.9617,-3.9036,-3.8649,-3.7406,-3.6535,-3.6323,-3.4949,-3.3712,-3.2856,-3.1985,-3.1521,-3.1521,-3.0926,-3.0598,-3.0598,-3.0598,-3.0598,-3.0598,-3.0598,-3.0598,-3.0598,-3.0598,-3.0504,-3.0324,-3.0299,-3.0166,-2.9956,-2.9905,-2.9897,-2.9897,-2.9897,-2.9897,-2.9897,-2.9897,-2.9897,-2.9872,-2.9756,-2.9701,-2.9673,-2.9478,-2.924,-2.901,-2.8851,-2.8632,-2.8406,-2.825,-2.8196,-2.8196,-2.8196,-2.8196,-2.8196,-2.8196,-2.8196,-2.8196,-2.8196,-2.8196,-2.8196,-2.8196,-2.8196,-2.8196,-2.8196,-2.8196,-2.8196,-2.8196,-2.8196,-2.8196,-2.8196,-2.8196,-2.8196,0.0,-2.8196,-2.8124,-2.7928,-2.791,-2.7839,0.0,0.0,-2.791,-2.791,-2.8102,-2.8161,-2.8031,-2.8232,-2.8406,-2.8492,-2.8523,-2.8549,-2.86,-2.86,-2.86,-2.86,-2.86,-2.86,-2.86,-2.86,-2.86,-2.86,-2.86,-2.86,-2.86,-2.86,-2.86,-2.86,-2.86,-2.86,-2.86,-4.3227,-4.3614,-4.3885,-4.3885,-4.3556,-4.3015,-4.2125,-4.168,-4.1145,-4.0313,-3.9791,-3.9346,-3.8953,-3.8063,-3.7328,-3.6942,-3.5375,-3.4021,-3.3165,-3.2275,-3.1637,-3.1275,-3.083,-3.0598,-3.0598,-3.0598,-3.0598,-3.0598,-3.0598,-3.0598,-3.0598,-3.0598,-3.0514,-3.0361,-3.0361,-3.0202,-2.9984,-2.9984,-2.9972,-2.9897,-2.9897,-2.9897,-2.9897,-2.9897,-2.9891,-2.9841,-2.9738,-2.9655,-2.9598,-2.9458,-2.9262,-2.9055,-2.8863,-2.8669,-2.8471,-2.8264,-2.8196,-2.8285,-2.8641,-2.8481,-2.8285,-2.8659,-2.8748,-2.8748,-2.8748,-2.8463,-2.8196,-2.8196,-2.8196,-2.8196,-2.8196,-2.8196,-2.8196,-2.8196,-2.8196,-2.8196,-2.8196,-2.8196,-2.8196,-2.8196,-2.8196,-2.8196,-2.8196,-2.8196,-2.8196,-2.8196,-2.8196,0.0,-2.8731,-2.8392,-2.8209,-2.8246,-2.8286,-2.8322,-2.8419,-2.8466,-2.8518,-2.86,-2.86,-2.86,-2.86,-2.86,-2.86,-2.86,-2.86,-2.86,-2.86,-2.86,-2.86,-2.86,-2.86,-2.86,-2.86,-2.86,-2.86,-2.86,-4.3324,-4.4091,-4.4555,-4.442,-4.3904,-4.3169,-4.2144,-4.1409,-4.0681,-3.981,-3.9694,-3.9404,-3.8663,-3.8489,-3.8044,-3.7174,-3.5665,-3.4408,-3.3552,-3.2681,-3.1835,-3.1004,-3.0849,-3.0714,-3.0598,-3.0598,-3.0598,-3.0598,-3.0598,-3.0598,-3.0598,-3.0598,-3.0535,-3.0398,-3.0381,-3.0273,-3.0101,-3.0087,-2.9992,-2.9897,-2.9897,-2.9897,-2.9897,-2.9897,-2.9857,-2.979,-2.9719,-2.9608,-2.9482,-2.9419,-2.9283,-2.91,-2.8875,-2.8676,-2.8492,-2.8277,-2.8196,-2.8356,-2.9034,-2.8802,-2.857,-2.9369,-2.9583,-2.9547,-2.944,-2.8873,-2.8356,-2.8231,-2.8196,-2.8196,-2.8196,-2.8196,-2.8196,-2.8196,-2.8196,-2.8196,-2.8196,0.0,-2.8196,-2.8196,-2.8196,-2.8196,-2.8196,-2.8196,-2.8196,-2.8196,-2.832,-2.8677,-2.9369,-2.8748,-2.8427,-2.8534,-2.8389,-2.8286,-2.83,-2.8427,-2.8536,-2.8587,-2.8587,-2.8587,-2.8587,-2.8587,-2.8587,-2.8587,-2.8574,-2.8574,-2.8587,-2.8587,-2.8587,-2.8587,-2.8587,-2.8587,-2.8587,-2.8574,-2.8562,-2.8562,-4.4226,-4.4516,-4.4362,-4.3634,-4.4001,-4.3866,-4.2241,-4.1893,-4.1525,-4.07,-4.0603,-4.0545,-4.041,-3.9733,-3.8953,-3.8077,-3.7096,-3.6168,-3.5356,-3.4485,-3.3615,-3.2759,-3.2005,-3.1294,-3.0617,-3.0598,-3.0598,-3.0598,-3.0598,-3.0598,-3.0598,-3.0598,-3.0535,-3.0392,-3.0329,-3.0246,-3.0094,-2.9969,-2.9913,-2.9897,-2.9897,-2.9897,-2.9897,-2.9897,-2.9857,-2.979,-2.9719,-2.9608,-2.9482,-2.9419,-2.9386,-2.9283,-2.8922,-2.8791,-2.8682,-2.8318,-2.8196,-2.8231,-2.8356,-2.8784,-2.9387,-3.0139,-3.0332,-3.0172,-2.9547,-2.9298,-2.9016,-2.8338,-2.8196,-2.8196,-2.8196,-2.8196,-2.8196,-2.8196,-2.8196,-2.8196,-2.8196,0.0,-2.8196,-2.8196,-2.8196,-2.8196,-2.8196,-2.8196,-2.8196,-2.8196,-2.882,-2.928,-2.9387,-2.928,-2.9512,-3.0122,-2.8887,-2.825,-2.83,-2.8427,-2.8523,-2.8523,-2.8574,-2.8574,-2.8523,-2.8523,-2.8523,-2.8505,-2.8458,-2.8458,-2.8523,-2.8523,-2.8523,-2.8523,-2.8523,-2.8523,-2.8523,-2.8445,-2.8419,-2.8419,-4.3208,-4.3962,-4.4323,-4.346,-4.3247,-4.2937,-4.2125,-4.1622,-4.1222,-4.0855,-4.0797,-4.0797,-4.0797,-4.0448,-3.9649,-3.8309,-3.7825,-3.7058,-3.5781,-3.4877,-3.3789,-3.2469,-3.2005,-3.1424,-3.0617,-3.0598,-3.0598,-3.0598,-3.0598,-3.0598,-3.0598,-3.0598,-3.0535,-3.0392,-3.0371,-3.0267,-3.0101,-3.0023,-2.998,-2.9897,-2.9897,-2.9897,-2.9897,-2.9897,-2.9832,-2.9747,-2.9701,-2.9588,-2.945,-2.9417,-2.9396,-2.9326,-2.8934,-2.8797,-2.8731,-2.8331,-2.8517,-2.8748,-2.832,-2.939,-3.0529,-3.0029,-3.0225,-3.0315,-2.9583,-2.9052,-2.8641,-2.8285,-2.8196,-2.8196,-2.8196,-2.8196,-2.8196,-2.8196,-2.8196,0.0,-2.8196,-2.8196,-2.8196,-2.8196,-2.8196,-2.8196,-2.8196,-2.8196,-2.8196,-2.8196,-2.8945,-2.9583,-2.9976,-2.9993,-3.035,-3.1118,-2.9654,-2.9094,-2.9593,-2.9228,-2.9265,-2.9724,-2.9318,-2.912,-2.9076,-2.8643,-2.8445,-2.8445,-2.8406,-2.8406,-2.8445,-2.8445,-2.8445,-2.8445,-2.8445,-2.8445,-2.8445,-2.8406,-2.8411,-2.8411,-4.2357,-4.3227,-4.373,-4.2879,-4.2318,-4.1932,-4.1757,-4.1203,-4.0797,-4.0797,-4.0797,-4.0797,-4.0797,-4.0623,-3.9965,-3.8624,-3.8141,-3.7348,-3.6052,-3.5187,-3.3924,-3.2179,-3.1734,-3.1308,-3.0888,-3.0694,-3.0598,-3.0598,-3.0598,-3.0598,-3.0598,-3.0579,-3.0611,-3.07,-3.0654,-3.0548,-3.0406,-3.0377,-3.0174,-2.9897,-2.9897,-2.9897,-2.9897,-2.9897,-2.9825,-2.9701,-2.9701,-2.9578,-2.9396,-2.9396,-2.9396,-2.9326,-2.8934,-2.8797,-2.8731,-2.8331,-2.8641,-2.903,-2.8588,-2.9922,-3.1135,-2.9958,-3.0225,-3.0547,-2.9619,-2.8909,-2.8427,-2.8249,-2.8196,-2.8196,-2.8196,-2.8196,-2.8196,-2.8196,0.0,-2.8196,-2.8196,-2.8196,-2.8196,-2.8196,-2.8196,-2.8196,-2.8196,-2.8196,-2.8196,-2.8196,-2.9087,-2.9904,-3.046,-3.0689,-3.1064,-3.1671,-3.0368,-2.9883,-3.0388,-2.9987,-3.0119,-3.0772,-2.9992,-2.9583,-2.9551,-2.8744,-2.8384,-2.8384,-2.8371,-2.8353,-2.8384,-2.8384,-2.8384,-2.8384,-2.8384,-2.8384,-2.8367,-2.8371,-2.8358,-2.8358,-4.2918,-4.2667,-4.1932,-4.1126,-4.1545,-4.1757,-4.1009,-4.0835,-4.0797,-4.0797,-4.0797,-4.0797,-4.0797,-4.0081,-3.9539,-3.9423,-3.7928,-3.6942,-3.6826,-3.6052,-3.4833,-3.3088,-3.1526,-3.1004,-3.1695,-3.0984,-3.0598,-3.0598,-3.0598,-3.0598,-3.0598,-3.046,-3.0841,-3.1607,-3.14,-3.1318,-3.1295,-3.1176,-3.0644,-2.9897,-2.9897,-2.9897,-2.9897,-2.9897,-2.9825,-2.9701,-2.9701,-2.9578,-2.9396,-2.9396,-2.9396,-2.9326,-2.8934,-2.8797,-2.8731,-2.8331,-2.8249,-2.8445,-2.9123,-2.994,-3.0564,-3.0443,-3.1028,-3.1225,-2.9744,-2.9351,-2.9087,-2.8356,-2.8196,-2.8196,-2.8196,-2.8196,-2.8196,-2.8196,0.0,0.0,-2.8196,-2.8196,-2.8196,-2.8196,-2.8196,-2.8196,-2.8196,-2.8196,-2.8196,-2.8196,-2.9569,-3.044,-3.0496,-3.1207,-3.1635,-3.1689,-3.0868,-3.0118,-2.9494,-3.0245,-3.0632,-3.0685,-2.995,-2.9569,-2.9478,-2.8672,-2.8313,-2.83,-2.825,-2.825,-2.8313,-2.8313,-2.8313,-2.8313,-2.8313,-2.8313,-2.83,-2.8237,-2.8209,-2.8209,-4.2473,-4.2222,-4.1757,-4.0951,-4.1048,-4.1145,-4.0855,-4.0797,-4.0797,-4.0797,-4.0797,-4.0797,-4.0797,-4.0023,-3.9288,-3.874,-3.7599,-3.6903,-3.6903,-3.6149,-3.5162,-3.3963,-3.2783,-3.2295,-3.2604,-3.1773,-3.1347,-3.1347,-3.0849,-3.0598,-3.0617,-3.1066,-3.1113,-3.0861,-3.1262,-3.139,-3.1279,-3.1229,-3.1299,-3.1412,-3.0901,-3.0711,-3.0627,-3.0065,-2.9782,-2.9701,-2.9617,-2.951,-2.9396,-2.9396,-2.9396,-2.9326,-2.8934,-2.8797,-2.8731,-2.8331,-2.8196,-2.8267,-2.857,-2.9212,-2.9833,-2.9833,-3.0047,-3.0118,-2.953,-2.8998,-2.857,-2.8267,-2.8606,-2.8784,-2.8285,-2.8606,-2.8927,-2.8927,0.0,-2.9087,-2.9551,-2.9622,-2.9462,-2.9012,-2.8927,-2.8748,-2.8249,-2.8641,-2.8731,-2.8249,-3.0101,-3.1028,-3.0529,-3.174,-3.2222,-3.1706,-3.1885,-3.1849,-3.1579,-3.1398,-3.1324,-3.1306,-3.0516,-2.9923,-2.9412,-2.8608,-2.8237,-2.8237,-2.8209,-2.8209,-2.8237,-2.8237,-2.8237,-2.8237,-2.8237,-2.8237,-2.8237,-2.8209,-2.8196,-2.8196,-4.2415,-4.197,-4.1448,-4.0893,-4.0797,-4.0893,-4.1145,-4.0971,-4.0893,-4.1145,-4.0971,-4.0797,-4.0797,-4.0023,-3.9365,-3.905,-3.7967,-3.7425,-3.7696,-3.669,-3.5704,-3.4858,-3.3706,-3.3223,-3.3494,-3.2643,-3.2063,-3.1792,-3.1231,-3.081,-3.054,-3.1047,-3.118,-3.1037,-3.1563,-3.1699,-3.1583,-3.1583,-3.1753,-3.1943,-3.1109,-3.0922,-3.1047,-3.0127,-2.9728,-2.9636,-2.9522,-2.9451,-2.9396,-2.9396,-2.9396,-2.9326,-2.8934,-2.87,-2.8556,-2.8291,-2.8017,-2.7821,-2.7821,-2.841,-2.9016,-2.9016,-2.9387,-2.969,-2.9458,-2.9141,-2.8927,-2.8927,-2.9355,-2.9569,-2.9016,-2.9373,-2.9762,-2.9762,-2.9762,-2.9922,-3.0425,-3.0496,-3.0315,-2.9815,-2.9547,-2.928,-2.8945,-2.9212,-2.928,-2.8945,-3.0654,-3.1564,-3.126,-3.2311,-3.265,-3.2097,-3.2382,-3.2525,-3.2525,-3.2239,-3.2079,-3.2061,-3.1011,-3.0243,-2.9708,-2.8677,-2.8196,-2.8196,-2.8196,-2.8196,-2.8196,-2.8196,-2.8196,-2.8196,-2.8196,-2.8196,-2.8196,-2.8196,-2.814,-2.8053,-4.2957,-4.1951,-4.0797,-4.0797,-4.0816,-4.1087,-4.1874,-4.1332,-4.1106,-4.1912,-4.1313,-4.0816,-4.0816,-4.0023,-3.9849,-4.0719,-3.9204,-3.8566,-3.9423,-3.787,-3.6555,-3.5742,-3.4054,-3.3513,-3.4394,-3.3552,-3.2681,-3.1811,-3.1733,-3.1264,-3.0411,-3.0188,-3.0997,-3.2564,-3.2439,-3.2387,-3.2379,-3.2379,-3.1924,-3.1128,-3.0257,-3.0358,-3.0902,-3.011,-2.9664,-2.9502,-2.9511,-2.9451,-2.9396,-2.9407,-2.9407,-2.9326,-2.8934,-2.8518,-2.8196,-2.8213,-2.7638,-2.6996,-2.7027,-2.762,-2.8213,-2.8196,-2.9355,-3.0315,-2.9583,-2.9976,-3.0496,-3.0496,-3.0511,-3.0511,-3.0496,-3.0511,-3.0511,-3.0511,-3.0511,-3.0511,-3.0514,-3.0514,-3.0514,-3.0511,-2.9869,-2.9708,-3.0425,-2.9851,-2.9726,-3.0443,-3.1242,-3.2045,-3.2846,-3.2882,-3.2882,-3.2882,-3.2114,-3.1689,-3.1689,-3.2489,-3.2882,-3.2846,-3.126,-3.0478,-3.0425,-2.8891,-2.8196,-2.8196,-2.8196,-2.8196,-2.8196,-2.8196,-2.8196,-2.8213,-2.8213,-2.8182,-2.8182,-2.8182,-2.7979,-2.7745,-4.2299,-4.1525,-4.0797,-4.0797,-4.1274,-4.1719,-4.1951,-4.2318,-4.2647,-4.2879,-4.2164,-4.1641,-4.1641,-4.0352,-3.9597,-3.9868,-3.8856,-3.8309,-3.8566,-3.8102,-3.7415,-3.6504,-3.5399,-3.4946,-3.5298,-3.4361,-3.3741,-3.3471,-3.2297,-3.1518,-3.1168,-3.1116,-3.1009,-3.0864,-3.1443,-3.1646,-3.1564,-3.1564,-3.1753,-3.1962,-3.104,-3.0797,-3.0912,-2.9945,-2.9551,-2.9567,-3.0083,-2.9893,-2.9489,-3.0047,-2.9861,-2.9326,-2.8934,-2.8619,-2.8488,-2.8929,-2.8463,-2.8084,-2.9155,-2.9262,-2.8923,-2.8338,-2.9355,-3.044,-3.0225,-3.0336,-3.0496,-3.0496,-3.0957,-3.1171,-3.06,-3.0957,-3.1332,-3.1332,-3.1332,-3.1528,-3.2114,-3.2186,-3.1972,-3.1403,-3.1153,-3.0886,-3.0529,-3.0814,-3.0868,-3.0529,-3.1242,-3.1796,-3.2061,-3.2061,-3.1796,-3.1225,-3.0975,-3.0868,-3.0868,-3.1653,-3.151,-3.044,-3.0475,-2.9925,-2.8873,-2.841,-2.8196,-2.8196,-2.8196,-2.8196,-2.8196,-2.8196,-2.8053,-2.785,-2.785,-2.7719,-2.7491,-2.7491,-2.743,-2.7369,-4.2376,-4.1835,-4.1371,-4.1719,-4.2183,-4.2628,-4.2976,-4.3189,-4.3421,-4.3769,-4.3053,-4.2376,-4.2048,-4.11,-4.0352,-4.0042,-3.9533,-3.9224,-3.9224,-3.8858,-3.8382,-3.7802,-3.6555,-3.5748,-3.5554,-3.4943,-3.4467,-3.4115,-3.3082,-3.2356,-3.1934,-3.1553,-3.1253,-3.1034,-3.1564,-3.1572,-3.1223,-3.1545,-3.1962,-3.2303,-3.1032,-3.0884,-3.129,-2.9991,-2.9678,-2.9944,-3.0068,-3.0214,-3.0326,-3.0177,-2.9744,-2.924,-2.901,-2.8731,-2.8629,-2.9322,-2.8889,-2.8481,-2.9729,-2.9958,-2.9654,-2.8873,-2.9833,-3.0975,-3.0975,-3.1225,-3.1457,-3.1457,-3.1831,-3.2028,-3.1528,-3.1849,-3.2186,-3.2186,-3.2186,-3.2347,-3.2829,-3.29,-3.2721,-3.2239,-3.1885,-3.1617,-3.1474,-3.1599,-3.1617,-3.1457,-3.19,-3.2186,-3.2186,-3.1867,-3.1474,-3.0993,-3.0386,-3.0065,-3.0065,-3.0547,-3.0475,-2.9851,-2.9993,-2.9569,-2.8659,-2.8356,-2.8196,-2.8196,-2.8196,-2.8196,-2.8196,-2.8196,-2.8011,-2.7701,-2.7701,-2.7507,-2.7197,-2.7197,-2.7117,-2.6987,-4.2995,-4.2667,-4.2376,-4.3169,-4.3363,-4.3692,-4.4478,-4.4001,-4.3808,-4.4594,-4.3943,-4.3111,-4.2318,-4.2164,-4.1816,-4.1087,-4.0951,-4.0874,-4.0797,-3.9862,-3.929,-3.9283,-3.7494,-3.6197,-3.55,-3.5343,-3.4883,-3.4098,-3.3979,-3.3495,-3.2689,-3.1737,-3.1696,-3.2397,-3.2397,-3.1981,-3.1355,-3.2094,-3.2397,-3.2247,-3.057,-3.0725,-3.1785,-3.013,-2.9907,-3.04,-2.9731,-3.0456,-3.1478,-2.9991,-2.9346,-2.9112,-2.9119,-2.8858,-2.8724,-2.9552,-2.9103,-2.8544,-2.9458,-3.0154,-3.0475,-2.9869,-3.0761,-3.1778,-3.1706,-3.2329,-3.29,-3.29,-3.29,-3.29,-3.29,-3.29,-3.29,-3.29,-3.29,-3.29,-3.29,-3.29,-3.29,-3.29,-3.2257,-3.2097,-3.2829,-3.2239,-3.2114,-3.2846,-3.29,-3.2864,-3.2793,-3.2114,-3.1671,-3.1599,-3.0172,-2.9405,-2.9405,-2.9333,-2.9637,-3.0282,-2.969,-2.9369,-2.928,-2.8534,-2.8182,-2.8154,-2.8154,-2.8154,-2.8154,-2.8154,-2.7915,-2.7566,-2.7622,-2.7394,-2.7031,-2.71,-2.6889,-2.6488,-4.3227,-4.315,-4.3073,-4.3266,-4.3866,-4.4381,-4.4574,-4.4968,-4.5343,-4.551,-4.4833,-4.4246,-4.4059,-4.344,-4.2957,-4.2763,-4.2125,-4.1467,-4.0835,-3.9862,-3.9253,-3.9149,-3.7978,-3.7214,-3.6939,-3.5755,-3.5043,-3.4852,-3.4225,-3.3758,-3.3437,-3.2548,-3.2227,-3.2397,-3.2397,-3.2303,-3.2151,-3.2322,-3.2372,-3.2222,-3.1111,-3.0809,-3.0886,-2.9832,-2.951,-2.9712,-3.0177,-3.0567,-3.0809,-3.0456,-2.9896,-2.9304,-2.9152,-2.9033,-2.9179,-3.0252,-3.0003,-2.9773,-3.1643,-3.1796,-3.1546,-3.2025,-3.2382,-3.2472,-3.1831,-3.2329,-3.29,-3.29,-3.29,-3.29,-3.29,-3.29,-3.29,-3.29,-3.29,-3.29,-3.29,-3.29,-3.29,-3.29,-3.2757,-3.2704,-3.2882,-3.2739,-3.2704,-3.2882,-3.29,-3.2632,-3.199,-3.1778,-3.1403,-3.0779,-2.9886,-2.9405,-2.9405,-2.8784,-2.8534,-2.8695,-2.9191,-2.9084,-2.8445,-2.8285,-2.8053,-2.7803,-2.7803,-2.7803,-2.7803,-2.7803,-2.7259,-2.6504,-2.708,-2.6581,-2.5631,-2.6199,-2.6014,-2.5279,-4.3846,-4.3924,-4.404,-4.4427,-4.4871,-4.5162,-4.5162,-4.5529,-4.5807,-4.5807,-4.5432,-4.4871,-4.4078,-4.3576,-4.2976,-4.2183,-4.168,-4.1255,-4.0835,-4.0159,-3.9741,-3.9684,-3.8689,-3.8088,-3.8026,-3.6825,-3.6007,-3.5608,-3.5199,-3.4755,-3.4245,-3.3411,-3.3032,-3.3032,-3.3032,-3.2777,-3.2382,-3.2769,-3.2874,-3.2691,-3.1793,-3.1385,-3.1229,-3.0312,-3.0214,-3.0493,-3.014,-3.0028,-3.0084,-3.0474,-3.0065,-2.9386,-2.9272,-2.9444,-2.9865,-3.0854,-3.1003,-3.1167,-3.2637,-3.2675,-3.2275,-3.2329,-3.2614,-3.2793,-3.2382,-3.2311,-3.2436,-3.2829,-3.2596,-3.2436,-3.2829,-3.29,-3.29,-3.29,-3.29,-3.29,-3.29,-3.29,-3.29,-3.29,-3.29,-3.29,-3.29,-3.29,-3.29,-3.29,-3.29,-3.2624,-3.202,-3.1614,-3.1207,-3.08,-3.0074,-2.9703,-2.9703,-2.9263,-2.9068,-2.9068,-2.9283,-2.9191,-2.8766,-2.8766,-2.8379,-2.7701,-2.7701,-2.7612,-2.7461,-2.7461,-2.7034,-2.639,-2.6408,-2.5881,-2.516,-2.5523,-2.5209,-2.4464,-4.4659,-4.4813,-4.5026,-4.5691,-4.5807,-4.5807,-4.5807,-4.5807,-4.5807,-4.5807,-4.5807,-4.5265,-4.3885,-4.373,-4.3053,-4.1377,-4.1242,-4.1164,-4.1009,-4.0585,-4.0307,-4.0309,-3.9423,-3.8929,-3.8917,-3.8186,-3.7353,-3.6415,-3.6415,-3.595,-3.5116,-3.4434,-3.4055,-3.3903,-3.3903,-3.3469,-3.276,-3.3439,-3.3633,-3.3404,-3.255,-3.2107,-3.1862,-3.0945,-3.092,-3.1218,-2.988,-2.9489,-2.9731,-3.053,-3.0363,-2.9805,-2.9805,-3.0154,-3.069,-3.1415,-3.1868,-3.2249,-3.2796,-3.2916,-3.2668,-3.1724,-3.2114,-3.2668,-3.2525,-3.2079,-3.1849,-3.2382,-3.1956,-3.1742,-3.2543,-3.2686,-3.2739,-3.2882,-3.2775,-3.2739,-3.2882,-3.2775,-3.2757,-3.2882,-3.29,-3.29,-3.29,-3.29,-3.2922,-3.2982,-3.2875,-3.2675,-3.2407,-3.1619,-3.1199,-3.1199,-3.0483,-3.0098,-3.0098,-2.9959,-2.9959,-3.008,-2.975,-2.9562,-2.9496,-2.9372,-2.8721,-2.7729,-2.7729,-2.7488,-2.7117,-2.7239,-2.699,-2.6454,-2.5828,-2.538,-2.511,-2.511,-2.4696,-2.4116,-4.5613,-4.5652,-4.5671,-4.5787,-4.5807,-4.5807,-4.5807,-4.5807,-4.5807,-4.5807,-4.5807,-4.571,-4.5497,-4.5459,-4.4794,-4.3111,-4.2957,-4.2647,-4.1893,-4.0986,-4.0423,-4.0309,-4.0053,-3.9868,-3.973,-3.9616,-3.8812,-3.7249,-3.7249,-3.6832,-3.6017,-3.5922,-3.5457,-3.4737,-3.4737,-3.4623,-3.4468,-3.4581,-3.4486,-3.4184,-3.337,-3.2549,-3.1742,-3.0913,-3.0233,-2.9694,-2.9471,-2.9842,-3.0567,-3.1366,-3.1571,-3.1478,-3.1478,-3.153,-3.1691,-3.2065,-3.2229,-3.2214,-3.1981,-3.238,-3.2543,-3.1046,-3.126,-3.1671,-3.0975,-3.1278,-3.1528,-3.0957,-3.0743,-3.0921,-3.1706,-3.1849,-3.2097,-3.2793,-3.2329,-3.2114,-3.2793,-3.2311,-3.2117,-3.2829,-3.29,-3.29,-3.29,-3.29,-3.3022,-3.3319,-3.2739,-3.2494,-3.272,-3.2028,-3.1613,-3.1613,-3.0853,-3.0421,-3.0421,-2.9799,-2.9799,-3.0421,-3.0387,-3.0193,-2.9908,-2.9253,-2.854,-2.7776,-2.7776,-2.7403,-2.6809,-2.7453,-2.6945,-2.5726,-2.5576,-2.533,-2.511,-2.511,-2.4959,-2.461,-4.5807,-4.5807,-4.5807,-4.5807,-4.5807,-4.5807,-4.5807,-4.5807,-4.5807,-4.5807,-4.5807,-4.5633,-4.5181,-4.4697,-4.4117,-4.3363,-4.3305,-4.2937,-4.2067,-4.1502,-4.0958,-4.0328,-4.0167,-4.004,-3.99,-3.99,-3.954,-3.8812,-3.8338,-3.7704,-3.687,-3.687,-3.668,-3.6272,-3.5739,-3.5734,-3.6012,-3.5007,-3.4753,-3.4933,-3.4106,-3.3234,-3.2425,-3.2072,-3.144,-3.0679,-3.0233,-3.0288,-3.0641,-3.1013,-3.144,-3.1794,-3.1794,-3.2109,-3.2479,-3.2506,-3.2757,-3.2847,-3.213,-3.2079,-3.1849,-3.0279,-3.1135,-3.2043,-3.0796,-3.1831,-3.2813,-3.201,-3.1474,-3.1546,-3.2813,-3.267,-3.2489,-3.2846,-3.2596,-3.2489,-3.2846,-3.2596,-3.2507,-3.2864,-3.29,-3.3078,-3.3526,-3.3168,-3.3236,-3.4003,-3.3353,-3.275,-3.2372,-3.2026,-3.165,-3.122,-3.0845,-3.0675,-3.0675,-3.0334,-3.0351,-3.0675,-3.0675,-3.0529,-3.0265,-2.9551,-2.8697,-2.7807,-2.7807,-2.7516,-2.707,-2.7387,-2.6885,-2.5848,-2.4996,-2.4331,-2.3819,-2.372,-2.3704,-2.3523]},{"header":{"parameterUnit":"m.s-1","parameterCategory":1,"la1":30.6,"la2":28.766,"lo1":-90.7593,"lo2":-88.6598,"dy":0.0162,"dx":0.0183,"nx":116,"ny":114,"refTime":"2023-11-06T06:00:00:Z","depth":0,"parameterNumber":3,"parameterNumberName":"V-component_of_WINDS"},"data":[0.0,0.0,0.0,0.0,0.0,0.0,0.0,0.0,0.0,0.0,0.0,0.0,0.0,0.0,0.0,0.0,0.0,0.0,0.0,0.0,0.0,0.0,0.0,0.0,0.0,0.0,0.0,0.0,0.0,0.0,0.0,0.0,0.0,0.0,0.0,0.0,0.0,0.0,0.0,0.0,0.0,0.0,0.0,0.0,0.0,0.0,0.0,0.0,0.0,0.0,0.0,0.0,0.0,0.0,0.0,0.0,0.0,0.0,0.0,0.0,0.0,0.0,0.0,0.0,0.0,0.0,0.0,0.0,0.0,0.0,0.0,0.0,0.0,0.0,0.0,0.0,0.0,0.0,0.0,0.0,0.0,0.0,0.0,0.0,0.0,0.0,0.0,0.0,0.0,0.0,0.0,0.0,0.0,0.0,0.0,0.0,0.0,0.0,0.0,0.0,0.0,0.0,0.0,0.0,0.0,0.0,0.0,0.0,0.0,0.0,0.0,0.0,0.0,0.0,0.0,0.0,0.0,0.0,0.0,0.0,0.0,0.0,0.0,0.0,0.0,0.0,0.0,0.0,0.0,0.0,0.0,0.0,0.0,0.0,0.0,0.0,0.0,0.0,0.0,0.0,0.0,0.0,0.0,0.0,0.0,0.0,0.0,0.0,0.0,0.0,0.0,0.0,0.0,0.0,0.0,0.0,0.0,0.0,0.0,0.0,0.0,0.0,0.0,0.0,0.0,0.0,0.0,0.0,0.0,0.0,0.0,0.0,0.0,0.0,0.0,0.0,0.0,0.0,0.0,0.0,0.0,0.0,0.0,0.0,0.0,0.0,0.0,0.0,0.0,0.0,0.0,0.0,0.0,0.0,0.0,0.0,0.0,0.0,0.0,0.0,0.0,0.0,0.0,0.0,0.0,0.0,0.0,0.0,0.0,0.0,0.0,0.0,0.0,0.0,0.0,0.0,0.0,0.0,0.0,0.0,0.0,0.0,0.0,0.0,0.0,0.0,0.0,0.0,0.0,0.0,0.0,0.0,0.0,0.0,0.0,0.0,0.0,0.0,0.0,0.0,0.0,0.0,0.0,0.0,0.0,0.0,0.0,0.0,0.0,0.0,0.0,0.0,0.0,0.0,0.0,0.0,0.0,0.0,0.0,0.0,0.0,0.0,0.0,0.0,0.0,0.0,0.0,0.0,0.0,0.0,0.0,0.0,0.0,0.0,0.0,0.0,0.0,0.0,0.0,0.0,0.0,0.0,0.0,0.0,0.0,0.0,0.0,0.0,0.0,0.0,0.0,0.0,0.0,0.0,0.0,0.0,0.0,0.0,0.0,0.0,0.0,0.0,0.0,0.0,0.0,0.0,0.0,0.0,0.0,0.0,0.0,0.0,0.0,0.0,0.0,0.0,0.0,0.0,0.0,0.0,0.0,0.0,0.0,0.0,0.0,0.0,0.0,0.0,0.0,0.0,0.0,0.0,0.0,0.0,0.0,0.0,0.0,0.0,0.0,0.0,0.0,0.0,0.0,0.0,0.0,0.0,0.0,0.0,0.0,0.0,0.0,0.0,0.0,0.0,0.0,0.0,0.0,0.0,0.0,0.0,0.0,0.0,0.0,0.0,0.0,0.0,0.0,0.0,0.0,0.0,0.0,0.0,0.0,0.0,0.0,0.0,0.0,0.0,0.0,0.0,0.0,0.0,0.0,0.0,0.0,0.0,0.0,0.0,0.0,0.0,0.0,0.0,0.0,0.0,0.0,0.0,0.0,0.0,0.0,0.0,0.0,0.0,0.0,0.0,0.0,0.0,0.0,0.0,0.0,0.0,0.0,0.0,0.0,0.0,0.0,0.0,0.0,0.0,0.0,0.0,0.0,0.0,0.0,0.0,0.0,0.0,0.0,0.0,0.0,0.0,0.0,0.0,0.0,0.0,0.0,0.0,0.0,0.0,0.0,0.0,0.0,0.0,0.0,0.0,0.0,0.0,0.0,0.0,0.0,0.0,0.0,0.0,0.0,0.0,0.0,0.0,0.0,0.0,0.0,0.0,0.0,0.0,0.0,0.0,0.0,0.0,0.0,0.0,0.0,0.0,0.0,0.0,0.0,0.0,0.0,0.0,0.0,0.0,0.0,0.0,0.0,0.0,0.0,0.0,0.0,0.0,0.0,0.0,0.0,0.0,0.0,0.0,0.0,0.0,0.0,0.0,0.0,0.0,0.0,0.0,0.0,0.0,0.0,0.0,0.0,0.0,0.0,0.0,0.0,0.0,0.0,0.0,0.0,0.0,0.0,0.0,0.0,0.0,0.0,0.0,0.0,0.0,0.0,0.0,0.0,0.0,0.0,0.0,0.0,0.0,0.0,0.0,0.0,0.0,0.0,0.0,0.0,0.0,0.0,0.0,0.0,0.0,0.0,0.0,0.0,0.0,0.0,0.0,0.0,0.0,0.0,0.0,0.0,0.0,0.0,0.0,0.0,0.0,0.0,0.0,0.0,0.0,0.0,0.0,0.0,0.0,0.0,0.0,0.0,0.0,0.0,0.0,0.0,0.0,0.0,0.0,0.0,0.0,0.0,0.0,0.0,0.0,0.0,0.0,0.0,0.0,0.0,0.0,0.0,0.0,0.0,0.0,0.0,0.0,0.0,0.0,0.0,0.0,0.0,0.0,0.0,0.0,0.0,0.0,0.0,0.0,0.0,0.0,0.0,0.0,0.0,0.0,0.0,0.0,0.0,0.0,0.0,0.0,0.0,0.0,0.0,0.0,0.0,0.0,0.0,0.0,0.0,0.0,0.0,0.0,0.0,0.0,0.0,0.0,0.0,0.0,0.0,0.0,0.0,0.0,0.0,0.0,0.0,0.0,0.0,0.0,0.0,0.0,0.0,0.0,0.0,0.0,0.0,0.0,0.0,0.0,0.0,0.0,0.0,0.0,0.0,0.0,0.0,0.0,0.0,0.0,0.0,0.0,0.0,0.0,0.0,0.0,0.0,0.0,0.0,0.0,0.0,0.0,0.0,0.0,0.0,0.0,0.0,0.0,0.0,0.0,0.0,0.0,0.0,0.0,0.0,0.0,0.0,0.0,0.0,0.0,0.0,0.0,0.0,0.0,0.0,0.0,0.0,0.0,0.0,0.0,0.0,0.0,0.0,0.0,0.0,0.0,0.0,0.0,0.0,0.0,0.0,0.0,0.0,0.0,0.0,0.0,0.0,0.0,0.0,0.0,0.0,0.0,0.0,0.0,0.0,0.0,0.0,0.0,0.0,0.0,0.0,0.0,0.0,0.0,0.0,0.0,0.0,0.0,0.0,0.0,0.0,0.0,0.0,0.0,0.0,0.0,0.0,0.0,0.0,0.0,0.0,0.0,0.0,0.0,0.0,0.0,0.0,0.0,0.0,0.0,0.0,0.0,0.0,0.0,0.0,0.0,0.0,0.0,0.0,0.0,0.0,0.0,0.0,0.0,0.0,0.0,0.0,0.0,0.0,0.0,0.0,0.0,0.0,0.0,0.0,0.0,0.0,0.0,0.0,0.0,0.0,0.0,0.0,0.0,0.0,0.0,0.0,0.0,0.0,0.0,0.0,0.0,0.0,0.0,0.0,0.0,0.0,0.0,0.0,0.0,0.0,0.0,0.0,0.0,0.0,0.0,0.0,0.0,0.0,0.0,0.0,0.0,0.0,0.0,0.0,0.0,0.0,0.0,0.0,0.0,0.0,0.0,0.0,0.0,0.0,0.0,0.0,0.0,0.0,0.0,0.0,0.0,0.0,0.0,0.0,0.0,0.0,0.0,0.0,0.0,0.0,0.0,0.0,0.0,0.0,0.0,0.0,0.0,0.0,0.0,0.0,0.0,0.0,0.0,0.0,0.0,0.0,0.0,0.0,0.0,0.0,0.0,0.0,0.0,0.0,0.0,0.0,0.0,0.0,0.0,0.0,0.0,0.0,0.0,0.0,0.0,0.0,0.0,0.0,0.0,0.0,0.0,0.0,0.0,0.0,0.0,0.0,0.0,0.0,0.0,0.0,0.0,0.0,0.0,0.0,0.0,0.0,0.0,0.0,0.0,0.0,0.0,0.0,0.0,0.0,0.0,0.0,0.0,0.0,0.0,0.0,0.0,0.0,0.0,0.0,0.0,0.0,0.0,0.0,0.0,0.0,0.0,0.0,0.0,0.0,0.0,0.0,0.0,0.0,0.0,0.0,0.0,0.0,0.0,0.0,0.0,0.0,0.0,0.0,0.0,0.0,0.0,0.0,0.0,0.0,0.0,0.0,0.0,0.0,0.0,0.0,0.0,0.0,0.0,0.0,0.0,0.0,0.0,0.0,0.0,0.0,0.0,0.0,0.0,0.0,0.0,0.0,0.0,0.0,0.0,0.0,0.0,0.0,0.0,0.0,0.0,0.0,0.0,0.0,0.0,0.0,0.0,0.0,0.0,0.0,0.0,0.0,0.0,0.0,0.0,0.0,0.0,0.0,0.0,0.0,0.0,0.0,0.0,0.0,0.0,0.0,0.0,0.0,0.0,0.0,0.0,0.0,0.0,0.0,0.0,0.0,0.0,0.0,0.0,0.0,0.0,0.0,0.0,0.0,0.0,0.0,0.0,0.0,0.0,0.0,0.0,0.0,0.0,0.0,0.0,0.0,0.0,0.0,0.0,0.0,0.0,0.0,0.0,0.0,0.0,0.0,0.0,0.0,0.0,0.0,0.0,0.0,0.0,0.0,0.0,0.0,0.0,0.0,0.0,0.0,0.0,0.0,0.0,0.0,0.0,0.0,0.0,0.0,0.0,0.0,0.0,0.0,0.0,0.0,0.0,0.0,0.0,0.0,0.0,0.0,0.0,0.0,0.0,0.0,0.0,0.0,0.0,0.0,0.0,0.0,0.0,0.0,0.0,0.0,0.0,0.0,0.0,0.0,0.0,0.0,0.0,0.0,0.0,0.0,0.0,0.0,0.0,0.0,0.0,0.0,0.0,0.0,0.0,0.0,0.0,0.0,0.0,0.0,0.0,0.0,0.0,0.0,0.0,0.0,0.0,0.0,0.0,0.0,0.0,0.0,0.0,0.0,0.0,0.0,0.0,0.0,0.0,0.0,0.0,0.0,0.0,0.0,0.0,0.0,0.0,0.0,0.0,0.0,0.0,0.0,0.0,0.0,0.0,0.0,0.0,0.0,0.0,0.0,0.0,0.0,0.0,0.0,0.0,0.0,0.0,0.0,0.0,0.0,0.0,0.0,0.0,0.0,0.0,0.0,0.0,0.0,0.0,0.0,0.0,0.0,0.0,0.0,0.0,0.0,0.0,0.0,0.0,0.0,0.0,0.0,0.0,0.0,0.0,0.0,0.0,0.0,0.0,0.0,0.0,0.0,0.0,0.0,0.0,0.0,0.0,0.0,0.0,0.0,0.0,0.0,0.0,0.0,0.0,0.0,0.0,0.0,0.0,0.0,0.0,0.0,0.0,0.0,0.0,0.0,0.0,0.0,0.0,0.0,0.0,0.0,0.0,0.0,0.0,0.0,0.0,0.0,0.0,0.0,0.0,0.0,0.0,0.0,0.0,0.0,0.0,0.0,0.0,0.0,0.0,0.0,0.0,0.0,0.0,0.0,0.0,0.0,0.0,0.0,0.0,0.0,0.0,0.0,0.0,0.0,0.0,0.0,0.0,0.0,0.0,0.0,0.0,0.0,0.0,0.0,0.0,0.0,0.0,0.0,0.0,0.0,0.0,0.0,0.0,0.0,0.0,0.0,0.0,0.0,0.0,0.0,0.0,0.0,0.0,0.0,0.0,0.0,0.0,0.0,0.0,0.0,0.0,0.0,0.0,0.0,0.0,0.0,0.0,0.0,0.0,0.0,0.0,0.0,0.0,0.0,0.0,0.0,0.0,0.0,0.0,0.0,0.0,0.0,0.0,0.0,0.0,0.0,0.0,0.0,0.0,0.0,0.0,0.0,0.0,0.0,0.0,0.0,0.0,0.0,0.0,0.0,0.0,0.0,0.0,0.0,0.0,0.0,0.0,0.0,0.0,0.0,0.0,0.0,0.0,0.0,0.0,0.0,0.0,0.0,0.0,0.0,0.0,0.0,0.0,0.0,0.0,0.0,0.0,0.0,0.0,-0.2783,0.0,0.0,0.0,0.0,0.0,0.0,0.0,0.0,0.0,0.0,0.0,0.0,0.0,0.0,0.0,0.0,0.0,0.0,0.0,0.0,0.0,0.0,0.0,0.0,0.0,0.0,0.0,0.0,0.0,0.0,0.0,0.0,0.0,0.0,0.0,0.0,0.0,0.0,0.0,0.0,0.0,0.0,0.0,0.0,0.0,0.0,0.0,0.0,0.0,0.0,0.0,0.0,0.0,0.0,0.0,0.0,0.0,0.0,0.0,0.0,0.0,0.0,0.0,0.0,0.0,0.0,0.0,0.0,0.0,0.0,0.0,0.0,0.0,0.0,0.0,0.0,0.0,0.0,0.0,0.0,0.0,0.0,0.0,0.0,0.0,0.0,0.0,0.0,0.0,0.0,0.0,0.0,0.0,0.0,0.0,0.0,0.0,0.0,0.0,0.0,0.0,0.0,0.0,0.0,0.0,0.0,0.0,0.0,0.0,0.0,0.0,0.0,0.0,0.0,0.0,0.0,-0.289,0.0,0.0,0.0,0.0,0.0,0.0,0.0,0.0,0.0,0.0,0.0,0.0,0.0,0.0,0.0,0.0,0.0,0.0,0.0,0.0,0.0,0.0,0.0,0.0,0.0,0.0,0.0,0.0,0.0,0.0,0.0,0.0,0.0,0.0,0.0,0.0,0.0,0.0,0.0,0.0,0.0,0.0,0.0,0.0,0.0,0.0,0.0,0.0,0.0,0.0,0.0,0.0,0.0,0.0,0.0,0.0,0.0,0.0,0.0,0.0,0.0,0.0,0.0,0.0,0.0,0.0,0.0,0.0,0.0,0.0,0.0,0.0,0.0,0.0,0.0,0.0,0.0,0.0,0.0,0.0,0.0,0.0,0.0,0.0,0.0,0.0,0.0,0.0,0.0,0.0,0.0,0.0,0.0,0.0,0.0,0.0,0.0,0.0,0.0,0.0,0.0,0.0,0.0,0.0,0.0,0.0,0.0,0.0,-0.2523,-0.2558,-0.2645,-0.2748,-0.2823,-0.2861,-0.29,-0.29,-0.285,-0.2854,0.0,0.0,0.0,0.0,0.0,0.0,0.0,0.0,0.0,0.0,0.0,0.0,0.0,0.0,0.0,0.0,0.0,0.0,0.0,0.0,0.0,0.0,0.0,0.0,0.0,0.0,0.0,0.0,0.0,0.0,0.0,0.0,0.0,0.0,0.0,0.0,0.0,0.0,0.0,0.0,0.0,0.0,0.0,0.0,0.0,0.0,0.0,0.0,0.0,0.0,0.0,0.0,0.0,0.0,0.0,0.0,0.0,0.0,0.0,0.0,0.0,0.0,0.0,0.0,0.0,0.0,0.0,0.0,0.0,0.0,0.0,0.0,0.0,0.0,0.0,0.0,0.0,0.0,0.0,0.0,0.0,0.0,0.0,0.0,0.0,0.0,-0.0622,-0.1,0.0,0.0,0.0,0.0,0.0,0.0,0.0,0.0,0.0,0.0,0.0,0.0,0.0,-0.244,-0.2534,-0.2628,-0.2638,-0.2598,-0.2598,-0.2639,-0.2773,-0.2798,-0.2923,-0.3135,-0.3035,0.0,-0.2637,-0.2703,0.0,0.0,0.0,0.0,0.0,0.0,0.0,0.0,0.0,0.0,0.0,0.0,0.0,0.0,0.0,0.0,0.0,0.0,0.0,0.0,0.0,0.0,0.0,0.0,0.0,0.0,0.0,0.0,0.0,0.0,0.0,0.0,0.0,0.0,0.0,0.0,0.0,0.0,0.0,0.0,0.0,0.0,0.0,0.0,0.0,0.0,0.0,0.0,0.0,0.0,0.0,0.0,0.0,0.0,0.0,0.0,0.0,0.0,0.0,0.0,0.0,0.0,0.0,0.0,0.0,0.0,0.0,0.0,0.0,0.0,0.0,0.0,0.0,0.0,0.0,0.0,0.0,0.0,0.0,0.0,0.0,0.0,0.0,0.0,0.0,0.0353,0.0049,-0.0603,-0.0536,-0.0672,0.0,0.0,0.0,0.0,0.0,0.0,0.0,0.0,0.0,-0.1948,-0.2318,-0.2564,-0.2657,-0.2698,-0.2697,-0.2707,-0.2707,-0.2798,-0.2917,-0.2839,-0.2896,-0.3077,-0.2895,-0.2774,-0.268,-0.2809,-0.2837,-0.2829,0.0,0.0,0.0,0.0,-0.3009,-0.3066,0.0,0.0,0.0,0.0,0.0,0.0,0.0,0.0,0.0,0.0,0.0,0.0,0.0,0.0,0.0,0.1538,0.0,0.0,0.0,0.0,0.0,0.0,0.0,0.0,0.0,0.0,0.0,0.0,0.0,0.0,0.0,0.0,0.0,0.0,0.0,0.0,0.0,0.0,0.0,0.0,0.0,0.0,0.0,0.0,0.0,0.0,0.0,0.0,0.0,0.0,0.0,0.0,0.0,0.0,0.0,0.0,0.0,0.0,0.0,0.0,0.0,0.0,0.0,0.0,0.0,0.0,0.0,0.0,0.0,0.0,0.0,0.0,0.0,0.0,0.0,0.0,0.0,0.0664,0.0389,-0.0173,-0.0076,-0.0182,0.0,0.0,0.0,0.0,0.0,0.0,-0.0687,-0.1043,-0.1297,-0.1407,-0.1896,-0.2259,-0.2532,-0.2553,-0.2694,-0.2899,-0.2899,-0.2968,-0.3044,-0.2949,-0.2985,-0.3099,-0.2907,-0.2836,-0.2845,-0.2891,-0.2876,-0.283,-0.2916,-0.2992,-0.3039,-0.3039,-0.3142,-0.3239,0.0,0.0,0.0,0.0,0.0,0.0,0.0,0.0,0.0,0.0,0.0,0.0,0.0,0.0,0.3251,0.3427,0.3276,0.3121,0.0,0.0,0.0,0.0,0.0,0.0,0.0,0.0,0.0,0.0,0.0,0.0,0.0,0.0,0.0,0.0,0.0,0.0,0.0,0.0,0.0,0.0,0.0,0.0,0.0,0.0,0.0,0.0,0.0,0.0,0.0,0.0,0.0,0.0,0.0,0.0,0.0,0.0,0.0,0.0,0.0,0.0,0.0,0.0,0.0,0.0,0.0,0.0,0.0,0.0,0.0,0.0,0.0,0.0,0.0,0.0,0.0,0.0,0.0,0.0,0.0,-0.0144,-0.0419,0.0,0.0,0.0,0.0,-0.0796,-0.0736,-0.0684,-0.061,-0.0575,-0.0574,-0.064,-0.0818,-0.1278,-0.211,-0.2202,-0.2562,-0.3174,-0.3174,-0.3182,-0.3202,-0.3197,-0.3258,-0.3383,-0.3241,-0.3166,-0.315,-0.2834,-0.2669,-0.2632,-0.2763,-0.2977,-0.3195,-0.3195,-0.3279,-0.3392,0.0,0.0,0.0,0.0,0.0,0.0,0.0,0.0,0.0,0.0,0.0,0.0,0.0,0.3514,0.3571,0.3364,0.3186,0.2939,0.2646,0.0,0.0,0.0,0.0,0.0,0.0,0.0,0.1688,0.1345,0.1751,0.1945,0.1943,0.2032,0.2082,0.2053,0.1981,0.158,0.0979,0.031,0.0,0.0,0.0,0.0034,0.0,0.0,0.0,0.0,0.0,0.0,0.0,0.0,0.0,0.0,0.0,0.0,0.0,0.0,0.0,0.0,0.0,0.0,0.0,0.0,0.0,0.0,0.0,0.0,0.0,0.0,0.0,0.0,0.0,0.0,0.0,0.0,0.0,0.0,0.0,0.0,0.0,0.0,0.0028,0.0,-0.067,-0.0485,-0.0285,-0.0166,0.0142,0.0348,0.044,0.0091,-0.0158,-0.0201,-0.0643,-0.1038,-0.1397,-0.141,-0.1537,-0.1795,-0.2276,-0.2501,-0.257,-0.2971,-0.317,-0.3255,-0.316,-0.3148,-0.3113,-0.3017,-0.298,-0.3055,-0.3209,-0.3398,-0.3598,-0.3598,-0.3647,-0.3717,0.0,0.0,0.0,0.0,0.0,0.0,0.0,0.0,0.0,0.0,0.0,0.3391,0.3555,0.38,0.3887,0.3713,0.35,0.3208,0.2862,0.0,0.0,0.0,0.0,0.0,0.0,0.2635,0.2737,0.2404,0.2799,0.3014,0.3075,0.3165,0.3209,0.3213,0.3124,0.2709,0.2078,0.1397,0.0673,0.0,0.0,0.0,0.0,0.0,0.0,0.0,0.0,0.0,0.0,0.0,0.0,0.0,0.0,0.0,0.0,0.0,0.0,0.0,0.0,0.0,0.0,0.0,0.0,0.0,0.0,0.0,0.0,0.0,0.0,0.0,0.0,0.0,0.0,0.0,0.0,0.0,0.0,0.0,0.1002,0.0602,0.0673,0.0519,-0.006,0.0183,0.0396,0.0473,0.0766,0.098,0.1032,0.0663,0.0446,0.0395,0.0,-0.0327,-0.0671,-0.0671,-0.0807,-0.1064,-0.1559,-0.1808,-0.1844,-0.2502,-0.2673,-0.2517,-0.2931,-0.3006,-0.2808,-0.3038,-0.322,-0.3376,-0.3404,-0.3545,-0.3728,-0.3816,-0.3895,-0.3954,0.0,0.0,0.0,0.0,0.0,0.0,0.0,0.0,0.0,0.0,0.3202,0.3388,0.3857,0.4029,0.4278,0.4665,0.433,0.404,0.3924,0.3179,0.0,0.0,0.0,0.0,0.2947,0.3408,0.3449,0.3087,0.3108,0.3171,0.3282,0.3285,0.3285,0.3285,0.3284,0.3296,0.3235,0.3233,0.2048,0.0118,0.0112,0.0074,0.0075,0.0,0.0,0.0,0.0,0.0,0.0,0.0,0.0,0.0,0.0,0.0,0.0,0.0,0.0,0.0,0.0,0.0,0.0,0.0,0.0,0.0,0.0,0.0,0.0,0.0,0.0,0.0,0.0,0.0,0.0,0.0,0.0,0.0,0.139,0.1207,0.1254,0.158,0.1426,0.1222,0.103,0.1078,0.1067,0.1008,0.1056,0.1088,0.1089,0.1152,0.1219,0.1212,0.1213,0.0843,0.0039,0.0039,-0.0344,-0.1129,-0.1165,-0.1134,-0.108,-0.1818,-0.1784,-0.1179,-0.2527,-0.276,-0.2251,-0.2894,-0.3299,-0.3478,-0.3286,-0.3366,-0.3645,-0.3833,-0.3993,-0.4056,0.0,0.0,0.0,0.0,0.0,0.0,0.0,0.0,0.0,0.0,0.3449,0.3753,0.4003,0.4375,0.4642,0.4776,0.4455,0.4235,0.4202,0.0,0.0,0.0,0.0,0.0,0.4053,0.461,0.4822,0.4576,0.5041,0.5334,0.5441,0.5513,0.5497,0.5541,0.5472,0.5034,0.4378,0.4316,0.3543,0.2332,0.2197,0.2086,0.1957,0.0,0.0,0.0,0.0,0.0,0.0,0.0,0.0,0.0,0.0,0.0,0.0,0.0,0.0,0.0,0.0,0.0,0.0,0.0,0.0,0.0,0.0,0.0,0.0,0.0,0.0,0.0,0.0,0.0,0.0,0.0,0.0,0.2038,0.1709,0.1808,0.185,0.1689,0.167,0.1597,0.1399,0.1238,0.1174,0.113,0.1144,0.1164,0.1185,0.1195,0.1213,0.1283,0.1284,0.117,0.0942,0.0942,0.0819,0.0615,0.0038,-0.026,-0.0257,-0.1005,-0.1209,-0.1032,-0.1423,-0.1795,-0.2146,-0.2366,-0.2785,-0.3288,-0.337,-0.3563,-0.3751,-0.3815,-0.3914,-0.4014,0.0,0.0,0.0,0.0,0.0,0.0,0.0,0.0,0.0,0.0,0.3657,0.3945,0.4227,0.4561,0.476,0.476,0.4477,0.4235,0.4114,0.0,0.0,0.0,0.0,0.4904,0.4919,0.5427,0.566,0.568,0.6032,0.6225,0.6339,0.6404,0.6387,0.6384,0.6369,0.6041,0.5492,0.5428,0.5056,0.4481,0.4416,0.3755,0.2835,0.2833,0.248,0.1959,0.1895,0.133,0.0583,0.0554,0.0,0.0,0.0,0.0,0.0,0.0,0.0,0.0,0.0,0.0,0.0,0.0,0.0,0.0,0.0,0.0,0.0,0.0,0.0,0.0,0.0,0.0,0.0,0.0,0.2187,0.2212,0.2041,0.2129,0.2155,0.1981,0.185,0.1693,0.1546,0.1343,0.1237,0.1224,0.1224,0.1236,0.1228,0.1257,0.1264,0.1294,0.1283,0.1282,0.1295,0.1283,0.1316,0.1276,0.0825,0.0621,0.0576,-0.0151,-0.0336,-0.0111,-0.0702,-0.1056,-0.121,-0.1554,-0.2108,0.0,0.0,0.0,0.0,0.0,-0.4063,-0.4206,0.0,0.0,0.0,0.0,0.0,0.0,0.0,0.0,0.0,0.0,0.0,0.4044,0.443,0.4577,0.4662,0.4651,0.4395,0.4126,0.0,0.0,0.0,0.4566,0.4999,0.5355,0.5543,0.5915,0.6146,0.6317,0.6317,0.6325,0.6387,0.6387,0.6387,0.6387,0.6387,0.6387,0.6387,0.6387,0.638,0.6287,0.6287,0.5117,0.3344,0.3327,0.3232,0.3028,0.2929,0.2318,0.1532,0.1461,0.0,0.0,0.0,0.0,0.0,0.0,0.0,0.0,0.0,0.0,0.0,0.0,0.0,0.0,0.0,0.0,0.0,0.0,0.0,0.0,0.0,0.0,0.0,0.0,0.2336,0.2417,0.2377,0.2311,0.2291,0.2322,0.1993,0.1739,0.167,0.1481,0.1378,0.135,0.1389,0.136,0.1346,0.0,0.0,0.0,0.0,0.128,0.1305,0.128,0.1309,0.1312,0.1309,0.1295,0.1272,0.0632,0.0662,0.1145,-0.0114,-0.0374,0.0037,-0.0623,-0.1355,-0.2186,-0.3182,-0.349,-0.3472,-0.3961,-0.4308,-0.4471,0.0,0.0,0.0,0.0,0.0,0.0,0.0,0.0,0.0,0.3717,0.385,0.3979,0.4241,0.442,0.4503,0.4376,0.4145,0.3986,0.0,0.0,0.4684,0.5031,0.542,0.5692,0.5831,0.5999,0.6146,0.6317,0.6317,0.6325,0.6387,0.6387,0.6387,0.6387,0.6387,0.6387,0.6387,0.6387,0.6373,0.6404,0.6404,0.5946,0.5355,0.5338,0.4803,0.4044,0.3981,0.3331,0.2439,0.243,0.2159,0.1846,0.1721,0.0,0.0,0.0,0.0,0.0,0.0,0.0,0.0,0.0,0.0,0.0,0.0,0.0,0.0,0.0,0.0,0.0,0.0,0.0,0.0,0.2429,0.256,0.2698,0.2865,0.2834,0.2734,0.2438,0.2307,0.2179,0.1953,0.1924,0.1847,0.163,0.1839,0.1841,0.1639,0.1633,0.1508,0.1305,0.13,0.13,0.1305,0.13,0.1308,0.1373,0.0,0.0,0.1363,0.1192,0.1169,0.1284,0.0983,0.0577,0.0075,-0.0115,-0.0649,-0.1455,-0.2889,-0.3184,-0.2863,-0.3659,-0.4144,-0.4405,0.0,0.0,0.0,0.0,0.0,0.0,0.0,0.0,0.0,0.0,0.3826,0.39,0.4035,0.41,0.4095,0.3952,0.3773,0.0,0.0,0.449,0.4906,0.5347,0.5716,0.5964,0.6083,0.62,0.629,0.6352,0.6352,0.6382,0.6387,0.6387,0.6387,0.6387,0.6387,0.6387,0.6387,0.6387,0.6387,0.6387,0.6387,0.6279,0.6165,0.6108,0.5715,0.5197,0.5107,0.4451,0.3594,0.3429,0.2982,0.2449,0.2265,0.2436,0.256,0.0,0.0,0.0,0.0,0.0,0.0,0.0,0.0,0.0,0.0,0.0,0.0,0.0,0.0,0.2119,0.0,0.0,0.2471,0.2623,0.2748,0.2911,0.3033,0.3025,0.2914,0.2666,0.2546,0.2409,0.2228,0.2159,0.2086,0.1955,0.2022,0.2019,0.1781,0.1763,0.1632,0.1348,0.1334,0.1333,0.1348,0.1333,0.1384,0.1412,0.1354,0.1355,0.1412,0.1382,0.1353,0.1283,0.1309,0.1077,0.0656,0.0195,0.0039,-0.0038,-0.1625,-0.2365,-0.262,-0.3235,-0.3882,-0.4465,0.0,0.0,0.0,0.0,0.0,0.0,0.0,0.0,0.0,0.0,0.0,0.3809,0.3829,0.3786,0.3696,0.0,0.0,0.0,0.0,0.4602,0.509,0.5586,0.5975,0.62,0.6298,0.6391,0.6387,0.6387,0.6387,0.6387,0.6387,0.6387,0.6387,0.6387,0.6411,0.6408,0.6387,0.6411,0.6408,0.6387,0.6387,0.6387,0.6376,0.6336,0.6227,0.6102,0.5956,0.5388,0.4628,0.4411,0.3785,0.3044,0.2837,0.3126,0.3347,0.2271,0.2243,0.0,0.0,0.0,0.0,0.0,0.0,0.0,0.0,0.0,0.2092,0.2153,0.2229,0.2293,0.234,0.2533,0.2694,0.2815,0.2969,0.3062,0.3123,0.3079,0.3018,0.296,0.2793,0.259,0.2415,0.2355,0.2334,0.2244,0.2252,0.2159,0.1928,0.195,0.1815,0.148,0.1506,0.1505,0.148,0.1499,0.1499,0.148,0.148,0.1436,0.139,0.1384,0.1357,0.1313,0.1302,0.1311,0.1266,0.055,0.0667,0.1176,-0.0115,-0.1202,-0.2108,-0.2702,-0.3404,-0.4062,0.0,0.0,0.0,0.0,0.0,0.0,0.0,0.0,0.0,0.0,0.0,0.0,0.0,0.0,0.0,0.0,0.0,0.0,0.444,0.5007,0.5553,0.6005,0.6263,0.6354,0.6368,0.6379,0.6387,0.6387,0.6387,0.6387,0.6387,0.6387,0.6387,0.6389,0.65,0.6487,0.6392,0.6503,0.6487,0.6387,0.6387,0.6387,0.6384,0.6373,0.6347,0.6268,0.5986,0.5645,0.5257,0.5141,0.4801,0.4463,0.4447,0.4338,0.4135,0.3729,0.0,0.2798,0.2618,0.2187,0.1833,0.194,0.2028,0.2118,0.0,0.0,0.2275,0.2368,0.2477,0.2564,0.2571,0.2721,0.2926,0.3047,0.3075,0.3091,0.3202,0.3109,0.3097,0.3084,0.2943,0.2789,0.2506,0.269,0.2739,0.2469,0.2688,0.2688,0.2424,0.2462,0.2282,0.175,0.1823,0.1824,0.175,0.1745,0.1745,0.1749,0.1749,0.1615,0.1389,0.1408,0.1391,0.1382,0.133,0.1303,0.1295,0.1189,0.1218,0.1296,0.1096,0.0507,-0.0465,-0.2127,-0.2485,-0.2406,0.0,0.0,0.0,0.0,0.0,0.0,0.0,0.0,0.0,0.0,0.0,0.0,0.0,0.0,0.0,0.0,0.0,0.0,0.4377,0.5038,0.5627,0.6064,0.6312,0.6387,0.6387,0.6387,0.6387,0.6387,0.6387,0.6387,0.6387,0.6387,0.6387,0.6389,0.6438,0.6433,0.6389,0.6645,0.669,0.6639,0.6639,0.6639,0.6625,0.6333,0.6159,0.6034,0.5863,0.5619,0.0,0.0,0.4882,0.4732,0.4627,0.4468,0.4221,0.3791,0.3446,0.0,0.2649,0.2304,0.2065,0.2124,0.2202,0.23,0.2411,0.2465,0.2507,0.2567,0.2676,0.277,0.2846,0.2929,0.3045,0.0,0.3153,0.314,0.3129,0.3125,0.3064,0.3051,0.2969,0.2873,0.2739,0.2829,0.2887,0.2783,0.2847,0.2813,0.2646,0.2597,0.2444,0.2057,0.2074,0.2062,0.2019,0.2019,0.2019,0.2019,0.1885,0.1749,0.1614,0.1466,0.1407,0.1386,0.1328,0.1303,0.13,0.131,0.1296,0.1296,0.1296,0.106,0.0588,-0.0813,-0.1475,-0.1876,0.0,0.0,0.0,0.0,0.0,0.0,0.0,0.0,0.0,0.0,0.0,0.0,0.0,0.0,0.0,0.0,0.0,0.0,0.0,0.4966,0.5571,0.6149,0.6389,0.6487,0.6437,0.647,0.6487,0.6387,0.6387,0.6403,0.6435,0.6503,0.6506,0.6589,0.6639,0.669,0.674,0.6894,0.6997,0.6995,0.6859,0.6752,0.666,0.6172,0.5831,0.5597,0.5472,0.5328,0.0,0.0,0.4577,0.4531,0.4458,0.4344,0.4178,0.3722,0.3491,0.3243,0.2699,0.2463,0.2395,0.2448,0.2481,0.2515,0.2593,0.2657,0.2717,0.2778,0.2875,0.2955,0.3026,0.3082,0.311,0.3093,0.3141,0.316,0.3099,0.3087,0.3075,0.3011,0.2954,0.292,0.292,0.292,0.2936,0.2978,0.2943,0.2873,0.2781,0.2766,0.2614,0.2333,0.2346,0.2376,0.2328,0.2315,0.2309,0.2309,0.2025,0.1885,0.1794,0.1525,0.1379,0.1399,0.1349,0.1322,0.1313,0.1282,0.1305,0.1296,0.1296,0.1296,0.1218,0.0431,-0.0274,-0.0902,0.0,0.0,0.0,0.0,0.0,0.0,0.0,0.0,0.0,0.0,0.0,0.0,0.0,0.0,0.0,0.0,0.0,0.0,0.0,0.4871,0.5441,0.6331,0.6593,0.6657,0.6606,0.6729,0.6642,0.6387,0.6387,0.6446,0.6611,0.6749,0.6861,0.6981,0.7232,0.7386,0.744,0.7386,0.7437,0.7428,0.6995,0.6695,0.6441,0.5924,0.5338,0.4828,0.4825,0.0,0.0,0.0,0.4029,0.397,0.4232,0.4221,0.0,0.394,0.3615,0.3241,0.2948,0.2841,0.2851,0.3107,0.2916,0.2715,0.2879,0.2953,0.3011,0.3073,0.3089,0.3113,0.3105,0.3146,0.3158,0.3101,0.3141,0.316,0.3099,0.3087,0.3075,0.3011,0.2954,0.292,0.0,0.292,0.292,0.2921,0.292,0.2944,0.3004,0.3062,0.295,0.2712,0.2763,0.2765,0.2663,0.2615,0.2591,0.259,0.2311,0.2064,0.1794,0.1525,0.139,0.1387,0.1401,0.1371,0.1302,0.1313,0.1284,0.1296,0.1296,0.1296,0.1296,0.1257,0.1218,0.0942,0.0,0.0,0.0,0.0,0.0,0.0,0.0,0.0,0.0,0.0,0.0,0.0,0.0,0.0,0.0,0.0,0.0,0.0,0.0,0.4783,0.5337,0.5895,0.6376,0.6631,0.6584,0.6715,0.6735,0.6684,0.6684,0.6707,0.6751,0.6847,0.6941,0.6988,0.7169,0.7258,0.7308,0.7462,0.7509,0.7405,0.7079,0.678,0.6409,0.5514,0.5004,0.464,0.0,0.0,0.0,0.3816,0.3786,0.3844,0.4007,0.3997,0.3957,0.3916,0.3792,0.3664,0.3596,0.3626,0.3772,0.3938,0.3723,0.35,0.355,0.3303,0.3072,0.3101,0.2971,0.2897,0.2921,0.2906,0.2926,0.2906,0.3053,0.3086,0.3034,0.3084,0.3059,0.296,0.2931,0.0,0.0,0.0,0.0,0.2974,0.2976,0.2973,0.3074,0.3098,0.3061,0.2962,0.2982,0.2965,0.2954,0.2935,0.2926,0.2925,0.2451,0.2047,0.1794,0.1525,0.1391,0.1389,0.1403,0.1373,0.1304,0.1315,0.1285,0.1296,0.1296,0.1296,0.1296,0.1296,0.1296,0.1178,0.0,0.0,0.0,0.0,0.0,0.0,0.0,0.0,0.0,0.0,0.0,0.0,0.0,0.0,0.0,0.0,0.0,0.0,0.0,0.0,0.4981,0.5576,0.5932,0.6125,0.6174,0.6264,0.6288,0.625,0.6346,0.6442,0.6536,0.6765,0.6903,0.6953,0.7127,0.7215,0.726,0.7308,0.7308,0.7194,0.6818,0.6471,0.6059,0.5102,0.462,0.0,0.0,0.0,0.0,0.3479,0.3558,0.3684,0.3819,0.387,0.3899,0.3898,0.3992,0.4142,0.4264,0.4339,0.4482,0.4747,0.4483,0.4203,0.4237,0.3939,0.3608,0.3442,0.3243,0.302,0.2802,0.2751,0.2736,0.2694,0.2832,0.2928,0.2915,0.3211,0.3459,0.3492,0.3445,0.3455,0.0,0.0,0.0,0.3003,0.3025,0.3034,0.3085,0.309,0.3101,0.3121,0.3122,0.3154,0.3115,0.3119,0.3027,0.2892,0.2441,0.2046,0.1794,0.1525,0.1391,0.1389,0.1414,0.134,0.1304,0.1286,0.1294,0.1296,0.1296,0.1296,0.1296,0.1296,0.1296,0.1257,0.0,0.0,0.0,0.0,0.0,0.0,0.0,0.0,0.0,0.0,0.0,0.0,0.0,0.0,0.0,0.0,0.0,0.0,0.0,0.0,0.0,0.5327,0.5267,0.524,0.5376,0.5386,0.5346,0.5222,0.5554,0.5811,0.6102,0.6489,0.6713,0.6834,0.6969,0.716,0.7316,0.7,0.6836,0.6802,0.6259,0.5822,0.5393,0.4757,0.0,0.0,0.0,0.0,0.0,0.321,0.3322,0.3471,0.3736,0.386,0.3932,0.3942,0.4219,0.4623,0.4939,0.4954,0.4982,0.5434,0.5145,0.4775,0.4804,0.4755,0.4518,0.3991,0.3755,0.3426,0.0,0.0,0.272,0.2606,0.269,0.276,0.2869,0.3635,0.4321,0.0,0.0,0.0,0.0,0.0,0.0,0.3018,0.0,0.3079,0.3087,0.3093,0.3121,0.3179,0.318,0.3179,0.3176,0.3108,0.2897,0.2517,0.2337,0.2066,0.1794,0.1525,0.1436,0.1391,0.1391,0.1358,0.1305,0.1305,0.1312,0.1296,0.1296,0.1296,0.1296,0.1296,0.1296,0.1296,0.0,0.0,0.0,0.0,0.0,0.0,0.0,0.0,0.0,0.0,0.0,0.0,0.0,0.0,0.0,0.0,0.0,0.0,0.0,0.0,0.0,0.0,0.0,0.0,0.0,0.0,0.0,0.0,0.0,0.5725,0.5862,0.5974,0.6051,0.6088,0.6239,0.6271,0.6203,0.6205,0.6155,0.6064,0.0,0.5438,0.5145,0.0,0.0,0.0,0.0,0.0,0.0,0.0,0.0,0.0,0.4085,0.4183,0.4245,0.4493,0.479,0.5083,0.5323,0.5565,0.5813,0.6024,0.5738,0.5315,0.5195,0.486,0.4428,0.4011,0.3723,0.3511,0.0,0.0,0.0,0.4012,0.4456,0.0,0.5271,0.5479,0.0,0.4661,0.0,0.4256,0.3569,0.3235,0.0,0.0,0.3108,0.3124,0.309,0.3133,0.3164,0.318,0.318,0.3158,0.3114,0.3087,0.3011,0.289,0.2618,0.237,0.2109,0.1839,0.157,0.1391,0.1391,0.1358,0.1305,0.1305,0.1312,0.1296,0.1296,0.1296,0.1296,0.1296,0.1296,0.1296,0.0,0.0,0.0,0.0,0.0,0.0,0.0,0.0,0.0,0.0,0.0,0.0,0.0,0.0,0.0,0.0,0.0,0.0,0.0,0.0,0.0,0.0,0.0,0.0,0.0,0.0,0.0,0.0,0.0,0.0,0.0,0.5352,0.5416,0.542,0.547,0.546,0.542,0.547,0.0,0.0,0.0,0.0,0.0,0.0,0.0,0.0,0.0,0.0,0.0,0.0,0.0,0.4202,0.4395,0.4529,0.4675,0.498,0.0,0.5409,0.5706,0.5972,0.6184,0.63,0.6081,0.5724,0.5458,0.5132,0.4729,0.4168,0.3934,0.0,0.3354,0.3714,0.4089,0.0,0.0,0.0,0.5813,0.5858,0.5719,0.0,0.4908,0.0,0.3903,0.3404,0.313,0.0,0.313,0.313,0.313,0.3161,0.318,0.318,0.318,0.3152,0.3091,0.3079,0.3065,0.3004,0.2706,0.2451,0.2199,0.193,0.166,0.1391,0.0,0.1358,0.1305,0.1305,0.1312,0.1296,0.1296,0.1296,0.1296,0.1296,0.1296,0.1296,0.0,0.0,0.0,0.0,0.0,0.0,0.0,0.0,0.0,0.0,0.0,0.0,0.0,0.0,0.0,0.0,0.0,0.0,0.0,0.0,0.0,0.0,0.0,0.0,0.0,0.0,0.0,0.0,0.0,0.0,0.0,0.0,0.0,0.0,0.0,0.0,0.0,0.0,0.0,0.0,0.0,0.0,0.0,0.0,0.0,0.0,0.0,0.0,0.0,0.0,0.436,0.4555,0.4712,0.4868,0.5089,0.5344,0.5491,0.561,0.6013,0.6176,0.6298,0.6314,0.6154,0.595,0.5561,0.542,0.5141,0.441,0.0,0.4023,0.3604,0.3892,0.4219,0.4188,0.0,0.5225,0.5479,0.5538,0.5684,0.6066,0.5203,0.4599,0.4576,0.3732,0.318,0.318,0.318,0.318,0.318,0.318,0.318,0.318,0.3172,0.3142,0.3091,0.3071,0.3058,0.3004,0.2673,0.2424,0.2199,0.1974,0.1705,0.139,0.1386,0.1354,0.1305,0.1302,0.1309,0.1296,0.1296,0.1296,0.1296,0.1296,0.1296,0.1296,0.0,0.0,0.0,0.0,0.0,0.0,0.0,0.0,0.0,0.0,0.0,0.0,0.0,0.0,0.0,0.0,0.0,0.0,0.0,0.0,0.0,0.0,0.0,0.0,0.0,0.0,0.0,0.0,0.0,0.0,0.0,0.0,0.0,0.0,0.0,0.0,0.0,0.0,0.0,0.0,0.0,0.0,0.0,0.0,0.0,0.0,0.0,0.0,0.0,0.0,0.4276,0.4712,0.5032,0.5124,0.5224,0.557,0.5642,0.5734,0.614,0.6179,0.6143,0.6292,0.6029,0.5725,0.5461,0.5233,0.0,0.0,0.4448,0.4498,0.4748,0.5089,0.5401,0.5597,0.5837,0.5996,0.6037,0.5986,0.5717,0.0,0.491,0.4418,0.358,0.3331,0.0,0.0,0.318,0.318,0.318,0.318,0.318,0.318,0.3132,0.3101,0.309,0.3029,0.3015,0.3004,0.2901,0.2604,0.2199,0.2154,0.1884,0.1389,0.1409,0.0,0.1304,0.128,0.1289,0.1296,0.1296,0.1296,0.1296,0.1296,0.1296,0.1296,0.0,0.0,0.0,0.0,0.0,0.0,0.0,0.0,0.0,0.0,0.3868,0.0,0.0,0.0,0.0,0.0,0.0,0.0,0.0,0.0,0.0,0.0,0.0,0.0,0.0,0.0,0.3709,0.3706,0.0,0.0,0.0,0.3717,0.3706,0.0,0.0,0.0,0.0,0.0,0.0,0.0,0.0,0.0,0.0,0.0,0.0,0.0,0.0,0.0,0.0,0.0,0.4265,0.4657,0.4982,0.5271,0.5507,0.5637,0.5731,0.5858,0.6032,0.6081,0.6083,0.6081,0.5809,0.5447,0.512,0.0,0.0,0.0,0.4522,0.4864,0.5066,0.5684,0.0,0.6349,0.6334,0.6355,0.6533,0.5715,0.5245,0.5564,0.5103,0.4583,0.4083,0.4033,0.3781,0.323,0.318,0.318,0.318,0.318,0.318,0.318,0.3152,0.3122,0.309,0.305,0.3036,0.3004,0.2946,0.2694,0.2334,0.2243,0.1974,0.1613,0.1447,0.1373,0.1304,0.1315,0.1285,0.1296,0.1296,0.1296,0.1296,0.1296,0.1296,0.1296,0.0,0.0,0.0,0.0,0.0,0.0,0.0,0.398,0.3999,0.3999,0.4119,0.4102,0.3876,0.3757,0.0,0.0,0.0,0.0,0.0,0.0,0.0,0.0,0.0,0.0,0.0,0.0,0.0,0.3604,0.3713,0.0,0.0,0.0,0.0,0.0,0.3604,0.3621,0.0,0.0,0.0,0.0,0.0,0.0,0.0,0.0,0.0,0.0,0.0,0.0,0.0,0.0,0.4232,0.445,0.4765,0.5211,0.5572,0.5572,0.5735,0.5877,0.5928,0.5994,0.601,0.5866,0.554,0.518,0.4747,0.4534,0.0,0.4,0.456,0.5123,0.5256,0.6026,0.662,0.0,0.6345,0.6255,0.661,0.5373,0.492,0.0,0.5617,0.0,0.5133,0.4933,0.0,0.3581,0.3331,0.318,0.318,0.318,0.318,0.318,0.318,0.3152,0.3091,0.3079,0.3065,0.3004,0.2946,0.2739,0.2513,0.2289,0.2064,0.1792,0.1535,0.1373,0.1304,0.1315,0.1285,0.1296,0.1296,0.1296,0.1296,0.1296,0.1296,0.1296,0.0,0.0,0.0,0.0,0.0,0.0,0.0,0.4237,0.4357,0.4357,0.426,0.424,0.4334,0.4101,0.0,0.0,0.0,0.0,0.0,0.0,0.0,0.0,0.0,0.0,0.0,0.0,0.0,0.3604,0.3614,0.0,0.0,0.0,0.0,0.0,0.0,0.3675,0.3771,0.0,0.0,0.0,0.0,0.0,0.0,0.0,0.0,0.0,0.0,0.0,0.0,0.0,0.0,0.4175,0.4319,0.4768,0.5238,0.5238,0.0,0.0,0.601,0.5996,0.5866,0.5597,0.5189,0.4814,0.4583,0.0,0.414,0.4075,0.4626,0.5256,0.5723,0.6169,0.6399,0.6267,0.0,0.538,0.5825,0.5299,0.5238,0.6336,0.0,0.0,0.6274,0.5381,0.4734,0.4684,0.3732,0.318,0.318,0.318,0.318,0.318,0.318,0.3152,0.3091,0.3079,0.3065,0.3004,0.2946,0.2739,0.2513,0.2289,0.2064,0.1792,0.1535,0.1373,0.0,0.1315,0.1285,0.1296,0.1296,0.1296,0.1296,0.1296,0.1296,0.1296,0.0,0.0,0.0,0.0,0.0,0.0,0.0,0.4292,0.4337,0.4337,0.4475,0.4494,0.4365,0.4355,0.0,0.0,0.0,0.0,0.0,0.0,0.0,0.0,0.0,0.0,0.0,0.0,0.373,0.373,0.3799,0.0,0.0,0.0,0.0,0.0,0.0,0.3713,0.3686,0.0,0.0,0.0,0.0,0.0,0.0,0.0,0.0,0.0,0.0,0.0,0.0,0.0,0.0,0.0,0.3819,0.4118,0.0,0.0,0.5235,0.5458,0.5697,0.5683,0.5607,0.5483,0.508,0.4681,0.4545,0.0,0.4179,0.4527,0.512,0.5756,0.628,0.6746,0.6936,0.6552,0.0,0.0,0.5269,0.4621,0.4873,0.6707,0.6804,0.0,0.0,0.0,0.6179,0.4883,0.3781,0.318,0.318,0.318,0.318,0.318,0.318,0.3152,0.3091,0.3079,0.3084,0.3059,0.3,0.2924,0.2787,0.2377,0.2135,0.2015,0.1559,0.1316,0.0,0.1295,0.1307,0.1296,0.1296,0.1308,0.1282,0.1303,0.1308,0.1282,0.0,0.0,0.0,0.0,0.0,0.0,0.4294,0.4343,0.4353,0.4353,0.4572,0.465,0.4459,0.4451,0.4318,0.3942,0.0,0.0,0.0,0.0,0.0,0.0,0.0,0.0,0.0,0.0,0.3748,0.3792,0.3897,0.395,0.0,0.0,0.3938,0.3792,0.0,0.0,0.0,0.0,0.0,0.0,0.0,0.0,0.0,0.0,0.0,0.0,0.0,0.0,0.0,0.0,0.0,0.0,0.0,0.0,0.0,0.0,0.4879,0.5127,0.5294,0.5375,0.5396,0.5246,0.489,0.4542,0.0,0.0,0.4388,0.4801,0.5575,0.6251,0.6642,0.6999,0.7218,0.0,0.0,0.5669,0.5979,0.5399,0.5641,0.7588,0.0,0.789,0.0,0.8266,0.7126,0.4983,0.4083,0.3531,0.323,0.318,0.318,0.318,0.318,0.3152,0.3091,0.3097,0.3115,0.3095,0.3034,0.3004,0.3004,0.2528,0.2275,0.2151,0.1653,0.1407,0.0,0.1302,0.1313,0.1296,0.1296,0.131,0.1286,0.1305,0.131,0.1286,0.0,0.0,0.0,0.0,0.0,0.0,0.0,0.4404,0.4497,0.4497,0.4501,0.4589,0.4784,0.438,0.4178,0.4384,0.0,0.0,0.0,0.0,0.0,0.0,0.0,0.0,0.0,0.0,0.0,0.3792,0.3792,0.387,0.3994,0.3994,0.3938,0.3792,0.0,0.0,0.0,0.0,0.0,0.0,0.0,0.0,0.0,0.0,0.0,0.0,0.0,0.0,0.0,0.0,0.0,0.0,0.0,0.3796,0.3826,0.0,0.4334,0.4828,0.4949,0.5105,0.5105,0.4786,0.4514,0.424,0.0,0.0,0.474,0.4877,0.5858,0.6708,0.6708,0.6708,0.6937,0.7677,0.0,0.0,0.8421,0.8134,0.812,0.0,0.0,0.9237,0.9385,0.8534,0.7126,0.4983,0.4784,0.0,0.3281,0.318,0.318,0.318,0.318,0.3152,0.3091,0.309,0.3108,0.3095,0.3034,0.3004,0.3003,0.2673,0.2379,0.2199,0.1929,0.162,0.0,0.1305,0.1311,0.1296,0.1296,0.1297,0.1297,0.1296,0.1297,0.1297,0.0,0.0,0.0,0.0,0.0,0.0,0.0,0.4343,0.4361,0.4361,0.4448,0.4496,0.4473,0.4409,0.4324,0.4216,0.0,0.0,0.0,0.0,0.0,0.0,0.0,0.0,0.0,0.0,0.0,0.3948,0.4028,0.4153,0.4348,0.4348,0.4243,0.4072,0.3967,0.3866,0.0,0.0,0.0,0.0,0.0,0.0,0.0,0.0,0.0,0.0,0.0,0.0,0.0,0.0,0.0,0.0,0.0,0.0,0.0,0.4207,0.4309,0.4387,0.4588,0.4706,0.4687,0.4461,0.4459,0.4521,0.4584,0.4883,0.5344,0.6,0.6433,0.6708,0.6708,0.7003,0.7131,0.675,0.0,0.0,0.0,0.0,0.0,0.8966,0.9638,0.9949,0.0,0.0,0.7723,0.7027,0.5632,0.4634,0.4334,0.3581,0.318,0.318,0.318,0.3171,0.3152,0.3112,0.3081,0.311,0.3097,0.3045,0.3004,0.2712,0.2412,0.2195,0.187,0.1577,0.1303,0.1303,0.1314,0.1298,0.128,0.1301,0.1316,0.1296,0.1301,0.1313,0.0,0.0,0.0,0.0,0.0,0.0,0.0,0.4294,0.4294,0.4294,0.4373,0.4404,0.4382,0.4395,0.4381,0.4254,0.0,0.0,0.0,0.0,0.0,0.0,0.0,0.0,0.0,0.374,0.3866,0.3994,0.4146,0.4267,0.4382,0.4382,0.43,0.4132,0.4038,0.3944,0.0,0.0,0.0,0.0,0.0,0.0,0.4491,0.0,0.0,0.0,0.0,0.0,0.0,0.0,0.0,0.0,0.0,0.0,0.0,0.0,0.4322,0.4425,0.451,0.4436,0.4375,0.4387,0.4518,0.0,0.0,0.5473,0.5992,0.6579,0.6872,0.6999,0.6999,0.7101,0.712,0.6944,0.0,0.0,0.0,0.0,0.0,0.9274,0.0,0.0,0.0,0.9143,0.8425,0.8024,0.6778,0.5632,0.4834,0.4183,0.3632,0.323,0.318,0.318,0.318,0.3142,0.3125,0.3124,0.3089,0.3077,0.3037,0.281,0.2544,0.2285,0.1989,0.1695,0.0,0.1335,0.1307,0.1298,0.1318,0.1297,0.1311,0.1292,0.1297,0.1308,0.0,0.0,0.0,0.0,0.0,0.0,0.0,0.0,0.0,0.0,0.4294,0.4337,0.4461,0.4373,0.0,0.0,0.0,0.0,0.0,0.0,0.0,0.0,0.0,0.0,0.0,0.3783,0.3866,0.3994,0.4136,0.419,0.421,0.4187,0.4142,0.4024,0.4004,0.4001,0.4021,0.4137,0.4304,0.4491,0.4491,0.4491,0.0,0.0,0.0,0.0,0.0,0.0,0.0,0.0,0.0,0.0,0.0,0.0,0.0,0.0,0.0,0.0,0.0,0.4377,0.4204,0.4516,0.4698,0.0,0.0,0.0,0.0,0.6735,0.7167,0.7493,0.7475,0.7077,0.7036,0.7927,0.0,0.0,0.0,0.9197,0.0,0.0,0.9949,0.0,0.9769,0.9698,0.9225,0.8173,0.8021,0.7126,0.5133,0.4933,0.4433,0.3331,0.338,0.338,0.3331,0.3331,0.3328,0.3323,0.3153,0.3094,0.3086,0.2972,0.2736,0.0,0.2233,0.1927,0.1674,0.1393,0.1283,0.1297,0.1302,0.1303,0.1303,0.1303,0.1303,0.1303,0.0,0.0,0.0,0.0,0.0,0.0,0.0,0.0,0.0,0.0,0.0,0.4314,0.4355,0.4322,0.0,0.0,0.0,0.0,0.0,0.0,0.0,0.0,0.0,0.0,0.0,0.3878,0.3965,0.3994,0.4031,0.4189,0.4433,0.4156,0.4175,0.4375,0.4121,0.4058,0.4143,0.418,0.4304,0.4491,0.4491,0.4491,0.0,0.0,0.0,0.0,0.4491,0.4491,0.0,0.0,0.0,0.0,0.0,0.0,0.0,0.0,0.4293,0.4182,0.4696,0.0,0.459,0.4647,0.5275,0.5912,0.0,0.0,0.0,0.0,0.0,0.0,0.0,0.0,0.0,0.0,0.0,0.8157,0.8896,0.0,0.0,1.0232,1.0421,1.0292,0.9616,0.9766,0.9723,0.9274,0.8474,0.7773,0.7276,0.6476,0.5529,0.4433,0.5229,0.5279,0.4435,0.4435,0.4401,0.4337,0.3516,0.3072,0.3023,0.2951,0.2715,0.2407,0.2182,0.1925,0.1597,0.14,0.1303,0.1301,0.1309,0.1285,0.1285,0.1285,0.1285,0.132,0.0,0.0,0.0,0.0,0.0,0.0,0.0,0.0,0.0,0.0,0.0,0.0,0.0,0.0,0.0,0.0,0.0,0.0,0.0,0.0,0.0,0.0,0.0,0.0,0.0,0.3999,0.4063,0.3994,0.4155,0.4236,0.4256,0.4094,0.4104,0.426,0.4233,0.427,0.4345,0.4345,0.4392,0.4491,0.4491,0.0,0.0,0.0,0.0,0.0,0.4491,0.4491,0.0,0.419,0.4284,0.4453,0.0,0.0,0.0,0.0,0.4507,0.4668,0.4671,0.4572,0.4584,0.4995,0.5606,0.6155,0.6563,0.0,0.0,0.0,0.0,0.0,0.0,0.0,0.0,0.0,0.8055,0.0,0.0,0.0,0.9979,1.0412,1.0394,1.033,0.0,1.0035,0.9924,0.9772,0.9126,0.8524,0.8024,0.6971,0.5927,0.4834,0.5381,0.5381,0.4784,0.4784,0.4787,0.4698,0.3604,0.3063,0.3003,0.2946,0.2811,0.26,0.2371,0.2108,0.1815,0.1572,0.1429,0.13,0.1294,0.1307,0.1307,0.1307,0.1307,0.1301,0.0,0.0,0.0,0.0,0.0,0.0,0.0,0.0,0.0,0.0,0.0,0.0,0.0,0.0,0.0,0.0,0.0,0.0,0.0,0.0,0.0,0.0,0.0,0.4042,0.3902,0.4087,0.4126,0.3994,0.4276,0.4283,0.4028,0.396,0.395,0.4008,0.4307,0.447,0.4491,0.4491,0.4491,0.4491,0.4491,0.0,0.0,0.0,0.0,0.0,0.0,0.0,0.0,0.4148,0.4222,0.4412,0.4109,0.0,0.0,0.0,0.0,0.0,0.4729,0.4495,0.466,0.5464,0.5851,0.6193,0.6731,0.0,0.0,0.0,0.0,0.0,0.0,0.7512,0.0,0.0,0.0,0.0,0.963,0.9616,0.9804,1.0452,1.0278,0.0,1.0628,1.0311,1.0019,1.0019,0.9772,0.9225,0.8273,0.7372,0.6376,0.5334,0.5284,0.5284,0.5284,0.5133,0.5036,0.4939,0.3842,0.3205,0.3003,0.2946,0.2914,0.2857,0.0,0.0,0.2088,0.1798,0.1561,0.1336,0.1302,0.1304,0.1304,0.1304,0.1304,0.1303,0.0,0.0,0.0,0.0,0.0,0.0,0.0,0.0,0.0,0.0,0.0,0.0,0.0,0.0,0.0,0.0,0.0,0.0,0.0,0.0,0.0,0.0,0.417,0.4042,0.3902,0.3976,0.4014,0.3994,0.3934,0.4005,0.4153,0.3826,0.3782,0.4001,0.4176,0.4348,0.4491,0.4491,0.4491,0.4491,0.4491,0.0,0.0,0.0,0.0,0.0,0.0,0.0,0.0,0.4244,0.419,0.4247,0.4174,0.0,0.0,0.0,0.0,0.0,0.5179,0.5439,0.5778,0.5981,0.636,0.6736,0.7064,0.0,0.0,0.0,0.0,0.0,0.0,0.7617,0.7688,0.0,0.0,0.9644,0.0,0.0,1.057,1.0393,0.0,1.0744,1.009,1.0223,1.0216,1.0019,0.9772,0.9529,0.9377,0.9175,0.8623,0.7524,0.7524,0.7524,0.7524,0.6625,0.6119,0.6058,0.4892,0.3906,0.3003,0.2946,0.2891,0.2793,0.0,0.2379,0.2243,0.1795,0.1577,0.1535,0.1366,0.1296,0.1296,0.1296,0.1296,0.1292,0.0,0.0,0.0,0.0,0.0,0.0,0.0,0.0,0.0,0.0,0.0,0.0,0.0,0.0,0.0,0.0,0.0,0.0,0.0,0.0,0.0,0.0,0.41,0.3972,0.3902,0.4037,0.4035,0.3897,0.3967,0.4001,0.3974,0.3877,0.389,0.4004,0.4263,0.4399,0.4491,0.4491,0.4491,0.4491,0.0,0.0,0.0,0.0,0.0,0.0,0.0,0.0,0.0,0.0,0.4127,0.4167,0.4028,0.0,0.0,0.0,0.0,0.0,0.5981,0.6354,0.6589,0.6619,0.6563,0.6544,0.6776,0.0,0.0,0.0,0.0,0.0,0.0,0.0,0.811,0.8896,0.0,0.978,1.0338,1.0301,1.0272,0.0,0.0,1.0669,1.0627,1.0593,1.0507,1.0216,0.9969,0.9776,0.9628,0.9027,0.8524,0.8021,0.686,0.6808,0.7971,0.6835,0.6497,0.7016,0.5329,0.4212,0.368,0.3156,0.2903,0.2831,0.0,0.2565,0.2317,0.2007,0.1768,0.1574,0.1392,0.1318,0.1318,0.1318,0.1358,0.1433,0.0,0.0,0.0,0.0,0.0,0.0,0.0,0.0,0.0,0.0,0.0,0.0,0.0,0.0,0.0,0.0,0.0,0.0,0.0,0.0,0.4254,0.4254,0.399,0.3858,0.3902,0.4013,0.3976,0.3792,0.3967,0.3964,0.3792,0.391,0.3981,0.4058,0.4311,0.4457,0.4491,0.4491,0.4491,0.4491,0.0,0.0,0.0,0.0,0.0,0.0,0.0,0.0,0.0,0.0,0.0,0.0,0.0,0.0,0.0,0.5034,0.5614,0.6177,0.6745,0.7105,0.7274,0.7274,0.0,0.0,0.0,0.0,0.0,0.0,0.0,0.0,0.0,0.8089,0.0,0.9451,0.9686,0.9956,1.0423,1.0211,1.0187,1.0664,1.0584,1.0674,1.1151,1.0949,1.0703,1.0507,1.0167,0.992,0.9723,0.8837,0.8333,0.8372,0.6431,0.6314,0.8315,0.7006,0.6795,0.7677,0.5947,0.4833,0.4253,0.3544,0.3097,0.2918,0.2888,0.2691,0.2438,0.2203,0.1987,0.1728,0.1532,0.1454,0.1414,0.1327,0.1407,0.1565,0.0,0.0,0.0,0.0,0.0,0.0,0.0,0.0,0.0,0.0,0.0,0.0,0.0,0.0,0.0,0.0,0.0,0.0,0.0,0.0,0.4108,0.4108,0.3858,0.3766,0.3902,0.3732,0.3692,0.3792,0.3706,0.3706,0.3792,0.3802,0.3937,0.418,0.42,0.4338,0.4491,0.4491,0.4491,0.4491,0.4491,0.0,0.0,0.0,0.0,0.0,0.0,0.0,0.0,0.0,0.0,0.0,0.0,0.0,0.4865,0.491,0.6072,0.7358,0.7272,0.7554,0.7835,0.7835,0.739,0.0,0.742,0.748,0.0,0.8184,0.0,0.0,0.0,0.8524,0.8874,0.9498,0.9975,1.0442,1.1042,0.0,1.1099,1.1146,1.1137,1.1146,1.1189,1.0949,1.0801,1.0757,1.0314,0.9969,0.9969,0.9563,0.9352,0.9472,0.8085,0.7953,0.9272,0.7844,0.73,0.7677,0.7336,0.6192,0.43,0.421,0.3721,0.2913,0.2755,0.27,0.2641,0.2328,0.2164,0.2118,0.1925,0.1848,0.1803,0.1379,0.1387,0.1562,0.0,0.0,0.0,0.0,0.0,0.0,0.0,0.0,0.0,0.0,0.0,0.0,0.0,0.0,0.0,0.0,0.0,0.0,0.0,0.0,0.4108,0.4108,0.3836,0.3722,0.3766,0.3731,0.3716,0.3682,0.3716,0.3737,0.3795,0.396,0.4112,0.42,0.4341,0.444,0.4491,0.4491,0.4491,0.4491,0.4491,0.4491,0.0,0.0,0.0,0.0,0.0,0.0,0.0,0.0,0.4082,0.3944,0.0,0.0,0.506,0.5855,0.6689,0.7527,0.8217,0.841,0.8409,0.8409,0.8187,0.0,0.0,0.7698,0.7867,0.8007,0.8155,0.0,0.0,0.0,0.9252,0.9752,1.0232,1.0589,1.0957,1.1113,1.1194,1.1194,1.1194,1.1194,1.1194,1.1096,1.0849,1.0378,1.0289,1.0066,0.9656,0.9489,0.9433,0.9453,0.8164,0.8027,0.9194,0.7825,0.7566,0.8368,0.7607,0.6477,0.5144,0.4565,0.381,0.2914,0.2785,0.2728,0.2685,0.2398,0.2226,0.2196,0.1963,0.1887,0.1881,0.1644,0.1731,0.1944,0.0,0.0,0.0,0.0,0.0,0.0,0.0,0.0,0.0,0.0,0.0,0.0,0.0,0.0,0.0,0.0,0.0,0.0,0.0,0.3994,0.3972,0.3972,0.377,0.366,0.366,0.3718,0.3699,0.3604,0.3699,0.3771,0.387,0.4051,0.415,0.42,0.4351,0.4395,0.4351,0.4399,0.4395,0.4399,0.447,0.4491,0.0,0.0,0.0,0.0,0.0,0.0,0.0,0.0,0.4119,0.0,0.0,0.0,0.0,0.0,0.7328,0.8057,0.8884,0.8969,0.883,0.883,0.0,0.0,0.843,0.8422,0.8525,0.8536,0.867,0.8883,0.9126,0.0,0.0,0.0,1.0346,1.0673,1.0773,1.0972,1.1099,1.1099,1.1099,1.1099,1.1099,1.1099,1.0865,1.0324,1.0245,1.0027,0.956,0.9313,0.9261,0.9318,0.8322,0.8185,0.9007,0.8035,0.7952,0.8739,0.7949,0.7051,0.6118,0.5188,0.4239,0.3284,0.2911,0.2721,0.2659,0.2455,0.2375,0.2299,0.2087,0.2043,0.2077,0.1873,0.1952,0.2155,0.0,0.0,0.0,0.0,0.0,0.0,0.0,0.0,0.0,0.0,0.0,0.0,0.0,0.0,0.0,0.0,0.0,0.0,0.0,0.3766,0.3697,0.3697,0.3641,0.3604,0.3604,0.3604,0.3604,0.3604,0.3607,0.3734,0.3994,0.3998,0.4078,0.4197,0.4197,0.4139,0.4004,0.413,0.4197,0.4207,0.4429,0.4487,0.4491,0.0,0.0,0.0,0.0,0.0,0.0,0.0,0.4122,0.4069,0.0,0.0,0.0,0.0,0.7958,0.9095,0.9095,0.9101,0.9101,0.9095,0.0,0.0,0.9872,0.9804,0.9707,1.0125,0.9892,0.9602,0.9606,0.9432,0.0,0.9923,1.0341,1.0616,1.0616,1.0759,1.0891,1.0891,1.0891,1.0891,1.0891,1.0891,1.0801,1.063,1.0111,0.9786,0.9786,0.9146,0.8905,0.9088,0.8751,0.8645,0.8812,0.8649,0.8608,0.8608,0.8612,0.8076,0.7051,0.6118,0.5171,0.4159,0.314,0.2657,0.2601,0.2601,0.2601,0.2554,0.2296,0.2314,0.2425,0.1988,0.1932,0.2115,0.0,0.0,0.0,0.0,0.0,0.0,0.0,0.0,0.0,0.0,0.0,0.0,0.0,0.0,0.0,0.0,0.0,0.0,0.0,0.3722,0.3697,0.3697,0.3641,0.3604,0.3604,0.3699,0.3703,0.3604,0.3788,0.3934,0.4001,0.4233,0.43,0.42,0.4355,0.426,0.4004,0.413,0.4197,0.42,0.4267,0.4372,0.4491,0.0,0.0,0.0,0.0,0.0,0.0,0.0,0.0,0.0,0.0,0.0,0.0,0.7315,0.8166,0.886,0.9047,0.9239,0.0,0.9143,0.0,0.0,0.0,1.004,0.0,0.0,1.0015,0.9881,0.989,0.9852,0.0,0.9738,1.0088,1.0407,1.0407,1.0542,1.0669,1.0669,1.0669,1.0669,1.0669,1.0669,1.0538,1.0149,1.0081,0.9864,0.9407,0.9211,0.9026,0.8901,0.8556,0.8398,0.8446,0.8398,0.8373,0.8373,0.8551,0.8076,0.7095,0.683,0.5786,0.42,0.3856,0.3276,0.2598,0.2555,0.2538,0.2535,0.2438,0.2431,0.2464,0.229,0.2295,0.2349,0.0,0.0,0.0,0.0,0.0,0.0,0.0,0.0,0.0,0.0,0.421,0.0,0.0,0.0,0.0,0.0,0.0,0.0,0.0,0.0,0.366,0.366,0.3622,0.3628,0.3686,0.3771,0.3778,0.3754,0.391,0.4028,0.4089,0.4233,0.4239,0.4132,0.4185,0.4092,0.3853,0.3981,0.4041,0.4051,0.4147,0.4274,0.4385,0.0,0.0,0.0,0.0,0.0,0.0,0.0,0.0,0.0,0.0,0.0,0.0,0.7687,0.8428,0.8921,0.9191,0.9384,0.0,0.9306,0.9781,1.0388,1.0755,0.0,0.0,0.0,1.0605,1.0263,1.0362,1.0072,0.0,0.9771,1.005,1.0289,1.0203,1.0369,1.0497,1.0497,1.0497,1.0497,1.0497,1.0497,1.0326,0.9981,0.987,0.9651,0.9255,0.9044,0.8874,0.8609,0.8402,0.8256,0.8182,0.8178,0.8178,0.8182,0.8296,0.808,0.7578,0.7182,0.6189,0.4652,0.381,0.314,0.2597,0.2535,0.2525,0.2544,0.252,0.2511,0.2506,0.2469,0.2463,0.2462,0.0,0.0,0.0,0.0,0.0,0.0,0.0,0.0,0.0,0.0,0.3924,0.388,0.0,0.0,0.0,0.0,0.0,0.0,0.0,0.0,0.3604,0.3604,0.3604,0.3668,0.3788,0.3805,0.3887,0.4014,0.4014,0.4078,0.4174,0.4075,0.4001,0.3967,0.3883,0.3737,0.3614,0.3744,0.3802,0.3816,0.4068,0.4164,0.4217,0.4372,0.0,0.0,0.0,0.0,0.0,0.0,0.0,0.0,0.5567,0.6212,0.6861,0.7965,0.8674,0.9113,0.9372,0.9474,0.0,0.9516,0.9943,0.0,1.1063,1.1543,1.1952,1.2195,0.0,1.0819,1.0994,1.0304,0.98,0.9966,1.0161,1.0217,1.0023,1.0165,1.0289,1.0289,1.0289,1.0289,1.0289,1.023,1.0184,1.0009,0.9577,0.9289,0.9266,0.8833,0.8514,0.8264,0.8251,0.8162,0.7992,0.7992,0.7992,0.7992,0.8004,0.8101,0.8221,0.7406,0.6428,0.5369,0.3434,0.262,0.2589,0.2533,0.2544,0.2587,0.2531,0.2511,0.2511,0.2511,0.2471,0.2426,0.0,0.0,0.0,0.0,0.0,0.0,0.0,0.0,0.0,0.0,0.0,0.0,0.0,0.0,0.0,0.0,0.0,0.0,0.0,0.0,0.3604,0.3604,0.3604,0.3668,0.3788,0.391,0.4021,0.4147,0.4147,0.4129,0.4045,0.4132,0.4045,0.3849,0.4031,0.3913,0.3621,0.386,0.39,0.3795,0.3863,0.3937,0.4048,0.4104,0.4163,0.0,0.0,0.0,0.0,0.0,0.0,0.0,0.5914,0.6529,0.7165,0.803,0.8542,0.8806,0.8866,0.9191,0.0,0.0,1.0214,1.1087,1.1624,1.1806,1.1881,1.171,1.1819,1.1717,1.1114,1.082,1.0534,1.0062,1.0037,1.0047,1.0004,1.0037,1.0066,1.0066,1.0066,1.0066,1.0066,0.9875,0.9828,0.9985,0.9564,0.9234,0.9058,0.8802,0.8491,0.8073,0.7943,0.7894,0.7853,0.7853,0.7853,0.7857,0.7951,0.8032,0.8073,0.7862,0.6898,0.5286,0.4036,0.3142,0.2529,0.2516,0.2518,0.2529,0.2515,0.2511,0.2511,0.2511,0.2471,0.2383,0.0,0.0,0.0,0.0,0.0,0.0,0.0,0.0,0.0,0.0,0.0,0.0,0.0,0.0,0.0,0.0,0.0,0.0,0.0,0.0,0.0,0.0,0.3604,0.3668,0.3788,0.387,0.396,0.4112,0.4112,0.4109,0.4102,0.4109,0.3991,0.3795,0.3887,0.3799,0.3614,0.3744,0.3765,0.372,0.4021,0.4171,0.4236,0.4309,0.4389,0.4433,0.4377,0.0,0.0,0.0,0.0,0.0,0.0,0.0,0.7291,0.8215,0.8512,0.8572,0.8824,0.0,0.0,0.9949,0.0,1.1062,1.173,1.188,1.1882,1.1723,1.1853,1.1828,1.1354,1.1009,1.069,1.0357,1.0125,0.9994,0.9994,0.9994,0.9994,0.9994,0.9994,0.9956,0.9814,0.9667,0.9606,0.9649,0.936,0.9068,0.886,0.8683,0.8375,0.7931,0.7845,0.7755,0.7665,0.7665,0.7665,0.7665,0.7715,0.776,0.776,0.7442,0.6498,0.5089,0.4203,0.3288,0.2511,0.2511,0.2511,0.2511,0.2511,0.2511,0.2507,0.2477,0.2447,0.2378,0.0,0.0,0.0,0.0,0.0,0.0,0.0,0.0,0.0,0.0,0.0,0.0,0.0,0.0,0.0,0.0,0.0,0.0,0.0,0.0,0.0,0.0,0.3624,0.3696,0.3788,0.3819,0.3894,0.3994,0.3994,0.4045,0.4142,0.4014,0.39,0.3751,0.3679,0.3624,0.3604,0.3628,0.3669,0.3766,0.426,0.4453,0.4446,0.4586,0.4601,0.4542,0.4559,0.4607,0.4779,0.5772,0.0,0.0,0.0,0.0,0.7477,0.8421,0.8554,0.8487,0.8969,0.0,0.9462,1.0388,1.0653,0.0,1.1579,1.1742,1.1742,1.1742,1.1705,1.1622,1.1539,1.1074,1.0648,1.0482,1.0186,0.9976,0.9885,0.9885,0.9885,0.9885,0.9885,0.9776,0.9564,0.9517,0.9437,0.9291,0.9065,0.8864,0.8661,0.8409,0.813,0.7706,0.7677,0.7588,0.7433,0.7429,0.7429,0.7429,0.7429,0.7407,0.7443,0.6887,0.6103,0.5157,0.4338,0.3521,0.2705,0.2549,0.2511,0.2511,0.2511,0.2511,0.2504,0.2454,0.2428,0.2375,0.0,0.0,0.0,0.0,0.0,0.0,0.0,0.0,0.0,0.0,0.3604,0.0,0.0,0.0,0.0,0.0,0.0,0.0,0.0,0.0,0.0,0.0,0.372,0.3771,0.3792,0.3921,0.3974,0.3994,0.3994,0.3961,0.3849,0.3832,0.3744,0.3634,0.374,0.3716,0.361,0.3733,0.3937,0.421,0.43,0.426,0.4176,0.4311,0.4163,0.3994,0.4611,0.4998,0.5337,0.6223,0.6854,0.0,0.0,0.0,0.8207,0.8591,0.868,0.8722,0.0,0.0,0.9883,0.0,1.0515,1.0773,0.0,0.0,1.122,0.0,1.1546,1.1733,1.1324,1.119,1.0887,1.0116,0.9952,0.9787,0.9449,0.9408,0.9408,0.9408,0.9408,0.9398,0.9329,0.9169,0.9126,0.9272,0.8963,0.8642,0.8449,0.808,0.77,0.7297,0.718,0.7086,0.7057,0.7057,0.7057,0.7057,0.7057,0.7143,0.7223,0.7135,0.6715,0.6009,0.5196,0.438,0.356,0.2821,0.2511,0.2511,0.2511,0.2511,0.251,0.2501,0.2465,0.2381,0.0,0.0,0.0,0.0,0.0,0.0,0.0,0.0,0.0,0.0,0.0,0.3376,0.0,0.0,0.0,0.0,0.0,0.0,0.0,0.0,0.0,0.0,0.0,0.3696,0.3696,0.3737,0.3775,0.3775,0.3775,0.3737,0.3696,0.3696,0.3662,0.3607,0.3668,0.3613,0.3515,0.3913,0.4032,0.4005,0.4613,0.4701,0.4509,0.4558,0.4675,0.4824,0.5057,0.5415,0.5954,0.6903,0.7396,0.7735,0.8359,0.0,0.0,0.0,0.8818,0.8764,0.9023,0.9384,0.9751,0.0,1.016,1.0316,1.0575,0.0,1.0894,1.0894,1.1196,1.1438,1.1398,1.1261,1.1071,1.0673,1.0227,0.9826,0.9658,0.945,0.9282,0.9282,0.9282,0.9239,0.9126,0.9037,0.9011,0.8978,0.8807,0.858,0.8257,0.7974,0.7608,0.7215,0.7064,0.6988,0.6988,0.6988,0.6988,0.6988,0.6988,0.7033,0.7074,0.7074,0.6771,0.6163,0.5815,0.5234,0.4455,0.4068,0.364,0.321,0.321,0.2938,0.2506,0.2471,0.2648,0.2953,0.0,0.0,0.0,0.0,0.0,0.0,0.0,0.0,0.0,0.0,0.0,0.0,0.0,0.0,0.0,0.0,0.0,0.0,0.0,0.0,0.0,0.0,0.0,0.0,0.3604,0.3638,0.3638,0.3604,0.3604,0.3604,0.3604,0.3604,0.3604,0.3604,0.3604,0.3622,0.3638,0.3946,0.4096,0.4158,0.4754,0.4956,0.4893,0.4937,0.5253,0.5652,0.569,0.6059,0.6678,0.7621,0.7968,0.8101,0.8859,0.8963,0.0,0.0,0.0,0.0,0.0,0.0,0.9492,0.9823,0.9859,0.9895,0.0,0.0,1.0587,0.0,1.0828,1.1075,1.1248,1.1224,1.1157,1.1044,1.0489,0.9977,0.9782,0.9492,0.9247,0.9167,0.9119,0.903,0.8878,0.8817,0.8718,0.8557,0.8543,0.8407,0.8043,0.7798,0.752,0.7126,0.6944,0.6853,0.6853,0.6853,0.6853,0.6853,0.6853,0.6878,0.6922,0.6918,0.6724,0.6397,0.6166,0.5768,0.5224,0.4964,0.4545,0.399,0.3797,0.3337,0.2713,0.2474,0.2837,0.3396,0.0,0.0,0.0,0.0,0.0,0.0,0.0,0.0,0.0,0.0,0.0,0.0,0.0,0.0,0.3192,0.3214,0.3214,0.3262,0.3398,0.3534,0.3604,0.0,0.0,0.0,0.3607,0.3737,0.3737,0.3604,0.3604,0.3604,0.3604,0.3604,0.3604,0.3604,0.3604,0.384,0.421,0.3682,0.4136,0.5149,0.4447,0.452,0.5111,0.5294,0.5536,0.5882,0.6577,0.0,0.0,0.8375,0.8651,0.8693,0.9017,0.9089,0.9083,0.0,0.0,0.0,0.0,0.9312,0.0,0.9775,0.9721,0.0,0.0,0.0,1.0316,1.0316,1.0521,1.0749,1.0725,1.0936,1.0966,1.059,1.0515,1.0219,0.9433,0.9319,0.9161,0.877,0.8566,0.8448,0.8434,0.825,0.8158,0.8148,0.8148,0.8037,0.7819,0.7498,0.7185,0.6937,0.6601,0.6444,0.6444,0.6444,0.6444,0.6444,0.6444,0.6538,0.6708,0.6731,0.6798,0.6909,0.6075,0.5825,0.5864,0.493,0.4583,0.4565,0.3818,0.3481,0.3368,0.2646,0.2869,0.3481,0.0,0.0,0.0,0.0,0.0,0.0,0.0,0.0,0.0,0.0,0.0,0.0,0.0,0.2998,0.3018,0.3078,0.3148,0.3214,0.3262,0.3398,0.3464,0.3464,0.0,0.3699,0.374,0.3699,0.3699,0.374,0.3648,0.3604,0.3604,0.3604,0.3604,0.3604,0.3604,0.3707,0.3917,0.3877,0.4288,0.4965,0.4803,0.4985,0.539,0.5634,0.0,0.0,0.0,0.0,0.0,0.0,0.0,0.0,0.0,0.0,0.0,0.0,0.0,0.0,0.0,0.0,0.0,0.9606,0.9582,0.9564,0.9751,0.9925,1.0045,1.0045,1.025,1.0436,1.0436,1.0785,1.0983,1.0668,1.0425,1.0003,0.9341,0.8995,0.8706,0.8338,0.824,0.8198,0.8198,0.8158,0.8115,0.8115,0.8115,0.8023,0.7826,0.758,0.7281,0.6918,0.6713,0.6515,0.6387,0.6387,0.6387,0.6387,0.6387,0.6453,0.6518,0.6513,0.6546,0.6611,0.6301,0.6352,0.66,0.6255,0.5794,0.5338,0.5161,0.4699,0.4061,0.3454,0.3879,0.4649,0.0,0.0,0.0,0.0,0.0,0.0,0.0,0.0,0.0,0.0,0.0,0.0,0.0,0.0,0.2964,0.3066,0.3109,0.3143,0.3188,0.3331,0.3398,0.3398,0.3534,0.3668,0.3788,0.3675,0.3672,0.0,0.3672,0.3604,0.3604,0.3604,0.3578,0.3534,0.3534,0.3638,0.3832,0.382,0.0,0.4688,0.0,0.0,0.558,0.0,0.0,0.0,0.0,0.0,0.0,0.0,0.0,0.0,0.0,0.0,0.0,0.0,0.0,0.0,0.9492,0.0,0.0,0.0,0.9372,0.9372,0.9372,0.0,0.9775,0.9775,0.9985,1.0166,1.0166,1.0521,1.0755,1.0581,1.0337,0.9994,0.9443,0.9031,0.8684,0.8297,0.8093,0.8015,0.8015,0.7949,0.7906,0.7906,0.7906,0.0,0.7712,0.751,0.7212,0.6848,0.6679,0.6548,0.6387,0.6477,0.6477,0.6387,0.6481,0.6477,0.6387,0.6387,0.6387,0.6387,0.6387,0.6591,0.6898,0.6833,0.6491,0.6022,0.5863,0.5372,0.4739,0.4133,0.4566,0.5359,0.0,0.0,0.0,0.0,0.0,0.0,0.0,0.0,0.0,0.0,0.0,0.0,0.0,0.0,0.0,0.3183,0.3065,0.3044,0.3195,0.3316,0.3398,0.3398,0.3512,0.3649,0.3795,0.3682,0.3679,0.0,0.0,0.0,0.0,0.0,0.3534,0.3398,0.3398,0.3634,0.4034,0.0,0.3671,0.442,0.0,0.4908,0.5705,0.0,0.0,0.0,0.8138,0.8433,0.0,0.9011,0.0,0.0,0.0,0.0,0.0,0.0,0.0,0.0,0.0,0.0,0.0,0.0,0.0,0.0,0.9107,0.0,0.9504,0.951,0.9709,0.9883,0.9895,1.01,1.0274,1.0274,1.028,1.0141,0.9753,0.9399,0.9044,0.8629,0.8132,0.7807,0.7807,0.7617,0.7489,0.7489,0.7489,0.7489,0.7489,0.7297,0.7036,0.6708,0.6515,0.6387,0.6387,0.6583,0.6583,0.6387,0.6603,0.6595,0.6387,0.6387,0.6387,0.6387,0.6387,0.6522,0.6676,0.6493,0.6526,0.6615,0.5779,0.5428,0.5356,0.4677,0.485,0.5466,0.0,0.0,0.0,0.0,0.0,0.0,0.0,0.0,0.0,0.0,0.0,0.0,0.0,0.0,0.3045,0.3183,0.3024,0.2962,0.3039,0.3086,0.3101,0.3101,0.3328,0.3556,0.3801,0.3762,0.3805,0.0,0.0,0.0,0.0,0.0,0.0,0.0,0.3192,0.3189,0.3306,0.3239,0.0,0.5098,0.4904,0.5498,0.0,0.0,0.0,0.0,0.0,0.8902,0.8999,0.0,0.8848,0.8566,0.0,0.0,0.0,0.0,0.0,0.0,0.9191,0.0,0.0,0.0,0.0,0.0,0.9402,0.9306,0.9269,0.9474,0.9414,0.9384,0.9588,0.9678,0.9733,0.9733,0.9889,0.9809,0.9284,0.9129,0.8827,0.8235,0.8047,0.7848,0.7612,0.7527,0.7489,0.0,0.7489,0.7489,0.7489,0.7171,0.6946,0.6848,0.6552,0.6387,0.6387,0.6465,0.6465,0.6387,0.6469,0.6469,0.6387,0.6387,0.6387,0.6387,0.6387,0.6448,0.6489,0.6407,0.6448,0.6472,0.6363,0.6264,0.6082,0.5661,0.585,0.6272,0.0,0.0,0.0,0.0,0.0,0.0,0.0,0.0,0.0,0.0,0.0,0.0,0.0,0.0,0.0,0.3183,0.3027,0.2919,0.2994,0.2996,0.3012,0.3012,0.3262,0.3527,0.3782,0.3798,0.3866,0.0,0.0,0.0,0.0,0.0,0.0,0.0,0.0,0.0,0.0,0.0,0.0,0.0,0.535,0.0,0.0,0.7403,0.7866,0.0,0.0,0.0,0.8969,0.9197,0.8993,0.0,0.0,0.0,0.0,0.0,0.0,0.0,0.0,0.0,0.0,0.0,0.0,0.0,0.9203,0.9227,0.9318,0.9486,0.9384,0.9324,0.9486,0.942,0.9342,0.9342,0.9378,0.9362,0.9242,0.9081,0.8791,0.8279,0.8084,0.7857,0.7521,0.7489,0.7489,0.7489,0.7489,0.7489,0.7489,0.7204,0.6979,0.6913,0.6646,0.6482,0.6387,0.6489,0.6489,0.6387,0.6497,0.6493,0.6387,0.6387,0.6387,0.6387,0.6387,0.6387,0.6387,0.6387,0.6387,0.6395,0.6538,0.6513,0.6386,0.6287,0.6433,0.6635,0.0,0.0,0.0,0.0,0.0,0.0,0.0,0.0,0.0,0.0,0.0,0.0,0.0,0.0,0.0,0.0,0.3034,0.2957,0.3032,0.3023,0.0,0.299,0.3223,0.3474,0.376,0.3764,0.0,0.0,0.0,0.0,0.0,0.0,0.0,0.0,0.0,0.0,0.0,0.0,0.0,0.4483,0.5698,0.6354,0.0,0.0,0.7792,0.8116,0.8436,0.8643,0.8807,0.9286,0.9324,0.0,0.0,0.0,0.0,0.0,0.9293,0.0,0.0,0.0,0.0,0.0,0.8927,0.0,0.8836,0.9125,0.9412,0.9504,0.9492,0.9468,0.9468,0.9263,0.9095,0.9095,0.8878,0.8872,0.936,0.916,0.8852,0.8533,0.821,0.7892,0.7587,0.7526,0.7489,0.7489,0.7489,0.7489,0.7489,0.7297,0.7106,0.6913,0.6778,0.6609,0.642,0.657,0.6558,0.6392,0.6574,0.6566,0.6388,0.6379,0.6387,0.6387,0.6387,0.6387,0.6387,0.6387,0.6387,0.6387,0.6387,0.6387,0.644,0.6627,0.6692,0.6717,0.0,0.0,0.0,0.0,0.0,0.0,0.0,0.0,0.0,0.0,0.0,0.0,0.0,0.0,0.0,0.0,0.3235,0.3202,0.3324,0.3131,0.0,0.3012,0.3047,0.32,0.3479,0.3579,0.0,0.0,0.0,0.0,0.0,0.0,0.0,0.0,0.0,0.0,0.0,0.0,0.0,0.5464,0.5986,0.6542,0.7114,0.7676,0.7957,0.8088,0.8683,0.8922,0.8983,0.9122,0.9293,0.9402,0.0,0.0,0.0,0.9149,0.0,0.0,0.0,0.0,0.0,0.0,0.9071,0.0,0.9269,0.9101,0.8987,0.9426,0.9336,0.9179,0.9179,0.9131,0.9095,0.9095,0.8878,0.874,0.8848,0.8801,0.8703,0.8604,0.8278,0.8038,0.7902,0.7657,0.7489,0.7489,0.7489,0.7489,0.7489,0.7297,0.7106,0.6913,0.6778,0.6609,0.642,0.6453,0.6375,0.6233,0.6384,0.6375,0.6237,0.6351,0.6387,0.6387,0.6387,0.6387,0.6387,0.6387,0.6387,0.6387,0.6387,0.6387,0.644,0.6615,0.6684,0.67,0.0,0.0,0.0,0.0,0.0,0.0,0.0,0.0,0.0,0.0,0.0,0.0,0.0,0.0,0.0,0.0,0.0,0.0,0.0,0.0,0.0,0.0,0.0,0.0,0.0,0.0,0.0,0.0,0.0,0.0,0.0,0.0,0.0,0.0,0.0,0.0,0.0,0.0,0.5151,0.5739,0.6271,0.0,0.724,0.7611,0.7852,0.8052,0.8571,0.8964,0.9238,0.9129,0.9191,0.0,0.9306,0.9209,0.9125,0.0,0.9306,0.9306,0.0,0.0,0.0,0.9107,0.0,0.0,0.0,0.9113,0.9191,0.9462,0.9293,0.9095,0.9095,0.8987,0.8903,0.8903,0.8686,0.856,0.8686,0.871,0.8687,0.8617,0.83,0.808,0.7994,0.7689,0.7489,0.7489,0.7489,0.7489,0.7489,0.7396,0.7204,0.6913,0.6843,0.6679,0.642,0.6327,0.6269,0.6207,0.6152,0.6184,0.6211,0.6273,0.6331,0.6387,0.6387,0.6387,0.6387,0.6387,0.6387,0.6387,0.6387,0.6387,0.644,0.6611,0.6714,0.6684,0.2821,0.0,0.0,0.0,0.0,0.0,0.0,0.0,0.0,0.0,0.0,0.0,0.0,0.0,0.0,0.0,0.0,0.0,0.0,0.0,0.0,0.0,0.0,0.3419,0.0,0.0,0.0,0.0,0.0,0.0,0.0,0.0,0.0,0.0,0.0,0.0,0.0,0.0,0.0,0.5906,0.0,0.7012,0.7213,0.7413,0.7657,0.7954,0.8349,0.8937,0.948,0.9257,0.9179,0.9215,0.9444,0.936,0.0,0.0,0.0,0.0,0.0,0.0,0.0,0.0,0.0,0.8933,0.0,0.0,0.0,0.9472,0.0,0.0,0.0,0.0,0.0,0.0,0.0,0.0,0.0,0.8632,0.0,0.8698,0.831,0.8057,0.8057,0.769,0.7413,0.7375,0.7408,0.7432,0.7432,0.7432,0.727,0.6857,0.6857,0.6677,0.6319,0.62,0.611,0.6073,0.5967,0.5992,0.6158,0.6195,0.6278,0.6387,0.6387,0.6387,0.6387,0.6387,0.6387,0.6387,0.6387,0.6387,0.6436,0.6574,0.6627,0.6627,0.2551,0.2551,0.0,0.0,0.0,0.0,0.0,0.0,0.0,0.0,0.0,0.0,0.0,0.0,0.0,0.0,0.0,0.0,0.3542,0.0,0.0,0.0,0.0,0.0,0.3419,0.0,0.0,0.0,0.0,0.0,0.0,0.0,0.0,0.0,0.3816,0.0,0.0,0.0,0.6032,0.0,0.6955,0.7171,0.0,0.7413,0.7526,0.7657,0.8284,0.8937,0.951,0.0,0.9468,0.9474,0.0,0.9492,0.9474,0.9504,0.0,0.0,0.0,0.0,0.0,0.0,0.8728,0.0,0.9238,0.0,0.9215,0.9462,0.0,0.9396,0.0,0.0,0.0,0.0,0.0,0.0,0.8297,0.8333,0.8519,0.898,0.8328,0.7921,0.8145,0.76,0.7147,0.6906,0.7088,0.7223,0.7223,0.7223,0.7066,0.675,0.6719,0.6479,0.5949,0.5929,0.5835,0.5673,0.5819,0.59,0.5951,0.6106,0.6278,0.6387,0.6387,0.6387,0.6387,0.6387,0.6387,0.6387,0.6387,0.6387,0.6387,0.644,0.6448,0.6448,0.253,0.2373,0.0,0.0,0.0,0.0,0.0,0.0,0.0,0.0,0.0,0.0,0.0,0.0,0.0,0.0,0.0,0.3641,0.0,0.0,0.0,0.0,0.0,0.0,0.0,0.0,0.0,0.0,0.3438,0.0,0.0,0.0,0.0,0.0,0.3962,0.0,0.5106,0.0,0.6283,0.0,0.0,0.0,0.0,0.7455,0.7754,0.8117,0.8382,0.8937,0.9516,0.0,0.9516,0.0,0.0,0.0,0.0,0.9516,0.0,0.0,0.0,0.0,0.0,0.0,0.0,0.0,0.9233,0.0,0.9372,0.0,0.0,0.0,0.0,0.0,0.0,0.0,0.8297,0.0,0.0,0.0,0.8315,0.0,0.0,0.0,0.7918,0.7471,0.7073,0.681,0.7045,0.7138,0.6988,0.7128,0.7096,0.6813,0.6813,0.6648,0.6317,0.5985,0.581,0.5702,0.5592,0.5599,0.573,0.5803,0.602,0.6294,0.6294,0.6319,0.6387,0.6387,0.6387,0.6387,0.6387,0.6387,0.6387,0.6387,0.6387,0.6387,0.2418,0.0,0.0,0.0,0.0,0.0,0.0,0.0,0.0,0.0,0.0,0.0,0.3067,0.3212,0.0,0.0,0.3641,0.3679,0.0,0.0,0.3798,0.0,0.0,0.0,0.0,0.0,0.0,0.0,0.0,0.0,0.0,0.0,0.0,0.0,0.0,0.4569,0.5245,0.0,0.6464,0.7194,0.7251,0.7361,0.7489,0.7489,0.7922,0.8517,0.8517,0.8937,0.9516,0.9516,0.9516,0.0,0.9516,0.0,0.9516,0.0,0.0,0.0,0.9218,0.0,0.0,0.0,0.0,0.0,0.0,0.0,0.0,0.0,0.0,0.0,0.0,0.0,0.0,0.0,0.0,0.8249,0.0,0.8201,0.0,0.0,0.0,0.0,0.0,0.7405,0.7112,0.6788,0.6983,0.6984,0.6716,0.6908,0.6955,0.6826,0.6826,0.6732,0.6542,0.6096,0.5879,0.5822,0.5521,0.5469,0.5612,0.5612,0.5807,0.6207,0.6207,0.6282,0.6387,0.6387,0.6387,0.6387,0.6387,0.6387,0.6387,0.6387,0.6387,0.6387,0.2105,0.2014,0.0,0.0,0.0,0.0,0.0,0.0,0.0,0.0,0.0,0.0,0.0,0.0,0.0,0.0,0.0,0.3731,0.3624,0.0,0.3734,0.0,0.0,0.3728,0.0,0.0,0.0,0.0,0.0,0.0,0.0,0.0,0.0,0.0,0.4018,0.4569,0.5252,0.5918,0.6594,0.7209,0.7403,0.7484,0.7489,0.0,0.7922,0.8517,0.8517,0.0,0.0,0.9516,0.9516,0.0,0.0,0.0,0.0,0.0,0.0,0.0,0.0,0.0,0.0,0.9886,0.0,0.0,0.0,0.0,0.9949,0.0,0.0,0.0,0.0,0.0,0.0,0.0,0.0,0.0,0.0,0.0,0.0,0.0,0.0,0.0,0.0,0.7393,0.7143,0.673,0.6769,0.6712,0.6525,0.652,0.6556,0.6607,0.6611,0.6556,0.6414,0.6207,0.6019,0.5879,0.5688,0.5609,0.5612,0.5612,0.5807,0.6207,0.6207,0.6282,0.6387,0.6387,0.6387,0.6387,0.6387,0.6387,0.6387,0.6387,0.6387,0.6387,0.0,0.0,0.0,0.0,0.0,0.0,0.0,0.1913,0.0,0.0,0.2809,0.0,0.0,0.3669,0.3789,0.0,0.0,0.3892,0.3933,0.3898,0.0,0.0,0.0,0.3793,0.0,0.0,0.0,0.0,0.0,0.0,0.0,0.0,0.0,0.0,0.0,0.4716,0.0,0.0,0.0,0.0,0.0,0.7489,0.7489,0.0,0.7787,0.8182,0.842,0.8802,0.0,0.9414,0.9516,0.9516,0.9516,0.9516,0.9516,0.9516,0.9698,0.9875,0.0,0.0,1.0297,1.0147,0.0,0.0,0.0,0.0,0.0,0.0,0.0,0.0,0.0,0.0,0.0,0.0,0.0,0.0,0.0,0.0,0.8291,0.8297,0.0,0.0,0.0,0.0,0.7004,0.6727,0.6648,0.652,0.6318,0.6431,0.6571,0.6722,0.6731,0.6796,0.6931,0.6474,0.6196,0.6167,0.5772,0.5597,0.5605,0.5469,0.5607,0.6008,0.6008,0.6238,0.6609,0.6609,0.6609,0.6609,0.6679,0.6679,0.6609,0.6609,0.6609,0.6609,0.2295,0.0,0.0,0.0,0.0,0.0,0.0,0.0,0.0,0.0,0.3126,0.0,0.3954,0.0,0.4009,0.0,0.4054,0.4042,0.399,0.3965,0.0,0.3787,0.3814,0.0,0.0,0.0,0.0,0.0,0.0,0.3695,0.0,0.0,0.0,0.0,0.0,0.4559,0.5252,0.5884,0.657,0.0,0.0,0.7489,0.0,0.0,0.7722,0.8052,0.0,0.87,0.9049,0.9382,0.9516,0.9516,0.9516,0.9644,0.9798,0.9798,1.0142,1.0519,1.0424,1.073,0.0,1.0828,1.107,0.0,1.126,0.0,1.1074,0.0,0.0,0.0,0.0,0.0,0.0,0.0,0.0,0.0,0.0,0.8105,0.0,0.7919,0.7992,0.797,0.0,0.7397,0.7012,0.6722,0.658,0.6417,0.6214,0.6393,0.6567,0.6674,0.6754,0.692,0.7185,0.6659,0.6376,0.6411,0.597,0.5704,0.5681,0.5612,0.5752,0.6073,0.6167,0.64,0.6778,0.6778,0.6778,0.6778,0.6881,0.6843,0.6778,0.6778,0.6778,0.6811,0.2456,0.2069,0.0,0.0,0.18,0.0,0.0,0.0,0.272,0.0,0.3517,0.3986,0.4302,0.4428,0.4395,0.4164,0.4246,0.4159,0.3832,0.399,0.0,0.0,0.3789,0.3803,0.3615,0.0,0.0,0.0,0.0,0.0,0.0,0.0,0.0,0.0,0.3815,0.0,0.4779,0.5419,0.6085,0.6773,0.7293,0.7489,0.7489,0.7489,0.7689,0.8019,0.8349,0.87,0.9022,0.935,0.9484,0.9516,0.9516,0.9894,1.0301,1.0339,1.0674,1.1076,1.1263,1.1331,1.148,1.1901,1.1998,0.0,0.0,0.0,1.1518,0.0,0.0,0.0,0.0,0.0,0.0,0.0,0.0,0.0,0.0,0.0,0.7913,0.7901,0.8123,0.8088,0.757,0.7439,0.7198,0.6744,0.658,0.6417,0.0,0.6393,0.6501,0.6501,0.6699,0.6906,0.7171,0.6738,0.6542,0.6584,0.6187,0.5923,0.5827,0.6017,0.6215,0.6414,0.6599,0.6794,0.6913,0.6913,0.6946,0.6979,0.6979,0.7012,0.7007,0.6946,0.6913,0.704,0.2368,0.2075,0.1889,0.0,0.1826,0.1811,0.0,0.0,0.0,0.0,0.4037,0.462,0.4785,0.4779,0.4681,0.4564,0.4495,0.0,0.0,0.0,0.0,0.3985,0.3922,0.3919,0.3979,0.3832,0.3797,0.389,0.0,0.0,0.383,0.0,0.0,0.0,0.0,0.0,0.5454,0.562,0.631,0.7293,0.7456,0.7489,0.7489,0.0,0.7554,0.7657,0.8019,0.8344,0.8673,0.9022,0.9285,0.958,0.9958,1.018,1.0364,1.0706,1.1178,1.16,1.1666,1.1959,1.2232,1.2053,1.2218,1.2377,0.0,0.0,0.0,0.0,0.0,0.0,0.0,0.0,0.0,0.0,0.0,0.0,0.0,0.0,0.0,0.7925,0.7961,0.7946,0.78,0.7415,0.7127,0.7004,0.6692,0.6417,0.6214,0.0,0.6501,0.6501,0.6558,0.6685,0.6901,0.6638,0.6501,0.6519,0.6179,0.5978,0.5955,0.6041,0.6215,0.6414,0.6599,0.6858,0.7106,0.7106,0.7428,0.7879,0.8042,0.8393,0.8683,0.7559,0.7232,0.7461,0.258,0.2204,0.0,0.1981,0.0,0.0,0.2027,0.2575,0.0,0.3336,0.4063,0.0,0.4849,0.4893,0.4866,0.4743,0.467,0.0,0.4384,0.0,0.0,0.4013,0.394,0.3889,0.3884,0.378,0.0,0.3854,0.0,0.0,0.3942,0.0,0.0,0.0,0.0,0.4336,0.5258,0.5766,0.6523,0.7365,0.7455,0.7489,0.0,0.7489,0.7489,0.7526,0.7722,0.7987,0.8349,0.8829,0.9274,0.9696,1.0174,1.0586,1.1028,1.1272,1.174,1.2151,1.2151,1.2375,1.2543,1.2305,1.2439,1.2543,1.2305,1.2447,1.2498,0.0,1.2406,1.2344,0.0,0.0,0.0,0.0,0.0,0.0,0.0,0.0,0.0,0.0,0.7967,0.7901,0.7901,0.7408,0.7058,0.6945,0.6664,0.6417,0.0,0.0,0.6558,0.6379,0.6548,0.6657,0.668,0.6563,0.6501,0.6501,0.6211,0.6133,0.6221,0.6347,0.6518,0.6753,0.6949,0.7159,0.7363,0.7652,0.7977,0.8361,0.878,0.9166,0.939,0.8522,0.8264,0.8458,0.2811,0.0,0.0,0.0,0.0,0.0,0.0,0.2522,0.0,0.3217,0.0,0.4342,0.4648,0.486,0.493,0.4806,0.0,0.473,0.452,0.4503,0.4317,0.3943,0.3943,0.3849,0.3659,0.364,0.3706,0.0,0.0,0.0,0.0,0.0,0.0,0.0,0.0,0.0,0.0,0.6013,0.6795,0.7247,0.7422,0.7489,0.7489,0.7489,0.7489,0.7489,0.7489,0.7722,0.8117,0.8759,0.9364,0.9869,1.0333,1.1083,1.1802,1.1864,1.2212,1.259,1.259,1.259,1.259,1.259,1.259,1.259,1.259,1.259,1.259,1.259,1.259,1.2467,0.0,0.0,0.0,0.0,0.0,0.0,0.0,0.0,0.0,0.0,0.0,0.0,0.8008,0.7494,0.7058,0.681,0.6664,0.6468,0.0,0.0,0.6576,0.6214,0.6553,0.6637,0.6506,0.6478,0.6478,0.6501,0.6327,0.6332,0.6511,0.6751,0.6988,0.7199,0.7403,0.7489,0.7554,0.8231,0.8619,0.8844,0.9518,0.9773,0.9773,0.9773,0.9773,0.9837,0.2288,0.0,0.0,0.0,0.0,0.2353,0.25,0.277,0.2981,0.3107,0.3859,0.4402,0.453,0.4813,0.493,0.4806,0.4795,0.0,0.0,0.0,0.0,0.4065,0.4183,0.417,0.4028,0.3895,0.3851,0.0,0.0,0.0,0.0,0.0,0.0,0.0,0.0,0.0,0.543,0.6568,0.0,0.7441,0.7474,0.7489,0.7489,0.7489,0.7489,0.7489,0.7489,0.7722,0.8117,0.8759,0.9364,0.9996,1.1052,1.156,1.1903,1.2344,1.2529,1.259,1.259,1.259,1.259,1.259,1.259,1.259,1.259,1.259,1.259,1.259,1.259,1.256,1.2467,0.0,0.0,0.0,0.0,0.0,0.0,0.0,0.0,0.0,0.0,0.8468,0.0,0.7836,0.7408,0.7354,0.7088,0.6834,0.0,0.0,0.645,0.0,0.6276,0.0,0.0,0.0,0.6337,0.6501,0.6468,0.6468,0.6516,0.6932,0.7157,0.7199,0.7403,0.7489,0.7554,0.8231,0.9166,1.0225,1.0958,1.124,1.124,1.124,1.124,1.1146,0.2232,0.0,0.0,0.0,0.0,0.0,0.0,0.2762,0.2908,0.3028,0.3605,0.4053,0.4218,0.4704,0.493,0.4806,0.4795,0.4757,0.4613,0.4539,0.4363,0.4126,0.4172,0.4118,0.3964,0.3903,0.3903,0.3903,0.0,0.0,0.0,0.0,0.0,0.0,0.0,0.4923,0.0,0.0,0.0,0.7342,0.7446,0.7489,0.7489,0.7489,0.7489,0.7489,0.7489,0.7722,0.8112,0.8888,0.9486,1.0117,1.1327,1.1934,1.2282,1.2529,1.259,1.259,1.259,1.259,1.259,1.259,1.259,1.259,1.259,1.259,1.259,1.259,1.259,1.259,1.259,1.2406,0.0,0.0,0.0,0.0,0.0,0.0,0.9986,0.0,0.0,0.0,0.0,0.0,0.0,0.0,0.0,0.0,0.0,0.0,0.716,0.0,0.0,0.0,0.7486,0.0,0.7585,0.7728,0.7386,0.7272,0.7365,0.7249,0.7247,0.7351,0.7446,0.7489,0.7587,0.8587,0.9837,1.1122,1.1466,1.1591,1.1591,1.1591,1.1591,1.156,0.0,0.2206,0.0,0.0,0.247,0.2586,0.2695,0.2796,0.2928,0.3065,0.3406,0.3778,0.4061,0.465,0.4938,0.4844,0.4812,0.4781,0.4698,0.4572,0.4363,0.4126,0.4143,0.4056,0.3865,0.3925,0.3943,0.0,0.0,0.0,0.0,0.0,0.0,0.0,0.0,0.0,0.0,0.0,0.7213,0.7266,0.7427,0.7489,0.7489,0.7489,0.7489,0.7489,0.7489,0.7722,0.8149,0.9017,0.9646,1.0338,1.1545,1.2212,1.259,1.259,1.259,1.259,1.259,1.259,1.259,1.259,1.259,1.259,1.259,1.259,1.259,1.259,1.259,1.259,1.259,1.259,0.0,0.0,0.0,0.0,0.0,0.0,0.0,0.0,0.0,0.0,0.9342,0.0,0.0,0.0,0.0,0.0,0.6559,0.0,0.0,0.0,0.0,0.8359,0.8355,0.0,0.8804,0.8953,0.8421,0.8199,0.8182,0.7855,0.7624,0.7526,0.7814,0.8004,0.8231,0.9262,1.0471,1.1591,1.1591,1.1591,1.1591,1.1591,1.1591,1.1591,0.0,0.0,0.0,0.0,0.0,0.2698,0.2764,0.3162,0.3414,0.3358,0.3616,0.3964,0.4407,0.4789,0.5012,0.4963,0.486,0.4781,0.4698,0.4572,0.4363,0.4126,0.4224,0.4221,0.4085,0.4065,0.407,0.0,0.0,0.389,0.0,0.0,0.0,0.0,0.0,0.0,0.0,0.6769,0.7294,0.7465,0.7484,0.7489,0.7489,0.7489,0.7489,0.7489,0.7489,0.7722,0.8149,0.9017,0.9805,1.0647,1.1856,1.2398,1.259,1.259,1.259,1.259,1.259,1.259,1.259,1.259,1.259,1.259,1.259,1.259,1.259,1.259,1.259,1.259,1.259,1.259,1.259,0.0,0.0,0.0,0.0,0.0,1.1561,1.091,0.0,0.0,0.9766,0.9413,0.0,0.0,0.8301,0.0,0.0,0.0,0.0,0.6587,0.8028,0.8628,0.8234,0.8658,0.899,0.9163,0.9102,0.8759,0.8218,0.8963,0.8629,0.7554,0.8775,0.9646,1.0225,1.0351,1.0863,1.1591,1.1591,1.1591,1.1591,1.1591,1.1591,1.1591,0.0,0.0,0.0,0.0,0.0,0.0,0.0,0.3243,0.3543,0.3668,0.4026,0.4314,0.4409,0.4768,0.4958,0.4849,0.4754,0.4643,0.449,0.4395,0.4295,0.4092,0.4235,0.4243,0.4089,0.4189,0.4227,0.0,0.0,0.0,0.0,0.0,0.0,0.0,0.0,0.5663,0.5885,0.6952,0.7418,0.7489,0.7489,0.7489,0.7489,0.7489,0.7489,0.7489,0.7489,0.7852,0.8414,0.9081,0.9837,1.0679,1.167,1.2274,1.259,1.259,1.259,1.259,1.259,1.259,1.259,1.259,1.259,1.259,1.259,1.259,1.259,1.259,1.259,1.259,1.259,1.259,1.259,1.259,0.0,0.0,0.0,0.0,0.0,1.1308,0.0,1.0631,1.0254,1.0069,0.0,0.0,0.0,0.0,0.0,0.0,0.0,0.8437,0.0,0.9735,0.9942,1.0129,1.0368,1.064,1.0205,0.9831,0.9593,0.9533,0.9198,0.8748,0.9262,0.9875,1.0485,1.0485,1.0926,1.1591,1.1591,1.1591,1.1591,1.1591,1.1591,1.1591,0.345,0.0,0.303,0.0,0.3172,0.3205,0.3304,0.3673,0.399,0.4132,0.4554,0.4781,0.4597,0.4818,0.4934,0.4761,0.4709,0.4602,0.4363,0.4319,0.4262,0.4175,0.4254,0.0,0.4172,0.4257,0.43,0.43,0.4382,0.0,0.0,0.0,0.0,0.0,0.5296,0.5809,0.5954,0.7031,0.7489,0.7489,0.7489,0.7489,0.7489,0.7489,0.7489,0.7521,0.7624,0.8019,0.8576,0.9049,0.9837,1.078,1.1545,1.2182,1.259,1.259,1.259,1.259,1.259,1.259,1.259,1.259,1.259,1.259,1.259,1.259,1.259,1.259,1.259,1.259,1.259,1.259,1.259,1.259,0.0,0.0,0.0,1.2367,0.0,1.1686,1.1439,1.1122,1.0695,1.0647,0.0,0.0,0.0,0.0,0.0,0.0,0.0,0.0,0.0,0.0,1.0906,1.1156,1.1364,1.1591,1.1083,1.0706,1.0485,0.9811,0.9741,1.0123,0.9901,1.0193,1.0832,1.0832,1.1115,1.1591,1.1591,1.1591,1.1591,1.1591,1.1591,1.1591,0.4267,0.42,0.4187,0.4279,0.4295,0.4297,0.43,0.4699,0.489,0.473,0.5118,0.5279,0.5003,0.4979,0.4928,0.4804,0.4722,0.4638,0.4509,0.4363,0.43,0.0,0.0,0.43,0.4298,0.43,0.43,0.43,0.0,0.0,0.4089,0.0,0.4183,0.4331,0.5425,0.5888,0.5954,0.7031,0.7489,0.7489,0.7489,0.7489,0.7489,0.7489,0.7489,0.7554,0.7884,0.822,0.8544,0.8888,0.9875,1.1083,1.1646,1.2182,1.259,1.259,1.259,1.259,1.259,1.259,1.259,1.259,1.259,1.259,1.259,1.259,1.259,1.259,1.259,1.259,1.259,1.259,1.259,1.259,0.0,0.0,0.0,1.259,0.0,1.2051,1.1982,1.1741,1.1058,1.0995,0.0,0.0,0.0,0.0,0.0,0.0,0.0,0.8938,1.0655,0.0,1.051,1.124,1.1591,1.1591,1.1591,1.1209,1.0485,0.9811,1.025,1.1529,1.08,1.0895,1.1591,1.1591,1.1591,1.1591,1.1591,1.1591,1.1591,1.1591,1.1591,1.1591,0.4649,0.4435,0.4265,0.4293,0.43,0.43,0.43,0.4699,0.496,0.4787,0.5125,0.535,0.5148,0.5064,0.4934,0.0,0.4712,0.4605,0.0,0.4319,0.43,0.43,0.43,0.43,0.43,0.43,0.43,0.43,0.0,0.0,0.0,0.4357,0.4537,0.4891,0.5591,0.6119,0.6478,0.7199,0.7489,0.7489,0.7489,0.7489,0.7489,0.7489,0.7489,0.7554,0.7884,0.822,0.8544,0.8894,0.9907,1.1021,1.1202,1.1864,1.259,1.259,1.259,1.259,1.259,1.259,1.259,1.259,1.259,1.259,1.259,1.259,1.259,1.259,1.259,1.259,1.259,1.259,1.259,1.259,1.259,0.0,1.259,0.0,1.2455,1.2067,1.199,1.1837,1.1376,1.1336,0.0,0.0,0.0,0.0,0.0,0.0,0.0,0.0,1.1201,0.0,1.124,1.1466,1.1591,1.1591,1.1591,1.1466,1.1247,1.1021,1.1178,1.1591,1.1341,1.1373,1.1591,1.1591,1.1591,1.1591,1.1591,1.1591,1.1591,1.1591,1.1591,1.1591,0.5203,0.5027,0.489,0.489,0.489,0.4878,0.4842,0.506,0.5227,0.5034,0.5247,0.5347,0.514,0.5059,0.0,0.4738,0.4714,0.4608,0.4376,0.4325,0.43,0.43,0.43,0.43,0.43,0.43,0.0,0.43,0.4371,0.444,0.444,0.444,0.467,0.512,0.5657,0.6185,0.6741,0.726,0.7489,0.7489,0.7489,0.7489,0.7489,0.7489,0.7489,0.7559,0.8019,0.8317,0.8582,0.9028,1.0009,1.0982,1.0982,1.174,1.259,1.259,1.259,1.259,1.259,1.259,1.259,1.259,1.259,1.259,1.259,1.259,1.259,1.259,1.259,1.259,1.259,1.259,1.259,1.259,1.259,1.259,1.259,0.0,1.2511,0.0,0.0,0.0,0.0,1.1686,1.1638,0.0,0.0,0.0,0.0,0.0,0.0,1.1798,1.1601,1.1562,1.1685,1.1622,1.1591,1.1591,1.1591,1.1591,1.1591,1.1591,1.1591,1.1591,1.1591,1.1591,1.1591,1.1591,1.1591,1.1591,1.1591,1.1591,1.1591,1.1591,1.1591,1.1591,0.5893,0.5915,0.5915,0.0,0.5915,0.5877,0.5718,0.5699,0.5659,0.5468,0.5429,0.5298,0.5078,0.504,0.4982,0.4831,0.0,0.0,0.4525,0.4376,0.4311,0.4311,0.4306,0.43,0.43,0.43,0.43,0.43,0.43,0.43,0.43,0.43,0.4597,0.5186,0.569,0.6218,0.6773,0.7293,0.7489,0.7489,0.7489,0.7489,0.7489,0.7489,0.7489,0.7587,0.8252,0.8517,0.8614,0.9259,1.0142,1.0958,1.0982,1.1709,1.256,1.259,1.259,1.259,1.259,1.259,1.259,1.259,1.259,1.259,1.259,1.259,1.259,1.259,1.259,1.259,1.259,1.259,1.259,1.259,1.259,1.259,1.259,1.259,1.259,0.0,0.0,0.0,1.2091,1.2051,1.1916,0.0,0.0,0.0,0.0,0.0,1.2157,1.1868,1.1829,1.1833,1.1802,1.1685,1.1622,1.1591,1.1591,1.1591,1.1591,1.1591,1.1591,1.1591,1.1591,1.1591,1.1591,1.1591,1.1591,1.1591,1.1591,1.1591,1.1591,1.1591,1.1591,1.1591,0.0,0.0,0.6043,0.6043,0.6043,0.6002,0.5882,0.5863,0.5812,0.5667,0.5524,0.5443,0.5389,0.5257,0.5135,0.5105,0.4912,0.4738,0.4654,0.4531,0.4465,0.4465,0.4346,0.43,0.43,0.43,0.43,0.43,0.43,0.43,0.43,0.43,0.4797,0.5723,0.5855,0.6412,0.733,0.7456,0.7489,0.7489,0.7489,0.7489,0.7489,0.7489,0.7489,0.7587,0.8252,0.8517,0.8614,0.9259,0.9926,1.0523,1.0895,1.1459,1.2058,1.2467,1.259,1.259,1.259,1.259,1.259,1.259,1.259,1.259,1.259,1.259,1.259,1.259,1.259,1.259,1.259,1.259,1.259,1.259,1.259,1.259,1.259,1.259,1.259,0.0,1.259,1.2558,1.2471,1.2463,1.2431,0.0,0.0,1.2463,1.2463,1.2512,1.2428,1.2188,1.2166,1.2058,1.1802,1.1778,1.1716,1.1591,1.1591,1.1591,1.1591,1.1591,1.1591,1.1591,1.1591,1.1591,1.1591,1.1591,1.1591,1.1591,1.1591,1.1591,1.1591,1.1591,1.1591,1.1591,0.6075,0.613,0.6168,0.6168,0.6121,0.6045,0.592,0.5858,0.5737,0.5621,0.5548,0.5486,0.5474,0.5349,0.5246,0.5192,0.4972,0.4781,0.4698,0.4572,0.4482,0.4395,0.4333,0.43,0.43,0.43,0.43,0.43,0.43,0.43,0.43,0.43,0.4731,0.5524,0.5524,0.6145,0.7129,0.7129,0.7265,0.7489,0.7489,0.7489,0.7489,0.7489,0.7591,0.7787,0.8317,0.8608,0.8802,0.9323,0.9862,1.0396,1.0863,1.1365,1.1903,1.2436,1.259,1.263,1.2789,1.2718,1.263,1.2797,1.2837,1.2837,1.2837,1.271,1.259,1.259,1.259,1.259,1.259,1.259,1.259,1.259,1.259,1.259,1.259,1.259,1.259,1.259,1.259,1.259,1.259,1.259,1.259,1.259,1.259,0.0,1.2829,1.2678,1.256,1.2428,1.2336,1.2205,1.2027,1.1864,1.174,1.1591,1.1591,1.1591,1.1591,1.1591,1.1591,1.1591,1.1591,1.1591,1.1591,1.1591,1.1591,1.1591,1.1591,1.1591,1.1591,1.1591,1.1591,1.1591,0.6089,0.6246,0.6311,0.6292,0.617,0.6067,0.5923,0.582,0.5672,0.5551,0.5534,0.5494,0.5434,0.5409,0.5347,0.5224,0.5012,0.4836,0.4753,0.4629,0.4474,0.4357,0.4336,0.4317,0.43,0.43,0.43,0.43,0.43,0.43,0.43,0.43,0.4597,0.5087,0.5186,0.5782,0.6708,0.6773,0.7097,0.7489,0.7489,0.7489,0.7489,0.7489,0.7722,0.8052,0.8382,0.87,0.9049,0.9382,0.9798,1.0269,1.0832,1.1296,1.1802,1.2406,1.259,1.2662,1.2965,1.2861,1.2758,1.3076,1.3171,1.3155,1.3108,1.2893,1.2662,1.2606,1.259,1.259,1.259,1.259,1.259,1.259,1.259,1.259,1.259,0.0,1.259,1.259,1.259,1.259,1.259,1.259,1.259,1.259,1.2646,1.2805,1.3076,1.2837,1.2694,1.2742,1.2491,1.2336,1.2305,1.1957,1.1747,1.1622,1.1622,1.1622,1.1622,1.1622,1.1622,1.1622,1.1654,1.1654,1.1622,1.1622,1.1622,1.1622,1.1622,1.1622,1.1622,1.1654,1.1685,1.1685,0.6265,0.6306,0.6284,0.6132,0.6184,0.6165,0.5937,0.5888,0.5836,0.5675,0.5661,0.5653,0.5634,0.554,0.5474,0.5394,0.5214,0.5083,0.4969,0.4847,0.4724,0.464,0.4534,0.4398,0.4303,0.43,0.43,0.43,0.43,0.43,0.43,0.43,0.4597,0.512,0.5587,0.6119,0.6741,0.7195,0.7423,0.7489,0.7489,0.7489,0.7489,0.7489,0.7722,0.8052,0.8382,0.87,0.9049,0.9382,0.9548,0.9798,1.0706,1.1052,1.1334,1.2313,1.259,1.2606,1.2662,1.2853,1.3084,1.3458,1.3505,1.3433,1.3155,1.3044,1.2957,1.2654,1.259,1.259,1.259,1.259,1.259,1.259,1.259,1.259,1.259,0.0,1.259,1.259,1.259,1.259,1.259,1.259,1.259,1.259,1.2869,1.3036,1.3084,1.3036,1.3139,1.345,1.2861,1.2467,1.2305,1.1957,1.1778,1.1778,1.1654,1.1654,1.1778,1.1778,1.1778,1.1771,1.1934,1.1934,1.1778,1.1778,1.1778,1.1778,1.1778,1.1778,1.1778,1.1965,1.2027,1.2027,0.6072,0.6179,0.6279,0.6108,0.6078,0.6034,0.592,0.585,0.5748,0.5696,0.5688,0.5688,0.5688,0.564,0.5572,0.5427,0.5358,0.5208,0.5029,0.4863,0.4749,0.4599,0.4534,0.4451,0.4303,0.43,0.43,0.43,0.43,0.43,0.43,0.43,0.4597,0.512,0.5355,0.5918,0.6708,0.6966,0.7232,0.7489,0.7489,0.7489,0.7489,0.7489,0.7819,0.8284,0.8447,0.8835,0.9285,0.9452,0.9516,0.967,1.0674,1.0982,1.1209,1.2282,1.2734,1.2837,1.2646,1.3124,1.3592,1.337,1.3457,1.3497,1.3171,1.2973,1.2789,1.263,1.259,1.259,1.259,1.259,1.259,1.259,1.259,0.0,1.259,1.259,1.259,1.259,1.259,1.259,1.259,1.259,1.259,1.259,1.2925,1.3171,1.3346,1.3354,1.3513,1.3854,1.3203,1.2877,1.2906,1.252,1.2384,1.2502,1.2257,1.2174,1.223,1.2048,1.1965,1.1965,1.2058,1.2058,1.1965,1.1965,1.1965,1.1965,1.1965,1.1965,1.1965,1.2058,1.2096,1.2096,0.5953,0.6075,0.6146,0.6026,0.5947,0.5893,0.5869,0.5745,0.5688,0.5688,0.5688,0.5688,0.5688,0.5664,0.5572,0.5428,0.536,0.5249,0.5067,0.4906,0.4768,0.4558,0.4495,0.4435,0.4341,0.4314,0.43,0.43,0.43,0.43,0.43,0.4434,0.4746,0.5172,0.544,0.6007,0.6776,0.6908,0.7175,0.7489,0.7489,0.7489,0.7489,0.7489,0.7922,0.8517,0.8517,0.8937,0.9516,0.9516,0.9516,0.967,1.0674,1.0982,1.1209,1.2282,1.2789,1.2925,1.2766,1.3322,1.3862,1.3338,1.3457,1.36,1.3187,1.2909,1.2694,1.2614,1.259,1.259,1.259,1.259,1.259,1.259,0.0,1.259,1.259,1.259,1.259,1.259,1.259,1.259,1.259,1.259,1.259,1.259,1.2988,1.3314,1.3602,1.3664,1.3831,1.4101,1.3521,1.3266,1.3331,1.3078,1.3018,1.3181,1.277,1.2634,1.2658,1.2312,1.2158,1.2158,1.2189,1.2182,1.2158,1.2158,1.2158,1.2158,1.2158,1.2158,1.2151,1.2189,1.222,1.222,0.6032,0.5996,0.5893,0.5734,0.5839,0.5869,0.5718,0.5694,0.5688,0.5688,0.5688,0.5688,0.5688,0.5588,0.5513,0.5497,0.533,0.5192,0.5175,0.5067,0.4896,0.4687,0.4431,0.4357,0.449,0.4355,0.43,0.43,0.43,0.43,0.43,0.4824,0.5161,0.5431,0.6424,0.6907,0.701,0.7521,0.764,0.7489,0.7489,0.7489,0.7489,0.7489,0.7922,0.8517,0.8517,0.8937,0.9516,0.9516,0.9516,0.967,1.0674,1.0982,1.1209,1.2282,1.2614,1.2702,1.3004,1.333,1.3608,1.3594,1.3815,1.3902,1.3243,1.3068,1.2988,1.2662,1.259,1.259,1.259,1.259,1.259,1.259,0.0,0.0,1.259,1.259,1.259,1.259,1.259,1.259,1.259,1.259,1.259,1.259,1.3204,1.3553,1.3618,1.3894,1.4085,1.4109,1.3743,1.341,1.3132,1.3269,1.3359,1.3382,1.2868,1.2666,1.2779,1.243,1.2274,1.2305,1.2467,1.2467,1.2274,1.2274,1.2274,1.2274,1.2274,1.2274,1.2305,1.2498,1.256,1.256,0.5969,0.5934,0.5869,0.571,0.5723,0.5737,0.5696,0.5688,0.5688,0.5688,0.5688,0.5688,0.5688,0.558,0.5478,0.5445,0.5284,0.5186,0.5186,0.508,0.4942,0.4773,0.4607,0.4575,0.4618,0.4501,0.444,0.444,0.4336,0.43,0.4303,0.4608,0.5067,0.572,0.6218,0.6851,0.7509,0.7714,0.784,0.7868,0.774,0.7693,0.7707,0.7775,0.8084,0.8517,0.8738,0.9092,0.9516,0.9516,0.9516,0.967,1.0674,1.0982,1.1209,1.2282,1.259,1.2622,1.2758,1.3044,1.3282,1.3282,1.3378,1.341,1.3147,1.2949,1.2758,1.2622,1.2773,1.2853,1.263,1.2773,1.2917,1.2917,0.0,1.2988,1.3196,1.3227,1.3156,1.2917,1.2917,1.2837,1.2614,1.2789,1.2829,1.2614,1.3402,1.3815,1.3592,1.409,1.4304,1.4117,1.4196,1.418,1.4019,1.3897,1.3824,1.3816,1.3427,1.3127,1.298,1.2625,1.2498,1.2498,1.256,1.256,1.2498,1.2498,1.2498,1.2498,1.2498,1.2498,1.2498,1.256,1.259,1.259,0.5961,0.5899,0.5825,0.5702,0.5688,0.5702,0.5737,0.5712,0.5702,0.5737,0.5712,0.5688,0.5688,0.558,0.5489,0.5488,0.5336,0.526,0.5298,0.5156,0.5018,0.486,0.4775,0.4706,0.4744,0.4624,0.4542,0.4503,0.4563,0.4605,0.4564,0.4987,0.5603,0.635,0.6601,0.7173,0.7911,0.7911,0.7954,0.8001,0.7792,0.7817,0.7957,0.8002,0.8279,0.8673,0.892,0.9215,0.9516,0.9516,0.9516,0.967,1.0674,1.1233,1.1646,1.2375,1.2511,1.2423,1.2423,1.2686,1.2957,1.2957,1.3084,1.3219,1.3116,1.3012,1.2917,1.2917,1.3108,1.3204,1.2957,1.3116,1.3251,1.3251,1.3251,1.3322,1.3586,1.3618,1.3497,1.3275,1.3155,1.3036,1.2925,1.3044,1.3036,1.2925,1.3648,1.4053,1.3918,1.4344,1.4494,1.4248,1.4375,1.4439,1.4439,1.4312,1.424,1.4233,1.3807,1.3465,1.3227,1.2805,1.259,1.259,1.259,1.259,1.259,1.259,1.259,1.259,1.259,1.259,1.259,1.259,1.2713,1.2858,0.6037,0.5896,0.5688,0.5688,0.5691,0.5729,0.5885,0.5809,0.5731,0.589,0.5806,0.5691,0.5691,0.558,0.5556,0.5677,0.551,0.542,0.5497,0.5322,0.5137,0.5023,0.4824,0.4747,0.4795,0.4753,0.4629,0.4506,0.5026,0.5232,0.5123,0.621,0.6907,0.7331,0.7863,0.8075,0.811,0.811,0.7996,0.7797,0.7579,0.7816,0.828,0.8068,0.8436,0.8985,0.9022,0.9215,0.9516,0.9484,0.9484,0.967,1.0674,1.174,1.259,1.2598,1.2305,1.2019,1.1998,1.2297,1.2598,1.259,1.3108,1.3497,1.3171,1.3346,1.3618,1.3618,1.3584,1.3584,1.3618,1.3584,1.3584,1.3584,1.3584,1.3584,1.3626,1.3626,1.3626,1.3584,1.3298,1.3227,1.3586,1.329,1.3235,1.3594,1.391,1.4268,1.4581,1.4597,1.4597,1.4597,1.4256,1.4109,1.4109,1.4423,1.4597,1.4581,1.3918,1.361,1.3586,1.2901,1.259,1.259,1.259,1.259,1.259,1.259,1.259,1.2598,1.2598,1.2621,1.2621,1.2621,1.2972,1.342,0.5945,0.5836,0.5688,0.5688,0.5801,0.5863,0.5896,0.5947,0.5994,0.6026,0.5926,0.5852,0.5852,0.5626,0.5521,0.5559,0.5461,0.5427,0.542,0.5355,0.5467,0.5741,0.5607,0.534,0.4961,0.5289,0.5457,0.5414,0.5332,0.5487,0.5882,0.6154,0.6485,0.6878,0.7151,0.7488,0.7906,0.7906,0.7954,0.8006,0.8064,0.8144,0.8319,0.8587,0.8823,0.904,0.9485,0.9569,0.9546,0.9727,0.9666,0.967,1.0674,1.149,1.2166,1.2767,1.271,1.2504,1.2981,1.3028,1.2877,1.2654,1.3108,1.3553,1.3457,1.3546,1.3618,1.3618,1.3783,1.3878,1.3624,1.3783,1.395,1.395,1.395,1.4037,1.4256,1.4288,1.4193,1.3982,1.387,1.3751,1.3592,1.3719,1.3743,1.3592,1.391,1.4156,1.4233,1.4233,1.4156,1.3902,1.3791,1.3743,1.3743,1.4093,1.4029,1.3553,1.3568,1.3363,1.2893,1.2686,1.259,1.259,1.259,1.259,1.259,1.259,1.2858,1.3246,1.3246,1.3519,1.3932,1.3932,1.4052,1.4172,0.5956,0.588,0.5814,0.5863,0.5928,0.5991,0.604,0.607,0.6102,0.6151,0.6051,0.5956,0.5909,0.5776,0.5626,0.5583,0.5556,0.5513,0.5513,0.5721,0.5993,0.6283,0.661,0.6464,0.575,0.6083,0.6194,0.6169,0.6169,0.6326,0.6642,0.6743,0.6929,0.7272,0.7323,0.7543,0.7821,0.7902,0.8006,0.8091,0.817,0.8348,0.8641,0.8919,0.9144,0.9405,0.9661,0.9781,0.9817,0.9769,0.9772,0.9926,1.0523,1.1209,1.1932,1.2598,1.2712,1.2718,1.3275,1.3338,1.3203,1.2893,1.3282,1.3791,1.3791,1.3902,1.4005,1.4005,1.4172,1.426,1.4037,1.418,1.4288,1.4288,1.4288,1.4359,1.4573,1.4605,1.4526,1.4312,1.4196,1.4077,1.4013,1.4069,1.4077,1.4005,1.4161,1.4288,1.4288,1.4188,1.4013,1.3799,1.3529,1.3386,1.3386,1.36,1.3568,1.329,1.3354,1.3204,1.2797,1.2662,1.259,1.259,1.259,1.259,1.259,1.259,1.295,1.3511,1.3511,1.3902,1.4499,1.4499,1.4647,1.4805,0.6043,0.5996,0.5956,0.6067,0.6094,0.614,0.63,0.6184,0.6157,0.6317,0.6176,0.6059,0.5947,0.5926,0.5877,0.5729,0.571,0.5699,0.5688,0.6269,0.6619,0.6662,0.7628,0.7818,0.7142,0.703,0.6939,0.6782,0.7261,0.7464,0.7397,0.7693,0.794,0.8115,0.8115,0.8011,0.7854,0.8039,0.8115,0.8152,0.8084,0.8485,0.9114,0.9068,0.9394,0.9841,0.9624,0.9859,1.019,0.9709,0.9855,1.0238,1.0276,1.0933,1.1751,1.2203,1.2466,1.2671,1.3116,1.3425,1.3568,1.3298,1.3696,1.4148,1.4117,1.4351,1.4605,1.4605,1.4605,1.4605,1.4605,1.4605,1.4605,1.4605,1.4605,1.4605,1.4605,1.4605,1.4605,1.4605,1.432,1.4248,1.4573,1.4312,1.4256,1.4581,1.4605,1.4589,1.4557,1.4256,1.4101,1.4069,1.3433,1.3092,1.3092,1.306,1.3195,1.3522,1.3219,1.3076,1.3036,1.2742,1.2621,1.2683,1.2683,1.2683,1.2683,1.2683,1.3017,1.352,1.3584,1.3995,1.4601,1.4638,1.4982,1.5293,0.6075,0.6064,0.6053,0.6081,0.6165,0.6287,0.6314,0.632,0.6322,0.6396,0.6301,0.6268,0.6192,0.6105,0.6037,0.601,0.592,0.5828,0.5694,0.6269,0.6833,0.73,0.7986,0.8463,0.8783,0.8008,0.7609,0.7567,0.7509,0.7716,0.8143,0.8077,0.8072,0.8115,0.8115,0.8091,0.8053,0.8096,0.8297,0.8559,0.8628,0.8907,0.9333,0.937,0.9482,0.9618,0.9769,0.9895,0.9973,0.9859,0.975,0.9734,1.018,1.046,1.091,1.2299,1.2543,1.2638,1.3923,1.4156,1.4045,1.4217,1.4375,1.4415,1.4172,1.4351,1.4605,1.4605,1.4605,1.4605,1.4605,1.4605,1.4605,1.4605,1.4605,1.4605,1.4605,1.4605,1.4605,1.4605,1.4542,1.4518,1.4597,1.4534,1.4518,1.4597,1.4605,1.4486,1.4201,1.4148,1.3982,1.3703,1.3306,1.3092,1.3092,1.2853,1.2742,1.2813,1.2996,1.2949,1.2702,1.263,1.2858,1.3299,1.3299,1.3299,1.3299,1.3299,1.348,1.376,1.4134,1.4772,1.5477,1.5859,1.5825,1.5491,0.6162,0.6173,0.6189,0.6244,0.6306,0.6347,0.6347,0.6399,0.6387,0.6387,0.6385,0.6306,0.6195,0.6124,0.604,0.5928,0.5858,0.5798,0.5694,0.663,0.7321,0.7624,0.8489,0.91,0.9437,0.8841,0.8479,0.8385,0.8248,0.8344,0.8538,0.833,0.8236,0.8236,0.8236,0.8286,0.8412,0.8475,0.877,0.9143,0.9229,0.9371,0.9548,0.9667,0.9781,0.9871,0.9757,0.9721,0.9739,0.9865,0.9733,0.9548,0.983,1.0174,1.0686,1.1728,1.2369,1.295,1.3938,1.4292,1.4328,1.4351,1.4478,1.4557,1.4375,1.4344,1.4399,1.4573,1.447,1.4399,1.4573,1.4605,1.4605,1.4605,1.4605,1.4605,1.4605,1.4605,1.4605,1.4605,1.4605,1.4605,1.4605,1.4605,1.4605,1.4605,1.4605,1.4696,1.4889,1.4742,1.4552,1.4362,1.4024,1.3851,1.3851,1.3684,1.3593,1.3593,1.3268,1.2996,1.2845,1.2845,1.3083,1.3511,1.3511,1.3692,1.3992,1.3992,1.4223,1.4553,1.4601,1.5055,1.5722,1.5987,1.5753,1.5287,0.6276,0.6298,0.6328,0.6371,0.6387,0.6387,0.6387,0.6387,0.6387,0.6387,0.6387,0.6311,0.6168,0.6146,0.6051,0.5769,0.575,0.5739,0.5718,0.6928,0.7698,0.779,0.8875,0.9526,0.9658,0.9521,0.9313,0.9037,0.9037,0.8963,0.8755,0.8585,0.8491,0.8453,0.8453,0.8578,0.8816,0.8999,0.9327,0.9776,0.9835,0.9816,0.9817,0.9868,1.0009,1.0106,0.9672,0.9546,0.9624,0.9883,0.9829,0.9648,0.9648,1.0089,1.0755,1.1279,1.2193,1.3194,1.3711,1.4227,1.4502,1.4125,1.4256,1.4502,1.4439,1.424,1.418,1.4375,1.4228,1.4132,1.4447,1.451,1.4534,1.4597,1.455,1.4534,1.4597,1.455,1.4542,1.4597,1.4605,1.4605,1.4605,1.4605,1.4701,1.49,1.4852,1.5193,1.6025,1.5722,1.547,1.547,1.5157,1.4965,1.4965,1.4937,1.4937,1.4957,1.4071,1.355,1.3365,1.3308,1.3507,1.3939,1.3939,1.4195,1.4647,1.4751,1.4961,1.5235,1.4874,1.5137,1.5691,1.5691,1.5469,1.5143,0.636,0.6365,0.6368,0.6384,0.6387,0.6387,0.6387,0.6387,0.6387,0.6387,0.6387,0.6373,0.6344,0.6338,0.6295,0.6059,0.6037,0.5994,0.5888,0.6537,0.7173,0.779,0.8559,0.9296,0.9952,0.9923,0.9677,0.9244,0.9244,0.9141,0.8938,0.8915,0.8841,0.8661,0.8661,0.8874,0.9236,0.9266,0.9685,1.037,1.0162,1.0107,1.0199,0.997,0.9787,0.9612,0.954,0.966,0.9895,1.0154,1.022,1.019,1.019,1.0283,1.0604,1.1949,1.2452,1.2811,1.3782,1.4332,1.4447,1.3823,1.3918,1.4101,1.3791,1.3926,1.4037,1.3783,1.3688,1.3767,1.4117,1.418,1.4248,1.4557,1.4351,1.4256,1.4557,1.4344,1.4299,1.4573,1.4605,1.4605,1.4605,1.4605,1.5049,1.6071,1.5835,1.6112,1.7215,1.6895,1.6677,1.6677,1.6276,1.609,1.609,1.5803,1.5803,1.609,1.5945,1.5384,1.4466,1.4071,1.4542,1.5755,1.5755,1.5583,1.5323,1.5731,1.5439,1.4816,1.4841,1.522,1.5691,1.5691,1.5748,1.5641,0.6387,0.6387,0.6387,0.6387,0.6387,0.6387,0.6387,0.6387,0.6387,0.6387,0.6387,0.6363,0.635,0.6282,0.62,0.6094,0.6086,0.6034,0.5912,0.6527,0.7176,0.7793,0.8492,0.9244,0.9994,0.9994,0.9904,0.9677,0.9559,0.9357,0.915,0.915,0.9103,0.9044,0.916,0.9491,1.0029,0.9997,1.0377,1.1056,1.0754,1.0598,1.0497,1.0382,1.0178,0.9931,0.9787,0.9805,0.9919,1.0039,1.0178,1.0292,1.0292,1.0394,1.071,1.1711,1.2329,1.2856,1.3432,1.3948,1.418,1.3481,1.3862,1.4225,1.3711,1.4172,1.4609,1.4252,1.4013,1.4045,1.4609,1.4546,1.4423,1.4581,1.447,1.4423,1.4581,1.447,1.4431,1.4589,1.4605,1.4684,1.4927,1.4724,1.519,1.663,1.6358,1.6777,1.8222,1.812,1.7952,1.7799,1.7629,1.7532,1.7532,1.7381,1.7391,1.7532,1.7532,1.6835,1.5587,1.5138,1.5379,1.6095,1.6095,1.6168,1.6306,1.6537,1.6234,1.5608,1.5131,1.4983,1.5029,1.5112,1.5174,1.513]}]]